     2              OBSERVATION DATA    GPS                 RINEX VERSION / TYPE
teqc 2000Feb29 20030805 03:04:41UTC                         PGM / RUN BY / DATE
                                                            COMMENT
L2: 1 -> 1; 150 -> 5; 250 -> 9                              COMMENT
L2: 1 -> 1; 150 -> 5; 250 -> 9                              COMMENT
L2: 1 -> 1; 150 -> 5; 250 -> 9                              COMMENT
L2: 1 -> 1; 150 -> 5; 250 -> 9                              COMMENT
L2: 1 -> 1; 150 -> 5; 250 -> 9                              COMMENT
Original Marker Name: LAZY                                  COMMENT
Campaign Name: USC/SCEC 2003                                COMMENT
4-Character Station Name: LAZY                              COMMENT
6-Character Antenna Code: DMRCHT                            COMMENT
Vertical Measurement Point: BCR                             COMMENT
Vertical Offset to Rinex Ref. Point: 0.0348                 COMMENT
Radial Measurement Point: ECF                               COMMENT
Radial Offset to Rinex Ref. Point: 0.1897                   COMMENT
Antenna Height from Field Measurement: 0.5600 m             COMMENT
Additional Antenna Identification Info.:                    COMMENT
Turborogue and Ashtech Choke Ring                           COMMENT
Original XYZ: -2353808.4126 -4718146.1885 3578604.3896      COMMENT
New XYZ position is based on association with SCEC monument COMMENT
E1F2G7O2+0011. Position of that monument is believed to be  COMMENT
valid to within 1 m horizontally; vertical accuracy         COMMENT
should be no worse than 3-times this value.                 COMMENT
                                                            COMMENT
Revised Rinex header created by UCSD GPS archive for        COMMENT
GSAC on 09-Nov-2004 (2004:314) 22:54:53 GMT                 COMMENT
For assistance contact dagnew@ucsd.edu                      COMMENT
or anderson@python.ucsd.edu                                 COMMENT
                                                            COMMENT
LAZY 1980                                                   MARKER NAME
KEA UNIV SOUTHERN CALIFORNIA                                OBSERVER / AGENCY
175 ASHTECH Z-XII3 CD00                                     REC # / TYPE / VERS
379 DORNE-MARGOL. TYPE T                                    ANT # / TYPE
 -2353803.0000 -4718133.0000  3578586.0000                  APPROX POSITION XYZ
        0.4921        0.0000        0.0000                  ANTENNA: DELTA H/E/N
     1     1     0                                          WAVELENGTH FACT L1/2
     7    C1    L1    L2    P1    P2    S1    S2            # / TYPES OF OBSERV
     0                                                      INTERVAL
  2003     1    14     0     0   30.000000                  TIME OF FIRST OBS
  2003     1    14    23    59   30.000000                  TIME OF LAST OBS
                                                            END OF HEADER
 03  1 14  0  0 30.0000000  0  7G 6G 4G10G 9G 5G24G30
  22969827.554   -13947426.54849 -10339675.55346  22969827.959    22969836.680
       223.000         174.000
  24180390.516    -4038576.39749  -3113496.80745  24180390.444    24180400.862
       212.000         150.000
  21198750.030   -20822897.28249 -16208653.61247  21198749.211    21198757.775
       238.000         201.000
  24980944.226    -4423474.45149  -3413580.93445  24980944.862    24980959.998
       211.000         146.000
  20470321.727   -30066948.95849 -23404547.04948  20470321.411    20470328.875
       246.000         217.000
  21783564.376   -17130880.69349 -13319123.00347  21783564.432    21783573.058
       238.000         197.000
  20766836.091   -26216155.91449 -20092867.47947  20766836.568    20766843.566
       242.000         207.000
 03  1 14  0  1  0.0000000  0  8G 6G 4G10G17G 9G 5G24G30
  22956850.929   -14015618.57849 -10392812.06546  22956850.783    22956860.334
       223.000         174.000
  24198996.352    -3940801.99549  -3037309.03345  24198996.523    24199006.747
       214.000         149.000
  21189393.224   -20872067.36149 -16246967.87447  21189392.359    21189401.099
       239.000         201.000
  25041403.051     -972736.94249   -724972.10345  25041404.786    25041418.949
       208.000         134.000
  24998074.790    -4333454.72649  -3343435.98145  24998075.752    24998091.439
       210.000         151.000
  20477039.923   -30031644.48949 -23377037.06948  20477039.551    20477047.088
       246.000         216.000
  21796832.826   -17061154.50549 -13264790.91247  21796832.737    21796841.554
       237.000         197.000
  20758159.969   -26261748.93049 -20128394.44247  20758160.185    20758167.518
       241.000         207.000
 03  1 14  0  1 30.0000000  0  8G 6G 4G10G17G 9G 5G24G30
  22943880.253   -14083779.43249 -10445924.30346  22943880.292    22943889.167
       224.000         174.000
  24217599.715    -3843040.93749  -2961131.63745  24217600.804    24217610.088
       212.000         149.000
  21180139.913   -20920693.31449 -16284858.14947  21180139.145    21180147.621
       239.000         201.000
  25024530.748    -1061404.02049   -794063.11245  25024530.488    25024546.240
       203.000         136.000
  25015180.591    -4243564.37049  -3273391.89045  25015180.621    25015196.906
       206.000         144.000
  20483857.128   -29995819.77449 -23349121.70748  20483856.711    20483864.290
       246.000         216.000
  21810135.674   -16991247.49549 -13210317.92247  21810135.547    21810144.327
       238.000         197.000
  20749578.648   -26306843.89049 -20163533.31647  20749578.895    20749586.117
       242.000         207.000
 03  1 14  0  2  0.0000000  0  8G 6G 4G10G17G 9G 5G24G30
  22930917.651   -14151897.65549 -10499003.31446  22930917.386    22930927.133
       223.000         174.000
  24236202.230    -3745284.08449  -2884957.52845  24236202.446    24236212.824
       212.000         149.000
  21170992.670   -20968762.03949 -16322314.20947  21170991.637    21171000.432
       239.000         202.000
  25007684.391    -1149932.81749   -863046.34245  25007683.891    25007698.790
       205.000         137.000
  25032263.162    -4153794.94449  -3203441.98745  25032263.575    25032278.184
       203.000         136.000
  20490775.259   -29959464.61649 -23320793.00748  20490774.902    20490782.337
       245.000         216.000
  21823474.659   -16921150.68249 -13155697.03047  21823474.693    21823482.656
       237.000         197.000
  20741094.542   -26351427.97149 -20198274.09247  20741094.799    20741101.980
       242.000         208.000
 03  1 14  0  2 30.0000000  0  8G 6G 4G10G17G 9G 5G24G30
  22917962.135   -14219978.74349 -10552053.39946  22917961.555    22917971.588
       223.000         174.000
  24254802.634    -3647538.93649  -2808792.52345  24254803.249    24254813.826
       211.000         148.000
  21161950.655   -21016277.85349 -16359339.43747  21161949.957    21161958.322
       239.000         202.000
  24990863.290    -1238328.19249   -931925.65245  24990861.636    24990877.751
       204.000         138.000
  25049321.166    -4064155.14649  -3133593.04845  25049322.575    25049336.233
       207.000         139.000
  20497793.016   -29922585.97049 -23292056.39448  20497792.623    20497800.150
       246.000         216.000
  21836848.196   -16850872.22049 -13100934.59247  21836848.015    21836856.704
       237.000         197.000
  20732706.837   -26395505.43149 -20232620.10147  20732707.116    20732714.314
       242.000         208.000
 03  1 14  0  3  0.0000000  0  8G 6G 4G10G17G 9G 5G24G30
  22905013.810   -14288021.94849 -10605073.95946  22905013.969    22905022.650
       223.000         174.000
  24273400.595    -3549806.91349  -2732637.74545  24273401.414    24273410.508
       210.000         148.000
  21153014.340   -21063238.11849 -16395931.76747  21153013.533    21153022.093
       239.000         202.000
  24974067.541    -1326589.58349  -1000700.55345  24974067.503    24974082.589
       208.000         137.000
  25066354.334    -3974646.89849  -3063846.67345  25066355.373    25066370.615
       207.000         143.000
  20504910.350   -29885184.17449 -23262912.13248  20504909.936    20504917.471
       245.000         216.000
  21850255.940   -16780413.99749 -13046032.08647  21850255.843    21850264.479
       237.000         197.000
  20724415.970   -26439074.03649 -20266569.59947  20724416.325    20724423.207
       242.000         208.000
 03  1 14  0  3 30.0000000  0  7G 6G 4G10G17G 5G24G30
  22892072.878   -14356026.47349 -10658064.39446  22892073.307    22892082.121
       223.000         175.000
  24291995.631    -3452089.13849  -2656494.07745  24291995.621    24292005.953
       212.000         148.000
  21144184.160   -21109640.58549 -16432089.45247  21144183.087    21144191.788
       239.000         202.000
  24957297.696    -1414715.43749  -1069369.83545  24957297.413    24957310.984
       207.000         139.000
  20512127.130   -29847259.75949 -23233360.63648  20512126.660    20512134.198
       245.000         216.000
  21863697.577   -16709777.76849 -12990990.87847  21863697.517    21863706.047
       237.000         196.000
  20716222.340   -26482131.54749 -20300120.84547  20716222.578    20716229.418
       242.000         208.000
 03  1 14  0  4  0.0000000  0  7G 6G 4G10G17G 5G24G30
  22879139.252   -14423992.43849 -10711024.78146  22879139.241    22879147.941
       224.000         174.000
  24310587.707    -3354387.61949  -2580363.05445  24310587.281    24310598.763
       210.000         149.000
  21135460.414   -21155483.87749 -16467811.41747  21135459.726    21135467.939
       239.000         202.000
  24940553.765    -1502705.10949  -1137933.06345  24940552.984    24940567.464
       207.000         139.000
  20519443.096   -29808814.13849 -23203403.00648  20519442.705    20519450.262
       246.000         216.000
  21877172.639   -16638965.74749 -12935812.68947  21877172.559    21877181.227
       237.000         196.000
  20708126.213   -26524676.78449 -20333272.91847  20708126.442    20708133.563
       242.000         208.000
 03  1 14  0  4 30.0000000  0  7G 6G 4G10G17G 5G24G30
  22866213.021   -14491919.86449 -10763955.14046  22866213.090    22866222.100
       224.000         175.000
  24329176.112    -3256704.66149  -2504246.51445  24329176.602    24329186.734
       212.000         149.000
  21126843.344   -21200766.46949 -16503096.46947  21126842.581    21126851.062
       240.000         202.000
  24923835.736    -1590558.34249  -1206389.94645  24923835.658    24923850.070
       206.000         139.000
  20526857.937   -29769848.87149 -23173040.45548  20526857.532    20526865.042
       246.000         216.000
  21890680.665   -16567980.65749 -12880499.63647  21890680.757    21890689.062
       237.000         196.000
  20700127.811   -26566708.45649 -20366024.80647  20700128.219    20700135.354
       242.000         208.000
 03  1 14  0  5  0.0000000  0  7G 6G 4G10G17G 5G24G30
  22853294.505   -14559806.71049 -10816853.87146  22853294.523    22853303.454
       224.000         175.000
  24347761.041    -3159040.07849  -2428144.29045  24347760.976    24347771.456
       211.000         149.000
  21118333.617   -21245485.06049 -16537942.04547  21118332.822    21118341.031
       239.000         203.000
  24907144.103    -1678272.90449  -1274738.76745  24907143.154    24907158.919
       202.000         139.000
  20534371.809   -29730363.25549 -23142272.43848  20534371.470    20534378.850
       246.000         216.000
  21904221.472   -16496823.36549 -12825052.40547  21904221.573    21904229.967
       236.000         196.000
  20692227.778   -26608223.15449 -20398373.86347  20692228.149    20692235.242
       242.000         208.000
 03  1 14  0  5 30.0000000  0  8G 6G 4G10G17G23G 5G24G30
  22840383.630   -14627653.50549 -10869721.39646  22840382.612    22840392.561
       225.000         175.000
  24366342.025    -3061396.62049  -2352058.51345  24366342.052    24366353.296
       210.000         148.000
  21109931.441   -21289638.52849 -16572347.26047  21109930.629    21109939.022
       240.000         203.000
  24890478.729    -1765848.90849  -1342979.57845  24890479.640    24890493.050
       207.000         141.000
  24464646.370    -1062725.76249   -461099.01645  24464643.730    24464662.062
       211.000         143.000
  20541984.304   -29690359.26649 -23111100.49448  20541984.070    20541991.545
       245.000         216.000
  21917794.476   -16425496.86649 -12769473.32347  21917794.467    21917802.739
       236.000         196.000
  20684426.231   -26649220.27649 -20430319.61447  20684426.739    20684433.654
       242.000         208.000
 03  1 14  0  6  0.0000000  0  8G 6G 4G10G17G23G 5G24G30
  22827480.575   -14695459.06449 -10922556.78646  22827480.504    22827489.420
       224.000         175.000
  24384918.802    -2963775.16349  -2275989.90545  24384918.722    24384928.716
       211.000         148.000
  21101637.248   -21333224.39449 -16606310.19547  21101636.361    21101644.885
       239.000         203.000
  24873840.206    -1853284.60849  -1411111.13645  24873839.959    24873854.544
       207.000         143.000
  24444443.652    -1168889.35449   -543823.32245  24444444.044    24444457.998
       196.000         134.000
  20549695.415   -29649837.21749 -23079524.86848  20549695.062    20549702.399
       246.000         216.000
  21931399.412   -16354002.45949 -12713763.40647  21931399.348    21931407.891
       237.000         195.000
  20676723.625   -26689697.46149 -20461860.21947  20676723.872    20676731.056
       242.000         208.000
 03  1 14  0  6 30.0000000  0  8G 6G 4G10G17G23G 5G24G30
  22814585.472   -14763222.78449 -10975359.57846  22814585.291    22814595.184
       225.000         175.000
  24403491.237    -2866176.89049  -2199939.32445  24403492.634    24403501.892
       212.000         148.000
  21093451.472   -21376240.68749 -16639829.30347  21093450.558    21093459.078
       239.000         203.000
  24857228.488    -1940579.19649  -1479132.71145  24857228.459    24857242.852
       204.000         138.000
  24424240.696    -1275053.58249   -626548.09945  24424239.561    24424256.096
       217.000         139.000
  20557504.926   -29608797.86949 -23047546.15048  20557504.626    20557511.951
       245.000         215.000
  21945036.013   -16282341.87049 -12657923.99347  21945035.828    21945044.546
       236.000         195.000
  20669120.395   -26729652.58149 -20492994.02447  20669120.835    20669127.376
       243.000         209.000
 03  1 14  0  7  0.0000000  0  8G 6G 4G10G17G23G 5G24G30
  22801698.399   -14830944.35949 -11028129.51546  22801697.693    22801707.608
       225.000         175.000
  24422058.922    -2768603.28949  -2123907.99745  24422058.960    24422069.286
       210.000         147.000
  21085374.422   -21418685.47249 -16672903.08447  21085373.789    21085382.024
       240.000         203.000
  24840643.733    -2027731.67249  -1547043.51745  24840642.081    24840657.385
       206.000         138.000
  24404038.498    -1381215.86549   -709271.45745  24404037.057    24404052.634
       201.000         145.000
  20565412.693   -29567242.29849 -23015165.18448  20565412.281    20565419.797
       245.000         215.000
  21958703.850   -16210516.91849 -12601956.50847  21958703.756    21958712.427
       236.000         195.000
  20661616.828   -26769083.91449 -20523719.68047  20661617.270    20661623.979
       243.000         209.000
 03  1 14  0  7 30.0000000  0  8G 6G 4G10G17G23G 5G24G30
  22788819.439   -14898623.31049 -11080866.24746  22788819.149    22788827.760
       226.000         176.000
  24440621.550    -2671056.10449  -2047897.25245  24440621.420    24440632.718
       210.000         146.000
  21077406.436   -21460557.25549 -16705530.37147  21077405.576    21077414.168
       239.000         203.000
  24824086.206    -2114741.43749  -1614843.13445  24824084.874    24824100.332
       204.000         140.000
  24383836.832    -1487373.81049   -791991.24745  24383834.673    24383852.255
       205.000         142.000
  20573418.448   -29525171.63449 -22982382.84448  20573417.909    20573425.690
       245.000         215.000
  21972402.562   -16138529.90449 -12545862.75147  21972402.232    21972410.738
       236.000         195.000
  20654213.148   -26807990.09949 -20554036.13447  20654213.685    20654220.433
       242.000         209.000
 03  1 14  0  8  0.0000000  0  8G 6G 4G10G17G23G 5G24G30
  22775948.704   -14966259.22149 -11133569.43946  22775948.219    22775957.217
       225.000         176.000
  24459178.777    -2573537.17349  -1971908.50645  24459178.783    24459188.977
       209.000         145.000
  21069547.727   -21501854.56749 -16737710.02047  21069546.786    21069555.128
       240.000         203.000
  24807555.871    -2201607.85149  -1682531.03045  24807554.647    24807570.147
       206.000         143.000
  24363636.542    -1593524.83849   -874705.81245  24363635.646    24363649.006
       211.000         137.000
  20581521.970   -29482587.32449 -22949200.26448  20581521.629    20581529.054
       245.000         215.000
  21986131.649   -16066382.92249 -12489644.33747  21986131.348    21986139.889
       235.000         194.000
  20646909.727   -26846369.69549 -20583942.26347  20646909.992    20646916.913
       243.000         209.000
 03  1 14  0  8 30.0000000  0  8G 6G 4G10G17G23G 5G24G30
  22763086.189   -15033851.48149 -11186238.60146  22763086.073    22763095.285
       226.000         176.000
  24477730.330    -2476047.54249  -1895942.63245  24477730.810    24477741.439
       210.000         144.000
  21061798.724   -21542575.64949 -16769440.65847  21061797.961    21061806.003
       239.000         204.000
  24791053.065    -2288330.04449  -1750106.54145  24791051.852    24791067.281
       206.000         142.000
  24343438.236    -1699666.25749   -957412.98745  24343436.470    24343453.054
       199.000         143.000
  20589723.046   -29439490.29849 -22915618.16448  20589722.632    20589730.156
       245.000         215.000
  21999890.697   -15994078.62549 -12433303.33947  21999890.503    21999899.151
       236.000         194.000
  20639706.835   -26884220.90849 -20613436.66547  20639707.028    20639713.977
       243.000         209.000
 03  1 14  0  9  0.0000000  0  8G 6G 4G10G17G23G 5G24G30
  22750232.250   -15101398.86349 -11238872.78646  22750231.872    22750241.204
       225.000         176.000
  24496276.298    -2378588.53249  -1820000.57045  24496276.631    24496286.591
       210.000         143.000
  21054159.829   -21582717.96549 -16800720.31247  21054158.949    21054167.352
       240.000         204.000
  24774577.869    -2374906.54449  -1817568.55045  24774577.147    24774590.107
       202.000         138.000
  24323242.004    -1805794.83849  -1040109.85245  24323239.602    24323256.296
       213.000         144.000
  20598021.632   -29395880.83249 -22881636.76048  20598021.187    20598028.612
       245.000         215.000
  22013679.486   -15921617.94049 -12376840.48347  22013679.187    22013687.870
       235.000         194.000
  20632604.958   -26921541.36849 -20642517.49347  20632605.305    20632612.193
       243.000         209.000
 03  1 14  0  9 30.0000000  0  8G 6G 4G10G17G23G 5G24G30
  22737386.896   -15168901.11849 -11291471.81246  22737386.665    22737395.483
       225.000         176.000
  24514816.159    -2281161.54749  -1744083.47245  24514816.666    24514826.510
       210.000         144.000
  21046631.327   -21622280.10149 -16831547.88047  21046630.501    21046638.803
       240.000         204.000
  24758130.608    -2461336.74349  -1884916.52745  24758130.023    24758145.265
       205.000         142.000
  24303048.982    -1911908.14549  -1122795.04945  24303047.650    24303062.196
       206.000         142.000
  20606417.466   -29351760.42149 -22847257.21848  20606417.144    20606424.618
       245.000         215.000
  22027497.692   -15849002.65549 -12320257.16347  22027497.491    22027505.930
       235.000         193.000
  20625604.283   -26958329.92849 -20671183.85947  20625604.611    20625611.322
       243.000         209.000
 03  1 14  0 10  0.0000000  0  8G 6G 4G10G17G23G 5G24G30
  22724550.133   -15236358.18749 -11344035.63246  22724549.612    22724558.892
       225.000         177.000
  24533349.437    -2183768.41849  -1668192.76045  24533349.685    24533360.033
       208.000         143.000
  21039213.513   -21661260.82249 -16861922.40347  21039212.946    21039221.087
       240.000         204.000
  24741711.297    -2547620.21749  -1952150.21645  24741710.870    24741724.754
       206.000         144.000
  24282859.138    -2018004.10049  -1205466.77645  24282857.228    24282873.157
       206.000         144.000
  20614910.224   -29307130.69349 -22812480.80948  20614909.905    20614917.467
       245.000         215.000
  22041344.800   -15776235.63949 -12263555.61047  22041344.904    22041353.519
       235.000         193.000
  20618705.079   -26994585.18249 -20699434.66147  20618705.307    20618712.329
       242.000         209.000
 03  1 14  0 10 30.0000000  0  8G 6G 4G10G17G23G 5G24G30
  22711722.169   -15303769.11749 -11396563.48946  22711721.792    22711731.504
       226.000         177.000
  24551876.119    -2086410.20949  -1592329.26645  24551876.200    24551887.200
       207.000         143.000
  21031906.863   -21699657.39549 -16891841.74447  21031906.164    21031914.411
       240.000         204.000
  24725320.223    -2633755.70649  -2019268.56145  24725319.268    24725334.585
       200.000         144.000
  24262673.148    -2124079.45649  -1288122.25245  24262671.662    24262686.434
       210.000         144.000
  20623499.799   -29261992.20649 -22777307.96348  20623499.498    20623506.987
       245.000         215.000
  22055220.578   -15703318.13049 -12206736.78847  22055220.319    22055228.995
       235.000         193.000
  20611907.765   -27030304.96249 -20727268.20847  20611907.963    20611914.809
       243.000         209.000
 03  1 14  0 11  0.0000000  0  8G 6G 4G10G17G23G 5G24G30
  22698903.090   -15371133.32249 -11449054.94146  22698902.936    22698911.929
       226.000         178.000
  24570395.807    -1989088.47349  -1516494.20245  24570396.718    24570406.465
       207.000         143.000
  21024711.553   -21737468.74749 -16921305.06547  21024710.935    21024719.107
       239.000         204.000
  24708957.222    -2719742.30649  -2086270.87445  24708956.325    24708971.103
       203.000         141.000
  24242491.886    -2230131.60749  -1370759.80845  24242489.604    24242506.674
       210.000         146.000
  20632185.940   -29216346.26749 -22741739.69848  20632185.475    20632193.147
       245.000         215.000
  22069124.512   -15630252.35249 -12149802.43047  22069124.423    22069133.103
       235.000         192.000
  20605212.642   -27065487.95149 -20754683.47947  20605212.638    20605219.818
       242.000         209.000
 03  1 14  0 11 30.0000000  0  8G 6G 4G10G17G23G 5G24G30
  22686093.025   -15438450.23049 -11501509.54346  22686092.805    22686101.647
       226.000         178.000
  24588908.311    -1891804.66449  -1440688.67145  24588908.603    24588919.748
       209.000         143.000
  21017627.875   -21774693.44549 -16950311.25147  21017626.930    21017635.474
       239.000         205.000
  24692622.776    -2805579.85349  -2153157.09545  24692621.594    24692635.246
       204.000         143.000
  24222315.132    -2336158.00649  -1453377.21645  24222312.132    24222329.063
       208.000         141.000
  20640968.379   -29170194.07149 -22705776.94948  20640968.045    20640975.590
       245.000         215.000
  22083056.357   -15557040.29549 -12092754.08647  22083055.899    22083064.559
       235.000         192.000
  20598619.894   -27100132.77249 -20781679.39747  20598620.202    20598627.039
       242.000         209.000
 03  1 14  0 12  0.0000000  0  8G 6G 4G10G17G23G 5G24G30
  22673292.074   -15505719.30849 -11553926.87646  22673291.997    22673300.712
       227.000         179.000
  24607413.318    -1794560.14949  -1364913.75745  24607413.772    24607423.862
       206.000         142.000
  21010656.169   -21811329.67649 -16978858.89047  21010655.286    21010663.574
       239.000         205.000
  24676316.849    -2891267.02849  -2219926.15645  24676314.293    24676330.095
       206.000         141.000
  24202144.029    -2442155.92849  -1535972.51445  24202142.545    24202157.681
       205.000         143.000
  20649846.982   -29123536.77649 -22669420.61648  20649846.609    20649854.285
       245.000         214.000
  22097015.600   -15483683.76649 -12035593.16247  22097015.674    22097024.183
       234.000         192.000
  20592129.872   -27134237.80049 -20808254.69647  20592130.235    20592136.948
       242.000         209.000
 03  1 14  0 12 30.0000000  0  8G 6G 4G10G17G23G 5G24G30
  22660500.333   -15572939.65749 -11606306.22946  22660500.272    22660508.632
       227.000         179.000
  24625910.518    -1697356.00449  -1289170.32145  24625910.997    24625920.698
       206.000         142.000
  21003796.814   -21847375.64249 -17006946.58447  21003796.184    21003804.258
       239.000         205.000
  24660039.652    -2976802.77949  -2286577.19645  24660038.141    24660053.629
       203.000         143.000
  24181978.757    -2548122.58249  -1618543.37445  24181975.866    24181992.894
       207.000         146.000
  20658821.520   -29076375.24249 -22632671.37048  20658821.046    20658828.490
       245.000         214.000
  22111002.006   -15410184.77849 -11978321.23347  22111001.712    22111010.675
       235.000         192.000
  20585742.988   -27167801.02049 -20834407.80747  20585743.217    20585750.310
       242.000         209.000
 03  1 14  0 13  0.0000000  0  8G 6G 4G10G17G23G 5G24G30
  22647718.080   -15640110.52349 -11658647.04446  22647717.931    22647726.638
       227.000         180.000
  24644400.051    -1600193.28349  -1213459.14045  24644400.816    24644410.440
       204.000         141.000
  20997050.034   -21882829.75649 -17034573.09047  20997049.175    20997057.287
       239.000         205.000
  24643791.535    -3062186.56849  -2353109.81045  24643791.008    24643805.517
       207.000         144.000
  24161819.994    -2654055.09749  -1701087.70745  24161817.702    24161833.523
       205.000         140.000
  20667891.752   -29028710.72549 -22595530.18948  20667891.327    20667898.899
       245.000         214.000
  22125015.243   -15336544.70849 -11920939.37047  22125015.211    22125023.811
       234.000         191.000
  20579459.448   -27200820.89049 -20860137.52847  20579459.746    20579466.521
       242.000         209.000
 03  1 14  0 13 30.0000000  0  8G 6G 4G10G17G23G 5G24G30
  22634946.041   -15707227.58149 -11710945.92146  22634945.843    22634954.215
       227.000         180.000
  24662882.022    -1503069.74149  -1137778.47545  24662882.782    24662892.289
       207.000         141.000
  20990416.960   -21917686.57449 -17061734.17147  20990416.207    20990424.265
       240.000         205.000
  24627573.347    -3147413.40749  -2419520.17545  24627572.656    24627586.238
       208.000         144.000
  24141668.913    -2759946.93549  -1783600.34545  24141668.201    24141682.722
       208.000         143.000
  20677058.239   -28980540.58249 -22557995.01548  20677057.991    20677065.452
       245.000         214.000
  22139055.671   -15262761.72949 -11863446.14947  22139055.601    22139064.423
       234.000         191.000
  20573280.322   -27233292.12149 -20885439.74547  20573280.694    20573287.410
       242.000         209.000
 03  1 14  0 14  0.0000000  0  8G 6G 4G10G17G23G 5G24G30
  22622183.217   -15774296.11749 -11763207.00546  22622183.079    22622192.686
       227.000         181.000
  24681355.275    -1405992.60749  -1062133.99245  24681357.492    24681365.414
       206.000         141.000
  20983896.670   -21951950.64949 -17088433.37547  20983895.901    20983904.103
       240.000         205.000
  24611384.009    -3232488.66349  -2485812.47445  24611382.604    24611397.218
       204.000         142.000
  24121525.181    -2865801.13549  -1866083.66945  24121523.677    24121539.098
       198.000         143.000
  20686319.586   -28931871.99149 -22520071.43848  20686319.299    20686326.826
       245.000         214.000
  22153121.818   -15188843.73549 -11805847.72147  22153121.683    22153130.368
       233.000         191.000
  20567204.792   -27265218.96049 -20910317.75147  20567205.130    20567212.247
       243.000         209.000
 03  1 14  0 14 30.0000000  0  8G 6G 4G10G17G23G 5G24G30
  22609430.032   -15841314.39649 -11815428.92346  22609429.787    22609438.436
       228.000         181.000
  24699819.613    -1308962.32449   -986525.99745  24699820.510    24699830.210
       207.000         141.000
  20977489.655   -21985619.44949 -17114668.72647  20977488.857    20977496.999
       240.000         205.000
  24595223.726    -3317410.56249  -2551985.21045  24595223.521    24595237.876
       205.000         142.000
  24101389.265    -2971614.13649  -1948534.88445  24101388.146    24101402.100
       206.000         142.000
  20695675.677   -28882705.32449 -22481759.75148  20695675.162    20695682.896
       245.000         214.000
  22167213.463   -15114791.72549 -11748144.86047  22167213.218    22167221.865
       234.000         191.000
  20561233.308   -27296599.22349 -20934769.85947  20561233.534    20561240.433
       243.000         209.000
 03  1 14  0 15  0.0000000  0  8G 6G 4G10G17G23G 5G24G30
  22596686.569   -15908281.26749 -11867610.78946  22596686.300    22596695.459
       228.000         181.000
  24718274.860    -1211979.68049   -910955.12645  24718274.505    24718286.493
       205.000         139.000
  20971196.292   -22018690.88849 -17140438.60447  20971195.523    20971203.507
       239.000         205.000
  24579093.002    -3402177.61249  -2618037.30745  24579092.079    24579106.110
       206.000         145.000
  24081261.863    -3077382.76949  -2030951.59945  24081260.740    24081275.528
       203.000         144.000
  20705126.378   -28833041.55349 -22443060.71148  20705126.089    20705133.660
       244.000         214.000
  22181330.337   -15040607.20149 -11690338.74147  22181330.295    22181338.912
       234.000         190.000
  20555366.211   -27327430.94849 -20958794.53247  20555366.476    20555373.523
       243.000         210.000
 03  1 14  0 15 30.0000000  0  8G 6G 4G10G17G23G 5G24G30
  22583953.010   -15975196.32249 -11919752.29046  22583952.975    22583961.933
       227.000         181.000
  24736720.657    -1115046.09249   -835422.49445  24736721.004    24736731.836
       207.000         139.000
  20965016.835   -22051163.84949 -17165742.14047  20965015.961    20965024.046
       240.000         205.000
  24562991.834    -3486789.70949  -2683968.71745  24562991.155    24563005.537
       205.000         145.000
  24061143.321    -3183104.62649  -2113331.82645  24061141.159    24061156.215
       205.000         142.000
  20714671.378   -28782882.16549 -22403975.47548  20714670.972    20714678.516
       245.000         214.000
  22195472.108   -14966291.78949 -11632430.63647  22195472.554    22195480.199
       233.000         190.000
  20549603.753   -27357712.80549 -20982390.73747  20549604.075    20549610.915
       243.000         210.000
 03  1 14  0 16  0.0000000  0  8G 6G 4G10G17G23G 5G24G30
  22571229.523   -16042058.32349 -11971852.43046  22571229.633    22571237.758
       227.000         181.000
  24755157.080    -1018162.44749   -759928.75245  24755157.611    24755167.706
       207.000         138.000
  20958951.685   -22083036.17849 -17190577.65347  20958950.980    20958958.832
       239.000         205.000
  24546920.298    -3571245.30949  -2749778.10945  24546919.911    24546933.404
       205.000         143.000
  24041034.218    -3288776.18149  -2195672.86345  24041032.490    24041047.176
       204.000         145.000
  20724310.586   -28732227.70249 -22364504.46748  20724310.289    20724317.713
       244.000         214.000
  22209638.468   -14891847.03649 -11574421.74347  22209638.137    22209647.250
       233.000         190.000
  20543946.265   -27387442.99349 -21005557.07147  20543946.482    20543953.331
       243.000         210.000
 03  1 14  0 16 30.0000000  0  8G 6G 4G10G17G23G 5G24G30
  22558516.264   -16108866.45949 -12023910.60946  22558515.645    22558524.688
       227.000         181.000
  24773583.805     -921329.84949   -684474.79445  24773583.725    24773595.644
       203.000         139.000
  20953001.040   -22114306.68449 -17214944.21747  20953000.190    20953008.329
       240.000         205.000
  24530878.687    -3655543.59349  -2815464.96245  24530877.807    24530891.793
       206.000         143.000
  24020935.333    -3394394.85549  -2277972.73945  24020934.073    24020946.552
       205.000         144.000
  20734043.765   -28681079.54449 -22324648.76348  20734043.320    20734050.992
       244.000         214.000
  22223829.031   -14817275.10249 -11516313.75147  22223829.233    22223837.600
       232.000         190.000
  20538394.045   -27416619.95349 -21028292.31747  20538394.355    20538401.133
       243.000         210.000
 03  1 14  0 17  0.0000000  0  8G 6G 4G10G17G23G 5G24G30
  22545813.352   -16175620.26849 -12075926.45346  22545812.928    22545821.509
       227.000         181.000
  24792000.463     -824549.67649   -609061.66745  24792000.155    24792012.169
       209.000         139.000
  20947165.170   -22144974.10049 -17238840.84047  20947164.520    20947172.615
       240.000         206.000
  24514867.269    -3739683.86549  -2881028.66745  24514866.251    24514881.605
       208.000         145.000
  24000847.074    -3499957.94949  -2360229.29545  24000844.801    24000860.535
       199.000         144.000
  20743870.590   -28629439.16349 -22284409.50848  20743870.247    20743877.729
       244.000         213.000
  22238043.572   -14742577.30349 -11458107.68247  22238043.263    22238052.240
       233.000         189.000
  20532947.332   -27445242.48049 -21050595.53647  20532947.576    20532954.430
       243.000         210.000
 03  1 14  0 17 30.0000000  0  8G 6G 4G10G17G23G 5G24G30
  22533120.916   -16242318.87749 -12127899.27946  22533120.615    22533129.180
       227.000         181.000
  24810406.951     -727823.07449   -533690.30545  24810407.622    24810417.816
       204.000         139.000
  20941444.329   -22175037.04749 -17262266.45547  20941443.550    20941451.771
       240.000         206.000
  24498886.003    -3823665.51149  -2946468.74345  24498885.634    24498899.557
       204.000         145.000
  23980769.903    -3605462.68649  -2442440.43845  23980768.869    23980783.733
       205.000         147.000
  20753790.864   -28577307.76249 -22243787.63548  20753790.470    20753798.120
       244.000         213.000
  22252281.689   -14667755.46649 -11399804.96147  22252281.786    22252290.010
       233.000         189.000
  20527606.421   -27473308.94649 -21072465.46447  20527606.654    20527613.377
       243.000         210.000
 03  1 14  0 18  0.0000000  0  7G 6G10G17G23G 5G24G30
  22520439.150   -16308961.36149 -12179828.37946  22520438.975    22520447.228
       226.000         181.000
  20935838.841   -22204493.93149 -17285219.81747  20935838.151    20935846.127
       240.000         206.000
  24482934.969    -3907487.41049  -3011784.33045  24482933.498    24482947.847
       205.000         142.000
  23960704.351    -3710906.18949  -2524603.80945  23960703.040    23960717.482
       203.000         146.000
  20763804.344   -28524686.55149 -22202784.09748  20763803.958    20763811.543
       244.000         213.000
  22266543.064   -14592811.22149 -11341406.86147  22266542.943    22266551.618
       232.000         189.000
  20522371.585   -27500817.91949 -21093900.98147  20522371.798    20522378.738
       243.000         210.000
 03  1 14  0 18 30.0000000  0  7G 6G10G17G23G 5G24G30
  22507768.059   -16375547.95649 -12231713.92446  22507767.617    22507776.319
       227.000         182.000
  20930348.716   -22233344.24249 -17307700.52647  20930348.112    20930355.898
       240.000         206.000
  24467014.487    -3991149.76449  -3076975.63545  24467013.829    24467026.993
       206.000         143.000
  23940650.960    -3816286.60449  -2606718.11145  23940649.743    23940663.063
       207.000         145.000
  20773910.645   -28471577.62449 -22161400.51948  20773910.171    20773917.970
       244.000         213.000
  22280827.230   -14517747.36849 -11282915.55447  22280827.274    22280835.756
       232.000         188.000
  20517242.951   -27527768.81649 -21114901.63247  20517243.368    20517249.988
       243.000         210.000
 03  1 14  0 19  0.0000000  0  7G 6G10G17G23G 5G24G30
  22495107.936   -16442076.75249 -12283554.42146  22495107.711    22495116.455
       226.000         182.000
  20924974.468   -22261585.80449 -17329706.88747  20924973.792    20924981.689
       240.000         206.000
  24451124.742    -4074650.60749  -3142041.06145  24451123.779    24451137.657
       205.000         144.000
  23920610.218    -3921600.06049  -2688780.18945  23920609.067    23920622.941
       204.000         147.000
  20784109.641   -28417981.50449 -22119637.30848  20784109.231    20784116.743
       243.000         213.000
  22295134.015   -14442564.74349 -11224331.69647  22295134.240    22295142.232
       232.000         188.000
  20512220.939   -27554159.36849 -21135465.65147  20512221.245    20512227.930
       243.000         210.000
 03  1 14  0 19 30.0000000  0  7G 6G10G17G23G 5G24G30
  22482458.931   -16508547.06949 -12335349.35246  22482458.538    22482467.363
       227.000         182.000
  20919716.365   -22289217.18349 -17351237.78147  20919715.492    20919723.928
       240.000         206.000
  24435265.758    -4157989.12949  -3206979.92745  24435264.848    24435279.121
       208.000         144.000
  23900582.510    -4026843.92249  -2770788.04445  23900580.982    23900596.096
       208.000         147.000
  20794401.084   -28363899.67049 -22077495.61847  20794400.866    20794408.297
       244.000         212.000
  22309463.071   -14367265.02849 -11165656.60747  22309462.940    22309471.691
       232.000         188.000
  20507305.841   -27579988.26349 -21155592.01547  20507306.237    20507312.849
       244.000         211.000
 03  1 14  0 20  0.0000000  0  7G 6G10G17G23G 5G24G30
  22469821.186   -16574958.28449 -12387098.23546  22469820.607    22469829.487
       227.000         182.000
  20914574.571   -22316237.43249 -17372292.47147  20914573.872    20914581.680
       240.000         206.000
  24419437.767    -4241164.82149  -3271791.95245  24419437.006    24419450.518
       209.000         144.000
  23880568.944    -4132015.42749  -2852739.58845  23880567.737    23880581.443
       204.000         145.000
  20804784.637   -28309333.72649 -22034976.70147  20804784.118    20804791.869
       244.000         212.000
  22323814.025   -14291850.21949 -11106891.83247  22323813.945    22323823.123
       232.000         188.000
  20502497.834   -27605254.37349 -21175279.84747  20502498.226    20502504.686
       244.000         211.000
 03  1 14  0 20 30.0000000  0  7G 6G10G17G23G 5G24G30
  22457194.702   -16641310.09049 -12438800.82646  22457194.218    22457202.895
       228.000         183.000
  20909549.180   -22342645.82449 -17392870.39247  20909548.481    20909556.475
       241.000         207.000
  24403640.884    -4324177.50749  -3336477.00045  24403639.652    24403653.467
       207.000         144.000
  23860569.365    -4237112.31549  -2934632.92245  23860567.323    23860582.068
       205.000         147.000
  20815259.925   -28254285.69349 -21992082.13147  20815259.466    20815267.098
       243.000         212.000
  22338186.536   -14216322.28449 -11048038.90046  22338186.715    22338195.205
       232.000         187.000
  20497797.060   -27629956.87249 -21194528.50247  20497797.330    20497803.954
       244.000         211.000
 03  1 14  0 21  0.0000000  0  7G 6G10G17G23G 5G24G30
  22444579.848   -16707601.20249 -12490456.11746  22444579.701    22444588.342
       228.000         183.000
  20904640.534   -22368440.71349 -17412970.25547  20904639.679    20904647.664
       240.000         207.000
  24387875.209    -4407025.87549  -3401033.94245  24387873.596    24387888.432
       208.000         145.000
  23840584.723    -4342131.25849  -3016465.55945  23840584.597    23840597.587
       208.000         148.000
  20825826.747   -28198756.62549 -21948812.72647  20825826.310    20825833.923
       243.000         212.000
  22352580.209   -14140682.91749 -10989099.14646  22352580.441    22352588.773
       231.000         187.000
  20493203.874   -27654094.09749 -21213336.68347  20493204.090    20493210.771
       243.000         211.000
 03  1 14  0 21 30.0000000  0  7G 6G10G17G23G 5G24G30
  22431976.621   -16773831.28949 -12542063.85746  22431976.486    22431984.715
       229.000         184.000
  20899848.740   -22393621.43549 -17432591.54447  20899848.186    20899855.857
       240.000         207.000
  24372140.744    -4489709.99749  -3465462.89645  24372140.488    24372153.909
       211.000         147.000
  23820615.237    -4447069.97149  -3098235.63845  23820614.552    23820627.359
       207.000         148.000
  20836484.761   -28142748.37449 -21905169.93647  20836484.322    20836491.939
       243.000         212.000
  22366994.741   -14064934.02349 -10930074.04746  22366995.062    22367003.193
       232.000         187.000
  20488718.393   -27677665.26249 -21231703.77947  20488718.565    20488725.141
       244.000         211.000
 03  1 14  0 22  0.0000000  0  7G 6G10G17G23G 5G24G30
  22419385.182   -16839999.25549 -12593623.19646  22419384.963    22419393.625
       229.000         184.000
  20895174.084   -22418186.64949 -17451733.21747  20895173.283    20895181.342
       240.000         207.000
  24356437.800    -4572228.93149  -3529763.16245  24356436.760    24356450.596
       210.000         145.000
  23800661.649    -4551925.59749  -3179940.99745  23800661.025    23800674.148
       214.000         148.000
  20847233.734   -28086262.18849 -21861154.72647  20847233.501    20847240.948
       244.000         211.000
  22381429.788   -13989077.28949 -10870964.91646  22381430.308    22381438.404
       231.000         187.000
  20484340.927   -27700669.02749 -21249628.74747  20484341.206    20484347.957
       244.000         211.000
 03  1 14  0 22 30.0000000  0  7G 6G10G17G23G 5G24G30
  22406805.784   -16906104.08849 -12645133.33546  22406805.551    22406814.503
       230.000         185.000
  20890616.810   -22442135.07649 -17470394.27747  20890616.077    20890624.066
       240.000         207.000
  24340766.360    -4654581.70949  -3593933.94945  24340765.709    24340778.451
       210.000         144.000
  23780724.548    -4656695.17349  -3261579.32245  23780722.788    23780736.610
       205.000         148.000
  20858073.350   -28029299.52149 -21816768.23547  20858073.007    20858080.757
       243.000         211.000
  22395885.092   -13913114.13249 -10811772.86346  22395885.341    22395893.625
       232.000         186.000
  20480071.681   -27723103.87349 -21267110.40447  20480071.951    20480078.606
       244.000         211.000
 03  1 14  0 23  0.0000000  0  7G 6G10G17G23G 5G24G30
  22394238.524   -16972145.30049 -12696593.90546  22394238.102    22394246.504
       230.000         186.000
  20886177.024   -22465466.07249 -17488574.21947  20886176.361    20886184.229
       240.000         207.000
  24325126.708    -4736767.64549  -3657974.70445  24325126.016    24325139.257
       208.000         147.000
  23760804.074    -4761376.20949  -3343148.60045  23760803.228    23760816.076
       211.000         149.000
  20869003.315   -27971862.21949 -21772011.89547  20869002.900    20869010.551
       243.000         211.000
  22410360.404   -13837046.19549 -10752499.14146  22410360.160    22410368.636
       232.000         186.000
  20475910.864   -27744969.00649 -21284148.12547  20475911.222    20475917.772
       244.000         211.000
 03  1 14  0 23 30.0000000  0  7G 6G10G17G23G 5G24G30
  22381683.418   -17038122.54349 -12748004.62546  22381683.363    22381691.776
       231.000         187.000
  20881854.880   -22488178.91449 -17506272.47947  20881854.253    20881861.986
       240.000         207.000
  24309518.965    -4818786.39649  -3721885.18845  24309518.610    24309531.270
       212.000         148.000
  23740901.083    -4865966.29249  -3424647.03845  23740899.497    23740912.843
       207.000         150.000
  20880023.198   -27913952.28349 -21726887.26847  20880022.821    20880030.446
       243.000         211.000
  22424855.061   -13760876.27149 -10693145.96046  22424855.006    22424863.530
       230.000         185.000
  20471858.540   -27766263.82249 -21300741.44647  20471858.897    20471865.368
       243.000         211.000
 03  1 14  0 24  0.0000000  0  7G 6G10G17G23G 5G24G30
  22369140.750   -17104034.34949 -12799364.36446  22369140.766    22369149.002
       230.000         186.000
  20877650.697   -22510271.69849 -17523487.58047  20877649.814    20877657.804
       240.000         206.000
  24293943.113    -4900637.20249  -3785664.80145  24293941.604    24293955.737
       211.000         147.000
  23721015.863    -4970461.93949  -3506071.81645  23721014.983    23721028.364
       212.000         151.000
  20891132.895   -27855570.52349 -21681394.99147  20891132.440    20891140.104
       243.000         210.000
  22439368.989   -13684605.11149 -10633713.89046  22439369.638    22439377.980
       231.000         184.000
  20467915.096   -27786986.47549 -21316888.92447  20467915.457    20467921.954
       244.000         211.000
 03  1 14  0 24 30.0000000  0  7G 6G10G17G23G 5G24G30
  22356610.599   -17169880.12849 -12850672.64546  22356609.801    22356618.470
       231.000         187.000
  20873564.583   -22531744.16649 -17540219.31647  20873563.912    20873571.689
       240.000         207.000
  24278399.237    -4982319.79449  -3849313.35245  24278398.684    24278410.664
       211.000         147.000
  23701149.306    -5074860.68749  -3587421.14645  23701148.097    23701160.682
       211.000         151.000
  20902331.957   -27796718.93849 -21635536.61347  20902331.427    20902339.326
       243.000         210.000
  22453901.820   -13608234.60249 -10574204.40846  22453901.987    22453910.025
       230.000         184.000
  20464080.694   -27807136.16349 -21332589.93547  20464081.141    20464087.546
       244.000         211.000
 03  1 14  0 25  0.0000000  0  7G 6G10G17G23G 5G24G30
  22344093.191   -17235659.15649 -12901928.92146  22344092.806    22344101.018
       231.000         187.000
  20869596.687   -22552595.38849 -17556466.96647  20869596.039    20869603.682
       240.000         207.000
  24262887.611    -5063833.09849  -3912829.97645  24262886.793    24262899.837
       209.000         147.000
  23681301.488    -5179159.90849  -3668692.89145  23681299.707    23681313.065
       210.000         152.000
  20913620.147   -27737399.14749 -21589313.39947  20913619.782    20913627.340
       242.000         210.000
  22468453.289   -13531766.31649 -10514618.72946  22468453.104    22468461.482
       231.000         184.000
  20460355.527   -27826711.87049 -21347843.69047  20460355.860    20460362.438
       244.000         211.000
 03  1 14  0 25 30.0000000  0  7G 6G10G17G23G 5G24G30
  22331588.645   -17301370.31149 -12953132.30846  22331588.703    22331596.801
       231.000         187.000
  20865747.257   -22572824.16949 -17572229.60047  20865746.434    20865754.429
       240.000         207.000
  24247408.305    -5145176.29849  -3976214.04545  24247407.459    24247420.978
       211.000         149.000
  23661473.290    -5283356.58049  -3749884.71545  23661471.824    23661484.135
       208.000         153.000
  20924997.109   -27677612.62349 -21542726.50247  20924996.876    20925004.305
       242.000         210.000
  22483022.976   -13455202.24149 -10454958.40546  22483022.717    22483031.701
       230.000         184.000
  20456739.789   -27845712.41349 -21362649.27047  20456740.153    20456746.665
       244.000         211.000
 03  1 14  0 26  0.0000000  0  7G 6G10G17G23G 5G24G30
  22319097.182   -17367013.05849 -13004282.38847  22319097.011    22319104.654
       230.000         188.000
  20862016.389   -22592429.82049 -17587506.67547  20862015.577    20862023.460
       240.000         207.000
  24231961.435    -5226349.29949  -4039465.48945  24231960.173    24231974.425
       210.000         149.000
  23641664.887    -5387448.36249  -3830994.84145  23641663.487    23641677.190
       212.000         152.000
  20936462.574   -27617361.31749 -21495777.43147  20936462.109    20936469.793
       242.000         210.000
  22497610.546   -13378544.12249 -10395224.79946  22497610.408    22497619.107
       229.000         183.000
  20453233.650   -27864137.09149 -21377006.11747  20453234.081    20453240.708
       244.000         211.000
 03  1 14  0 26 30.0000000  0  7G 6G10G17G23G 5G24G30
  22306618.966   -17432586.24849 -13055378.27247  22306618.509    22306627.015
       230.000         188.000
  20858404.274   -22611411.40449 -17602297.46747  20858403.468    20858411.489
       240.000         207.000
  24216547.063    -5307351.13449  -4102583.53245  24216546.494    24216559.091
       212.000         149.000
  23621877.222    -5491432.28249  -3912020.89445  23621876.165    23621887.674
       211.000         154.000
  20948016.170   -27556646.70549 -21448467.34647  20948015.810    20948023.572
       242.000         210.000
  22512215.784   -13301793.20149 -10335418.88046  22512215.727    22512224.265
       229.000         183.000
  20449837.328   -27881984.71549 -21390913.31647  20449837.612    20449844.397
       244.000         211.000
 03  1 14  0 27  0.0000000  0  7G 6G10G17G23G 5G24G30
  22294154.313   -17498087.88749 -13106418.41647  22294153.798    22294162.151
       231.000         188.000
  20854911.267   -22629766.94149 -17616600.43047  20854910.316    20854918.317
       240.000         207.000
  24201165.798    -5388179.72949  -4165566.61245  24201165.222    24201177.519
       210.000         151.000
  23602110.698    -5595304.40949  -3992959.84045  23602110.159    23602121.506
       213.000         154.000
  20959657.846   -27495469.12649 -21400796.50747  20959657.501    20959665.138
       241.000         210.000
  22526838.454   -13224950.35349 -10275541.33146  22526838.584    22526846.838
       229.000         182.000
  20446551.278   -27899252.94049 -21404369.03547  20446551.887    20446558.196
       244.000         212.000
 03  1 14  0 27 30.0000000  0  7G 6G10G17G23G 5G24G30
  22281703.254   -17563518.16849 -13157402.93647  22281703.148    22281711.580
       230.000         188.000
  20851537.374   -22647496.72749 -17630415.80147  20851536.542    20851544.319
       240.000         207.000
  24185817.223    -5468835.98549  -4228415.38245  24185816.568    24185829.365
       209.000         151.000
  23582365.798    -5699062.96849  -4073810.32545  23582364.569    23582377.508
       215.000         155.000
  20971387.101   -27433831.54249 -21352767.22147  20971386.641    20971394.421
       242.000         210.000
  22541478.134   -13148018.30649 -10215594.27646  22541477.870    22541486.897
       229.000         182.000
  20443375.452   -27915941.98349 -21417373.44047  20443375.735    20443382.471
       244.000         212.000
 03  1 14  0 28  0.0000000  0  7G 6G10G17G23G 5G24G30
  22269265.865   -17628876.69149 -13208331.56147  22269266.198    22269273.558
       230.000         188.000
  20848282.613   -22664600.44249 -17643743.32647  20848281.845    20848289.658
       241.000         207.000
  24170501.527    -5549319.72149  -4291129.71945  24170501.040    24170513.168
       211.000         153.000
  23562643.077    -5802705.52449  -4154570.45145  23562641.013    23562654.544
       212.000         154.000
  20983203.490   -27371736.12249 -21304381.18247  20983203.141    20983210.720
       242.000         210.000
  22556134.494   -13070998.46549 -10155578.81646  22556134.783    22556142.851
       228.000         182.000
  20440309.898   -27932051.50449 -21429926.27347  20440310.298    20440316.685
       244.000         212.000
 03  1 14  0 28 30.0000000  0  7G 6G10G17G23G 5G24G30
  22256842.311   -17694162.50449 -13259203.52347  22256842.499    22256850.337
       231.000         188.000
  20845147.116   -22681077.31749 -17656582.40447  20845146.345    20845154.191
       241.000         207.000
  24155218.901    -5629629.69249  -4353708.64745  24155218.070    24155231.100
       211.000         152.000
  23542942.847    -5906229.34049  -4235238.02445  23542942.250    23542953.006
       214.000         155.000
  20995106.651   -27309184.59149 -21255639.73047  20995106.190    20995113.862
       242.000         209.000
  22570807.093   -12993893.11649 -10095496.72946  22570807.165    22570816.136
       229.000         182.000
  20437354.788   -27947580.58949 -21442026.81547  20437354.944    20437361.585
       244.000         212.000
 03  1 14  0 29  0.0000000  0  7G 6G10G17G23G 5G24G30
  22244432.799   -17759374.55349 -13310018.01547  22244432.770    22244440.746
       231.000         188.000
  20842131.064   -22696926.48249 -17668932.36147  20842130.463    20842137.988
       240.000         208.000
  24139969.231    -5709765.74649  -4416152.04145  24139967.958    24139981.058
       212.000         153.000
  23523265.788    -6009631.66449  -4315810.95445  23523264.293    23523277.370
       213.000         157.000
  21007096.308   -27246178.51949 -21206544.09347  21007096.060    21007103.462
       242.000         209.000
  22585495.763   -12916703.64049 -10035349.08646  22585496.096    22585504.416
       229.000         182.000
  20434510.323   -27962528.12449 -21453674.20447  20434510.813    20434516.951
       244.000         211.000
 03  1 14  0 29 30.0000000  0  7G 6G10G17G23G 5G24G30
  22232037.517   -17824511.77649 -13360774.19247  22232037.431    22232045.212
       231.000         188.000
  20839234.669   -22712146.91149 -17680792.39447  20839233.989    20839241.483
       241.000         208.000
  24124752.840    -5789727.50649  -4478459.65045  24124751.992    24124764.741
       211.000         154.000
  23503612.410    -6112909.52749  -4396286.95345  23503611.758    23503622.876
       215.000         157.000
  21019172.173   -27182719.46249 -21157095.47947  21019171.730    21019179.467
       242.000         209.000
  22600200.217   -12839431.25149  -9975136.83546  22600200.257    22600209.160
       229.000         182.000
  20431776.677   -27976893.22649 -21464867.74647  20431777.005    20431783.485
       244.000         211.000
 03  1 14  0 30  0.0000000  0  7G 6G10G17G23G 5G24G30
  22219656.577   -17889573.57449 -13411471.59947  22219656.512    22219664.494
       231.000         188.000
  20836457.932   -22726738.59349 -17692162.49447  20836457.341    20836465.066
       241.000         208.000
  24109569.725    -5869514.25349  -4540630.86545  24109567.953    24109581.285
       211.000         153.000
  23483983.245    -6216060.37849  -4476663.98145  23483982.127    23483994.811
       212.000         158.000
  21031333.808   -27118809.67649 -21107295.64947  21031333.321    21031341.113
       242.000         209.000
  22614920.033   -12762077.95449  -9914861.53846  22614919.947    22614928.681
       229.000         182.000
  20429154.023   -27990675.23349 -21475606.92847  20429154.301    20429160.818
       244.000         211.000
 03  1 14  0 30 30.0000000  0  7G 6G10G17G23G 5G24G30
  22207290.202   -17954558.97049 -13462109.47947  22207289.833    22207297.576
       231.000         189.000
  20833801.049   -22740700.58649 -17703041.92547  20833800.250    20833808.086
       241.000         208.000
  24094420.087    -5949125.21849  -4602665.12445  24094418.931    24094431.975
       213.000         154.000
  23464378.751    -6319081.44449  -4556939.87945  23464377.769    23464389.172
       216.000         159.000
  21043580.850   -27054450.96249 -21057146.00147  21043580.382    21043587.974
       242.000         209.000
  22629654.936   -12684645.58349  -9854524.62446  22629654.986    22629663.880
       229.000         182.000
  20426642.493   -28003873.30249 -21485891.09347  20426642.879    20426649.198
       244.000         211.000
 03  1 14  0 31  0.0000000  0  7G 6G10G17G23G 5G24G30
  22194938.484   -18019467.35749 -13512687.34347  22194938.204    22194946.224
       231.000         189.000
  20831263.991   -22754032.71149 -17713430.55047  20831263.406    20831271.028
       241.000         208.000
  24079303.942    -6028560.34649  -4664562.36445  24079302.526    24079315.505
       213.000         155.000
  23444799.485    -6421970.18449  -4637112.67945  23444799.013    23444810.512
       214.000         159.000
  21055912.942   -26989645.42049 -21006648.17647  21055912.585    21055920.035
       242.000         209.000
  22644404.619   -12607135.41949  -9794127.09646  22644404.295    22644413.518
       228.000         182.000
  20424242.124   -28016487.10049 -21495719.98247  20424242.351    20424248.999
       244.000         211.000
 03  1 14  0 31 30.0000000  0  7G 6G10G17G23G 5G24G30
  22182601.731   -18084296.64049 -13563203.56647  22182601.295    22182609.919
       231.000         189.000
  20828847.128   -22766733.33749 -17723327.09947  20828846.450    20828854.016
       241.000         208.000
  24064221.435    -6107818.22749  -4726321.47245  24064220.507    24064232.755
       213.000         155.000
  23425246.128    -6524722.89449  -4717179.50245  23425245.710    23425256.021
       214.000         158.000
  21068329.927   -26924393.75149 -20955802.72347  21068329.629    21068337.135
       242.000         209.000
  22659168.980   -12529548.26649  -9733669.58146  22659168.744    22659177.980
       229.000         182.000
  20421953.330   -28028514.60749 -21505092.02447  20421953.766    20421959.981
       244.000         211.000
 03  1 14  0 32  0.0000000  0  7G 6G10G17G23G 5G24G30
  22170280.097   -18149046.76449 -13613658.11647  22170279.675    22170288.042
       231.000         189.000
  20826550.315   -22778802.93549 -17732731.93547  20826549.650    20826557.422
       241.000         208.000
  24049172.751    -6186898.54949  -4787942.25745  24049172.215    24049184.024
       214.000         156.000
  23405718.966    -6627337.57249  -4797138.74545  23405718.398    23405729.720
       212.000         158.000
  21080831.319   -26858698.64249 -20904611.73147  21080830.884    21080838.557
       242.000         208.000
  22673947.507   -12451886.65449  -9673154.04246  22673947.613    22673956.009
       229.000         181.000
  20419776.034   -28039956.05449 -21514007.39547  20419776.283    20419782.901
       243.000         211.000
 03  1 14  0 32 30.0000000  0  7G 6G10G17G23G 5G24G30
  22157973.743   -18213716.69949 -13664050.17947  22157973.614    22157981.613
       232.000         190.000
  20824373.723   -22790240.81049 -17741644.51647  20824372.887    20824380.732
       241.000         208.000
  24034158.030    -6265800.87149  -4849424.34545  24034158.159    24034169.309
       213.000         156.000
  23386218.619    -6729811.46849  -4876988.27745  23386217.229    23386229.248
       214.000         159.000
  21093416.747   -26792561.88849 -20853076.60147  21093416.532    21093423.880
       242.000         208.000
  22688740.025   -12374151.60349  -9612581.27046  22688739.882    22688747.952
       229.000         181.000
  20417710.419   -28050810.68449 -21522465.50447  20417710.743    20417717.129
       244.000         211.000
 03  1 14  0 33  0.0000000  0  7G 6G10G17G23G 5G24G30
  22145682.833   -18278305.37449 -13714378.92847  22145682.513    22145690.481
       232.000         190.000
  20822317.449   -22801046.28349 -17750064.31847  20822316.610    20822324.540
       241.000         208.000
  24019177.093    -6344524.68749  -4910767.30345  24019176.090    24019188.939
       213.000         156.000
  23366745.664    -6832141.48149  -4956725.71245  23366744.060    23366756.343
       214.000         159.000
  21106085.864   -26725985.24449 -20801198.70047  21106085.551    21106092.984
       242.000         208.000
  22703546.071   -12296345.11649  -9551952.84646  22703545.912    22703555.065
       229.000         181.000
  20415756.641   -28061077.61349 -21530465.66747  20415757.026    20415763.232
       244.000         211.000
 03  1 14  0 33 30.0000000  0  7G 6G10G17G23G 5G24G30
  22133407.624   -18342811.67049 -13764643.48147  22133407.601    22133415.285
       231.000         190.000
  20820381.622   -22811218.96449 -17757991.03647  20820380.880    20820388.609
       241.000         208.000
  24004230.335    -6423069.60449  -4971970.88145  24004229.248    24004241.489
       213.000         157.000
  23347300.561    -6934324.90349  -5036348.92645  23347299.851    23347311.489
       215.000         160.000
  21118838.311   -26658970.74249 -20748979.61147  21118837.973    21118845.500
       242.000         208.000
  22718365.490   -12218468.55649  -9491269.80946  22718365.493    22718374.096
       229.000         181.000
  20413914.835   -28070756.18749 -21538007.37047  20413915.161    20413921.439
       243.000         211.000
 03  1 14  0 34  0.0000000  0  7G 6G10G17G23G 5G24G30
  22121148.241   -18407234.89849 -13814843.31447  22121148.008    22121155.710
       232.000         190.000
  20818566.237   -22820758.67949 -17765424.53547  20818565.667    20818573.147
       241.000         208.000
  23989317.665    -6501435.26249  -5033034.75945  23989316.462    23989328.854
       212.000         156.000
  23327883.887    -7036359.23349  -5115855.93545  23327883.492    23327893.566
       215.000         160.000
  21131673.662   -26591520.51749 -20696420.99847  21131673.227    21131680.737
       242.000         208.000
  22733197.902   -12140523.66549  -9430533.53046  22733197.785    22733206.638
       228.000         181.000
  20412185.045   -28079846.04849 -21545090.33547  20412185.268    20412191.737
       243.000         211.000
 03  1 14  0 34 30.0000000  0  7G 6G10G17G23G 5G24G30
  22108904.902   -18471573.70649 -13864977.37147  22108904.874    22108912.535
       232.000         190.000
  20816871.470   -22829664.63549 -17772364.19547  20816870.880    20816878.426
       241.000         208.000
  23974439.204    -6579620.85849  -5093958.31645  23974437.822    23974450.261
       212.000         157.000
  23308496.147    -7138241.34849  -5195244.32045  23308496.124    23308505.754
       217.000         160.000
  21144591.635   -26523636.11449 -20643524.06547  21144591.374    21144598.655
       241.000         208.000
  22748043.089   -12062511.53349  -9369744.85746  22748043.057    22748051.516
       229.000         181.000
  20410567.491   -28088346.18049 -21551713.77647  20410568.068    20410574.094
       244.000         211.000
 03  1 14  0 35  0.0000000  0  7G 6G10G17G23G 5G24G30
  22096677.770   -18535827.32449 -13915045.04947  22096677.808    22096685.581
       232.000         191.000
  20815297.287   -22837936.91449 -17778810.08347  20815296.730    20815304.164
       241.000         208.000
  23959595.100    -6657625.98249  -5154741.25245  23959594.138    23959606.016
       213.000         157.000
  23289137.860    -7239968.75949  -5274512.14445  23289137.176    23289147.415
       215.000         162.000
  21157591.829   -26455319.60549 -20590290.42647  21157591.454    21157599.068
       242.000         208.000
  22762900.828   -11984433.91949  -9308905.15646  22762900.532    22762909.715
       228.000         181.000
  20409062.237   -28096256.22449 -21557877.40747  20409062.870    20409069.013
       243.000         211.000
 03  1 14  0 35 30.0000000  0  7G 6G10G17G23G 5G24G30
  22084466.955   -18599995.12149 -13965045.84747  22084466.842    22084474.470
       232.000         191.000
  20813843.682   -22845575.56749 -17784762.23247  20813843.126    20813850.557
       241.000         209.000
  23944785.365    -6735450.22249  -5215383.23145  23944784.750    23944796.487
       213.000         157.000
  23269809.536    -7341539.07749  -5353657.56745  23269807.757    23269820.707
       214.000         162.000
  21170673.789   -26386573.46249 -20536722.00747  21170673.378    21170681.039
       241.000         208.000
  22777770.681   -11906292.53649  -9248015.76446  22777770.568    22777779.224
       228.000         180.000
  20407669.257   -28103576.15449 -21563581.21147  20407669.584    20407675.881
       244.000         211.000
 03  1 14  0 36  0.0000000  0  7G 6G10G17G23G 5G24G30
  22072271.742   -18664081.11749 -14014982.90247  22072271.285    22072279.679
       233.000         191.000
  20812509.690   -22852585.35149 -17790224.34747  20812508.600    20812516.385
       241.000         209.000
  23930009.203    -6813098.44549  -5275888.05145  23930008.790    23930019.629
       214.000         158.000
  23250510.608    -7442954.60249  -5432682.36345  23250508.858    23250520.834
       216.000         162.000
  21183836.204   -26317404.54749 -20482824.14947  21183835.346    21183843.248
       242.000         207.000
  22792651.336   -11828094.20049  -9187081.98046  22792650.976    22792660.123
       229.000         180.000
  20406387.755   -28110310.36149 -21568828.60147  20406387.702    20406394.563
       244.000         211.000
 03  1 14  0 36 30.0000000  0  7G 6G10G17G23G 5G24G30
  22060094.948   -18728070.15749 -14064844.41947  22060095.244    22060102.530
       233.000         192.000
  20811298.198   -22858951.62449 -17795185.04247  20811297.469    20811305.058
       241.000         209.000
  23915269.303    -6890556.31849  -5336244.53245  23915268.294    23915280.141
       213.000         158.000
  23231244.329    -7544198.39549  -5511573.33746  23231243.055    23231254.681
       214.000         163.000
  21197081.366   -26247800.60949 -20428587.32547  21197080.956    21197088.544
       241.000         207.000
  22807545.181   -11749826.56649  -9126094.21646  22807545.385    22807553.534
       228.000         180.000
  20405220.539   -28116444.05249 -21573608.07247  20405220.880    20405227.053
       243.000         211.000
 03  1 14  0 37  0.0000000  0  7G 6G10G17G23G 5G24G30
  22047934.780   -18791972.11349 -14114638.07847  22047934.553    22047942.366
       233.000         192.000
  20810207.134   -22864685.09949 -17799652.63847  20810206.434    20810213.925
       241.000         209.000
  23900563.547    -6967834.15849  -5396460.73345  23900562.455    23900573.672
       215.000         157.000
  23212009.163    -7645278.80349  -5590336.98746  23212007.352    23212018.234
       215.000         163.000
  21210406.862   -26177774.63149 -20374021.63747  21210406.371    21210413.832
       241.000         207.000
  22822449.937   -11671501.66949  -9065061.83646  22822449.507    22822458.652
       227.000         179.000
  20404165.537   -28121987.91249 -21577927.92947  20404165.850    20404172.260
       243.000         211.000
 03  1 14  0 37 30.0000000  0  7G 6G10G17G23G 5G24G30
  22035791.786   -18855783.93449 -14164361.49847  22035791.549    22035799.303
       233.000         192.000
  20809236.919   -22869783.54949 -17803625.41547  20809236.515    20809243.611
       242.000         209.000
  23885892.767    -7044928.85649  -5456534.25445  23885892.231    23885903.604
       211.000         158.000
  23192805.984    -7746190.91549  -5668969.50646  23192805.855    23192815.831
       217.000         164.000
  21223812.649   -26107326.73249 -20319127.18547  21223812.430    21223819.929
       241.000         207.000
  22837365.722   -11593118.83149  -9003984.29746  22837365.201    22837374.208
       227.000         179.000
  20403223.261   -28126939.30649 -21581786.12647  20403223.722    20403229.982
       244.000         211.000
 03  1 14  0 38  0.0000000  0  7G 6G10G17G23G 5G24G30
  22023666.060   -18919504.56149 -14214013.85147  22023665.783    22023673.151
       232.000         192.000
  20808387.564   -22874246.79349 -17807103.21347  20808386.904    20808394.306
       242.000         209.000
  23871256.596    -7121841.01549  -5516465.50545  23871255.464    23871266.929
       211.000         158.000
  23173635.379    -7846931.90049  -5747468.67946  23173634.517    23173645.301
       218.000         164.000
  21237298.372   -26036458.83249 -20263905.44547  21237298.054    21237305.595
       241.000         206.000
  22852292.203   -11514679.59649  -8942862.80746  22852291.778    22852300.559
       227.000         178.000
  20402393.846   -28131297.75849 -21585182.28547  20402394.196    20402400.502
       243.000         211.000
 03  1 14  0 38 30.0000000  0  7G 6G10G17G23G 5G24G30
  22011557.844   -18983133.21949 -14263594.53547  22011557.316    22011565.798
       233.000         192.000
  20807659.050   -22878075.01849 -17810086.19847  20807658.558    20807665.747
       241.000         209.000
  23856655.446    -7198569.29449  -5576253.49045  23856654.342    23856665.181
       212.000         158.000
  23154497.851    -7947499.29249  -5825832.59546  23154496.875    23154508.179
       218.000         165.000
  21250863.544   -25965173.28549 -20208358.27747  21250862.914    21250870.725
       241.000         206.000
  22867229.127   -11436185.64749  -8881698.68746  22867228.997    22867237.502
       226.000         177.000
  20401677.298   -28135063.20849 -21588116.37247  20401677.543    20401683.925
       243.000         212.000
 03  1 14  0 39  0.0000000  0  7G 6G10G17G23G 5G24G30
  21999467.401   -19046668.47049 -14313102.44547  21999466.956    21999475.351
       233.000         193.000
  20807051.512   -22881267.52349 -17812573.81947  20807051.058    20807058.245
       242.000         209.000
  23842089.358    -7275113.49249  -5635898.06345  23842087.276    23842099.055
       213.000         157.000
  23135393.928    -8047889.97849  -5904058.83346  23135392.721    23135403.694
       219.000         166.000
  21264507.916   -25893471.61649 -20152486.85647  21264507.578    21264515.266
       240.000         206.000
  22882176.216   -11357637.99049  -8820492.72446  22882176.139    22882185.162
       226.000         177.000
  20401073.725   -28138234.78149 -21590587.69047  20401074.030    20401080.575
       244.000         212.000
 03  1 14  0 39 30.0000000  0  7G 6G10G17G23G 5G24G30
  21987395.034   -19110108.91049 -14362536.47347  21987394.494    21987402.338
       233.000         193.000
  20806564.979   -22883824.04949 -17814565.86947  20806564.195    20806571.711
       241.000         209.000
  23827558.313    -7351473.07649  -5695398.75145  23827556.936    23827569.321
       214.000         158.000
  23116324.204    -8148100.99949  -5982145.07046  23116322.953    23116334.053
       218.000         167.000
  21278231.163   -25821355.54749 -20096292.52547  21278230.907    21278238.501
       240.000         206.000
  22897133.302   -11279037.83549  -8759245.85646  22897133.115    22897142.040
       226.000         176.000
  20400583.308   -28140811.86249 -21592595.77147  20400583.750    20400590.075
       244.000         212.000
 03  1 14  0 40  0.0000000  0  7G 6G10G17G23G 5G24G30
  21975340.795   -19173453.96349 -14411896.17247  21975340.738    21975348.579
       233.000         193.000
  20806199.353   -22885745.20749 -17816062.82347  20806198.449    20806206.003
       241.000         209.000
  23813062.589    -7427647.91749  -5754755.50645  23813062.060    23813072.888
       213.000         158.000
  23097289.133    -8248130.03249  -6060089.49646  23097288.560    23097298.945
       219.000         167.000
  21292032.723   -25748827.80049 -20039777.40847  21292032.333    21292040.185
       240.000         206.000
  22912100.123   -11200386.84149  -8697959.35946  22912099.833    22912108.620
       225.000         176.000
  20400205.978   -28142794.69049 -21594140.80647  20400206.401    20400212.612
       244.000         212.000
 03  1 14  0 40 30.0000000  0  7G 6G10G17G23G 5G24G30
  21963304.954   -19236702.47649 -14461180.65747  21963304.581    21963312.502
       234.000         193.000
  20805954.691   -22887030.80149 -17817064.54147  20805953.908    20805961.426
       241.000         209.000
  23798602.083    -7503637.28649  -5813967.74745  23798601.211    23798612.101
       213.000         157.000
  23078289.170    -8347974.28249  -6137889.93346  23078289.003    23078299.267
       221.000         168.000
  21305912.263   -25675890.54549 -19982943.19247  21305911.824    21305919.677
       240.000         205.000
  22927076.221   -11121686.76749  -8636634.63346  22927075.966    22927084.728
       226.000         175.000
  20399941.800   -28144182.86549 -21595222.46847  20399942.194    20399948.346
       244.000         212.000
 03  1 14  0 41  0.0000000  0  7G 6G10G17G23G 5G24G30
  21951287.541   -19299854.07749 -14510389.62047  21951287.340    21951295.048
       235.000         194.000
  20805830.773   -22887681.71049 -17817571.69447  20805829.944    20805837.516
       244.000         209.000
  23784176.786    -7579441.83449  -5873035.98245  23784175.858    23784187.439
       216.000         159.000
  23059324.745    -8447631.92049  -6215544.97646  23059323.562    23059334.824
       222.000         168.000
  21319869.122   -25602546.76549 -19925792.20247  21319868.632    21319876.342
       242.000         205.000
  22942061.182   -11042939.85149  -8575273.39746  22942060.342    22942069.478
       228.000         175.000
  20399790.676   -28144976.95149 -21595841.20347  20399790.949    20399797.332
       246.000         212.000
 03  1 14  0 41 30.0000000  0  7G 6G10G17G23G 5G24G30
  21939289.437   -19362904.39049 -14559519.66047  21939289.316    21939296.681
       234.000         194.000
  20805828.272   -22887694.47049 -17817581.59147  20805827.605    20805834.959
       242.000         209.000
  23769787.259    -7655057.86149  -5931957.29845  23769786.689    23769797.895
       215.000         158.000
  23040396.955    -8547096.91349  -6293049.89846  23040395.716    23040406.474
       220.000         169.000
  21333903.585   -25528795.15349 -19868323.42347  21333903.296    21333910.810
       240.000         205.000
  22957055.530   -10964144.03249  -8513874.05846  22957055.271    22957064.356
       226.000         175.000
  20399753.282   -28145173.24949 -21595994.13347  20399753.564    20399759.907
       244.000         212.000
 03  1 14  0 42  0.0000000  0  7G 6G10G17G23G 5G24G30
  21927309.851   -19425857.16749 -14608573.69747  21927309.549    21927317.320
       235.000         194.000
  20805946.272   -22887074.17049 -17817098.19547  20805945.304    20805952.755
       242.000         208.000
  23755432.835    -7730489.85949  -5990735.25545  23755431.757    23755442.607
       214.000         158.000
  23021505.456    -8646371.21549  -6370406.24546  23021505.403    23021515.570
       220.000         169.000
  21348014.364   -25454642.62149 -19810542.22747  21348013.957    21348021.634
       241.000         205.000
  22972058.008   -10885305.51049  -8452441.44746  22972057.605    22972066.234
       226.000         175.000
  20399828.764   -28144776.49349 -21595684.93547  20399829.052    20399835.337
       245.000         212.000
 03  1 14  0 42 30.0000000  0  7G 6G10G17G23G 5G24G30
  21915349.979   -19488706.52149 -14657547.15747  21915349.989    21915357.946
       234.000         195.000
  20806185.663   -22885815.99849 -17816117.76147  20806184.808    20806192.403
       241.000         208.000
  23741114.447    -7805732.46449  -6049365.60845  23741113.279    23741125.285
       213.000         159.000
  23002651.630    -8745447.43649  -6447608.23946  23002651.366    23002661.337
       221.000         169.000
  21362201.936   -25380086.50449 -19752446.56547  21362201.666    21362209.174
       241.000         205.000
  22987069.233   -10806420.67449  -8390972.75646  22987069.263    22987078.233
       226.000         175.000
  20400018.041   -28143781.67049 -21594909.72547  20400018.251    20400024.738
       244.000         212.000
 03  1 14  0 43  0.0000000  0  7G 6G10G17G23G 5G24G30
  21903409.304   -19551454.72149 -14706441.78847  21903409.075    21903416.702
       236.000         195.000
  20806545.734   -22883923.58649 -17814643.11247  20806545.039    20806552.466
       243.000         208.000
  23726831.534    -7880788.84449  -6107850.88145  23726831.137    23726841.668
       216.000         158.000
  22983835.429    -8844326.31149  -6524656.45746  22983834.023    22983845.448
       221.000         169.000
  21376465.215   -25305132.48549 -19694040.84347  21376464.801    21376472.362
       242.000         205.000
  23002088.406   -10727494.48249  -8329471.83946  23002088.386    23002097.783
       228.000         175.000
  20400320.532   -28142191.97149 -21593670.96947  20400320.952    20400327.216
       246.000         212.000
 03  1 14  0 43 30.0000000  0  7G 6G10G17G23G 5G24G30
  21891488.274   -19614099.87849 -14755256.13047  21891488.338    21891495.831
       235.000         195.000
  20807026.620   -22881396.36849 -17812673.81547  20807025.786    20807033.160
       242.000         208.000
  23712584.318    -7955657.75149  -6166190.06545  23712583.530    23712593.535
       214.000         159.000
  22965057.469    -8943004.29149  -6601548.12946  22965056.462    22965066.725
       221.000         170.000
  21390803.948   -25229781.93549 -19635326.13947  21390803.605    21390811.121
       241.000         204.000
  23017115.392   -10648527.54149  -8267939.15246  23017114.493    23017124.211
       226.000         174.000
  20400736.376   -28140006.53449 -21591968.00347  20400736.674    20400742.813
       245.000         212.000
 03  1 14  0 44  0.0000000  0  7G 6G10G17G23G 5G24G30
  21879587.095   -19676640.70649 -14803989.18047  21879587.117    21879594.712
       235.000         195.000
  20807628.264   -22878234.40849 -17810209.91647  20807627.589    20807634.716
       241.000         208.000
  23698372.780    -8030338.98949  -6224383.01045  23698371.539    23698383.090
       214.000         160.000
  22946318.243    -9041478.62149  -6678281.12446  22946316.975    22946327.214
       220.000         170.000
  21405217.731   -25154037.04849 -19576304.15847  21405217.806    21405224.966
       239.000         204.000
  23032149.813   -10569521.17149  -8206375.76346  23032149.894    23032158.783
       225.000         174.000
  20401265.641   -28137225.17449 -21589800.68647  20401266.017    20401272.197
       244.000         212.000
 03  1 14  0 44 30.0000000  0  7G 6G10G17G23G 5G24G30
  21867705.983   -19739076.05849 -14852640.04047  21867705.922    21867713.530
       234.000         195.000
  20808350.680   -22874437.84549 -17807251.51647  20808349.999    20808357.446
       241.000         208.000
  23684197.024    -8104831.79749  -6282429.13445  23684196.362    23684207.473
       213.000         159.000
  22927618.324    -9139746.51249  -6754853.26246  22927616.761    22927627.301
       219.000         170.000
  21419706.182   -25077899.90549 -19516976.52347  21419705.846    21419713.618
       240.000         204.000
  23047191.469   -10490476.85649  -8144782.79546  23047191.261    23047199.629
       226.000         174.000
  20401908.312   -28133847.70149 -21587168.86147  20401908.772    20401914.883
       244.000         212.000
 03  1 14  0 45  0.0000000  0  7G 6G10G17G23G 5G24G30
  21855846.008   -19801400.16149 -14901204.21847  21855845.953    21855853.790
       234.000         196.000
  20809194.640   -22870002.49149 -17803795.36147  20809194.185    20809201.516
       241.000         208.000
  23670058.117    -8179131.34649  -6340324.66545  23670057.460    23670067.762
       215.000         160.000
  22908959.044    -9237800.63349  -6831258.81046  22908958.458    22908968.308
       221.000         170.000
  21434269.725   -25001368.02849 -19457341.30447  21434269.494    21434277.039
       239.000         204.000
  23062240.966   -10411391.11649  -8083157.54846  23062241.412    23062249.606
       226.000         174.000
  20402665.345   -28129869.37149 -21584068.84047  20402665.868    20402672.164
       244.000         212.000
 03  1 14  0 45 30.0000000  0  7G 6G10G17G23G 5G24G30
  21844005.543   -19863621.93749 -14949688.65447  21844005.410    21844013.086
       235.000         196.000
  20810158.297   -22864938.30649 -17799849.20447  20810157.538    20810164.806
       241.000         208.000
  23655954.123    -8253247.41149  -6398077.21845  23655953.364    23655964.087
       216.000         161.000
  22890339.093    -9335648.43749  -6907503.61046  22890338.648    22890348.097
       220.000         170.000
  21448906.002   -24924453.81949 -19397408.16647  21448905.841    21448913.077
       239.000         203.000
  23077296.196   -10332275.46149  -8021508.99246  23077296.270    23077304.807
       226.000         174.000
  20403534.807   -28125300.12449 -21580508.35947  20403535.207    20403541.432
       244.000         212.000
 03  1 14  0 46  0.0000000  0  7G 6G10G17G23G 5G24G30
  21832186.050   -19925733.69349 -14998087.36947  21832186.002    21832193.449
       235.000         196.000
  20811242.739   -22859239.23749 -17795408.33947  20811242.007    20811249.504
       241.000         208.000
  23641886.319    -8327173.12949  -6455681.45145  23641886.083    23641896.749
       218.000         161.000
  22871760.051    -9433280.61549  -6983580.39746  22871759.340    22871768.642
       221.000         171.000
  21463615.880   -24847152.92949 -19337173.71647  21463615.398    21463623.231
       239.000         203.000
  23092358.089   -10253124.51249  -7959832.92546  23092358.203    23092367.070
       225.000         174.000
  20404517.963   -28120133.58549 -21576482.45947  20404518.406    20404524.600
       245.000         212.000
 03  1 14  0 46 30.0000000  0  7G 6G10G17G23G 5G24G30
  21820387.546   -19987734.82549 -15046399.87447  21820387.460    21820395.067
       235.000         196.000
  20812447.890   -22852906.12449 -17790473.40847  20812447.203    20812454.663
       241.000         208.000
  23627854.813    -8400908.68949  -6513137.51345  23627853.847    23627864.558
       217.000         162.000
  22853222.510    -9530694.99449  -7059487.46246  22853220.804    22853231.896
       222.000         171.000
  21478398.832   -24769468.02849 -19276640.03747  21478398.284    21478405.864
       239.000         203.000
  23107426.380   -10173939.85549  -7898130.59646  23107426.551    23107434.882
       225.000         173.000
  20405614.644   -28114370.38049 -21571991.62547  20405615.017    20405621.269
       244.000         212.000
 03  1 14  0 47  0.0000000  0  7G 6G10G17G23G 5G24G30
  21808610.375   -20049624.24049 -15094625.33547  21808610.323    21808618.095
       235.000         197.000
  20813773.544   -22845939.50149 -17785044.83747  20813772.885    20813780.284
       241.000         208.000
  23613859.416    -8474454.12749  -6570445.43345  23613858.426    23613869.283
       218.000         162.000
  22834726.881    -9627889.09749  -7135222.90246  22834725.259    22834735.440
       220.000         171.000
  21493254.360   -24691401.60049 -19215809.07347  21493254.050    21493261.552
       239.000         202.000
  23122500.783   -10094723.43549  -7836403.50946  23122499.846    23122509.306
       224.000         173.000
  20406824.894   -28108010.46249 -21567035.82147  20406825.159    20406831.496
       244.000         212.000
 03  1 14  0 47 30.0000000  0  7G 6G10G17G23G 5G24G30
  21796854.697   -20111400.47249 -15142762.59947  21796854.741    21796862.532
       236.000         197.000
  20815219.821   -22838339.15049 -17779122.45047  20815219.264    20815226.518
       241.000         208.000
  23599900.300    -8547808.70649  -6627604.62146  23599899.460    23599909.668
       218.000         163.000
  22816273.796    -9724859.79549  -7210784.25846  22816272.163    22816282.229
       221.000         172.000
  21508182.164   -24612955.48649 -19154682.24547  21508181.826    21508189.475
       239.000         202.000
  23137581.072   -10015475.75249  -7774652.07446  23137580.576    23137589.703
       225.000         172.000
  20408148.714   -28101053.65149 -21561614.90747  20408149.222    20408155.341
       245.000         212.000
 03  1 14  0 48  0.0000000  0  7G 6G10G17G23G 5G24G30
  21785120.731   -20173062.90649 -15190811.19447  21785120.685    21785128.562
       239.000         198.000
  20816786.394   -22830106.57849 -17772707.42347  20816785.829    20816793.397
       243.000         208.000
  23585977.484    -8620972.89449  -6684615.46446  23585976.588    23585987.590
       220.000         163.000
  22797863.517    -9821605.40349  -7286170.23146  22797862.808    22797872.080
       222.000         172.000
  21523181.632   -24534132.83849 -19093262.01247  21523181.402    21523188.886
       240.000         202.000
  23152666.916    -9936199.05749  -7712878.02646  23152666.313    23152675.843
       227.000         172.000
  20409585.953   -28093500.73149 -21555729.49147  20409586.667    20409592.659
       245.000         212.000
 03  1 14  0 48 30.0000000  0  7G 6G10G17G23G 5G24G30
  21773408.780   -20234609.50549 -15238769.52647  21773408.813    21773416.273
       237.000         198.000
  20818473.361   -22821241.30549 -17765799.37747  20818472.701    20818480.019
       241.000         208.000
  23572091.190    -8693945.19349  -6741476.78046  23572090.411    23572100.112
       219.000         163.000
  22779496.807    -9918122.23549  -7361377.92846  22779495.933    22779504.589
       221.000         172.000
  21538252.520   -24454934.94949 -19031549.38747  21538252.238    21538259.683
       239.000         202.000
  23167758.209    -9856893.60749  -7651081.57246  23167758.974    23167767.149
       224.000         172.000
  20411136.767   -28085350.90349 -21549378.95347  20411137.344    20411143.381
       244.000         212.000
 03  1 14  0 49  0.0000000  0  7G 6G10G17G23G 5G24G30
  21761718.782   -20296040.62849 -15286637.88047  21761718.736    21761725.955
       237.000         198.000
  20820280.377   -22811745.25149 -17758399.82047  20820279.850    20820287.070
       242.000         208.000
  23558241.091    -8766727.14949  -6798189.78946  23558240.150    23558249.931
       218.000         163.000
  22761173.851   -10014409.08249  -7436406.44546  22761172.888    22761182.455
       221.000         172.000
  21553394.032   -24375365.83449 -18969547.49747  21553393.616    21553401.025
       239.000         201.000
  23182854.465    -9777562.40749  -7589265.05646  23182854.634    23182862.309
       225.000         171.000
  20412800.842   -28076605.98249 -21542564.71047  20412801.462    20412807.577
       244.000         212.000
 03  1 14  0 49 30.0000000  0  7G 6G10G17G23G 5G24G30
  21750051.239   -20357353.78649 -15334414.30347  21750051.023    21750058.625
       237.000         198.000
  20822207.556   -22801617.82949 -17750508.27647  20822206.796    20822214.181
       241.000         208.000
  23544427.457    -8839317.14449  -6854753.20446  23544426.283    23544436.748
       220.000         164.000
  22742895.405   -10110462.09649  -7511252.72046  22742893.822    22742903.730
       221.000         172.000
  21568605.997   -24295426.48549 -18907257.10647  21568605.655    21568613.399
       239.000         201.000
  23197955.648    -9698205.41449  -7527428.43646  23197955.869    23197963.900
       224.000         171.000
  20414578.421   -28067264.71949 -21535285.77947  20414578.901    20414584.941
       244.000         212.000
 03  1 14  0 50  0.0000000  0  7G 6G10G17G23G 5G24G30
  21738406.124   -20418548.90549 -15382098.75647  21738406.095    21738413.468
       238.000         198.000
  20824254.595   -22790860.50849 -17742125.90747  20824253.689    20824261.386
       242.000         208.000
  23530650.301    -8911715.91049  -6911167.62046  23530649.350    23530659.665
       221.000         164.000
  22724661.729   -10206279.82249  -7585915.68946  22724660.625    22724670.086
       223.000         173.000
  21583887.689   -24215120.48749 -18844681.02447  21583887.396    21583894.858
       239.000         200.000
  23213061.212    -9618825.05849  -7465573.61746  23213060.942    23213069.544
       224.000         170.000
  20416469.196   -28057328.62349 -21527543.34747  20416469.602    20416475.666
       245.000         212.000
 03  1 14  0 50 30.0000000  0  7G 6G10G17G23G 5G24G30
  21726784.069   -20479623.21249 -15429689.07247  21726784.100    21726791.157
       237.000         199.000
  20826421.642   -22779472.46749 -17733252.06947  20826420.859    20826428.221
       241.000         209.000
  23516909.796    -8983921.46849  -6967431.48746  23516909.562    23516919.168
       220.000         164.000
  22706473.650   -10301857.95949  -7660391.95046  22706472.786    22706482.317
       222.000         173.000
  21599239.069   -24134448.54649 -18781819.79047  21599238.928    21599246.373
       238.000         200.000
  23228171.317    -9539421.00449  -7403700.33146  23228170.752    23228180.160
       223.000         170.000
  20418473.410   -28046796.28349 -21519336.31147  20418473.715    20418479.831
       244.000         212.000
 03  1 14  0 51  0.0000000  0  7G 6G10G17G23G 5G24G30
  21715184.972   -20540576.62949 -15477185.18347  21715184.860    21715192.038
       237.000         199.000
  20828708.412   -22767455.24549 -17723887.96347  20828707.826    20828714.925
       241.000         209.000
  23503205.923    -9055935.07249  -7023545.79946  23503205.719    23503215.153
       218.000         164.000
  22688331.416   -10397195.01649  -7734680.36246  22688330.905    22688340.209
       223.000         173.000
  21614659.420   -24053414.10349 -18718676.08847  21614659.323    21614666.701
       238.000         200.000
  23243285.533    -9459995.26349  -7341810.14146  23243285.268    23243294.090
       224.000         169.000
  20420590.871   -28035668.87549 -21510665.58547  20420591.359    20420597.376
       244.000         212.000
 03  1 14  0 51 30.0000000  0  7G 6G10G17G23G 5G24G30
  21703608.727   -20601409.82249 -15524587.61447  21703608.854    21703616.002
       237.000         199.000
  20831114.425   -22754811.32949 -17714035.51947  20831113.720    20831121.057
       241.000         208.000
  23489538.291    -9127758.17449  -7079511.65146  23489536.862    23489548.355
       220.000         164.000
  22670235.273   -10492290.28749  -7808780.37546  22670234.953    22670244.173
       224.000         174.000
  21630147.974   -23972021.17549 -18655253.04647  21630147.590    21630155.242
       238.000         199.000
  23258403.211    -9380551.27049  -7279905.74946  23258403.412    23258412.256
       223.000         169.000
  20422821.170   -28023948.67149 -21501532.94247  20422821.605    20422827.769
       244.000         212.000
 03  1 14  0 52  0.0000000  0  7G 6G10G17G23G 5G24G30
  21692056.679   -20662115.94749 -15571891.03247  21692056.652    21692063.961
       237.000         198.000
  20833640.611   -22741535.93549 -17703691.01847  20833639.951    20833647.104
       241.000         208.000
  23475907.898    -9199385.49049  -7135324.94146  23475907.457    23475916.970
       220.000         164.000
  22652186.643   -10587135.59949  -7882685.61746  22652185.648    22652195.133
       224.000         174.000
  21645705.346   -23890266.79849 -18591548.35847  21645705.050    21645712.635
       237.000         199.000
  23273525.119    -9301084.91249  -7217983.91846  23273525.903    23273534.044
       223.000         169.000
  20425165.244   -28011630.39449 -21491934.26947  20425165.712    20425171.643
       244.000         212.000
 03  1 14  0 52 30.0000000  0  7G 6G10G17G23G 5G24G30
  21680528.354   -20722697.54849 -15619097.41947  21680527.953    21680535.465
       237.000         199.000
  20836286.088   -22727633.73449 -17692858.09447  20836285.170    20836292.895
       241.000         208.000
  23462314.209    -9270820.05349  -7190988.06046  23462313.638    23462322.845
       221.000         164.000
  22634185.371   -10681732.11349  -7956396.99146  22634184.520    22634193.082
       225.000         175.000
  21661330.310   -23808157.12549 -18527566.81247  21661329.783    21661337.618
       238.000         199.000
  23288650.381    -9221600.98649  -7156048.38046  23288649.773    23288659.290
       222.000         169.000
  20427622.301   -27998718.50549 -21481873.03747  20427622.601    20427628.853
       244.000         212.000
 03  1 14  0 53  0.0000000  0  7G 6G10G17G23G 5G24G30
  21669024.374   -20783151.11649 -15666204.04747  21669024.077    21669031.592
       238.000         199.000
  20839051.135   -22713103.08749 -17681535.48047  20839050.306    20839057.833
       242.000         208.000
  23448757.564    -9342059.89249  -7246499.45346  23448756.724    23448766.794
       220.000         164.000
  22616232.370   -10776075.00549  -8029910.73246  22616232.288    22616240.292
       224.000         175.000
  21677022.866   -23725692.29849 -18463308.53347  21677022.240    21677029.898
       238.000         198.000
  23303779.257    -9142098.27149  -7094098.21646  23303778.350    23303788.106
       223.000         168.000
  20430192.755   -27985210.64649 -21471347.42048  20430193.112    20430199.323
       245.000         213.000
 03  1 14  0 53 30.0000000  0  7G 6G10G17G23G 5G24G30
  21657544.207   -20843479.61249 -15713213.21247  21657544.124    21657551.253
       237.000         199.000
  20841934.830   -22697949.02249 -17669727.08647  20841934.219    20841941.455
       241.000         208.000
  23435237.309    -9413108.50649  -7301861.83046  23435235.754    23435247.039
       220.000         165.000
  22598327.300   -10870165.81249  -8103228.05346  22598326.584    22598335.675
       224.000         176.000
  21692781.728   -23642879.05749 -18398778.76047  21692781.430    21692788.880
       237.000         198.000
  23318910.609    -9062582.52349  -7032137.90246  23318910.224    23318920.008
       222.000         168.000
  20432875.666   -27971111.72649 -21460361.23748  20432876.104    20432882.192
       244.000         213.000
 03  1 14  0 54  0.0000000  0  7G 6G10G17G23G 5G24G30
  21646088.510   -20903679.23749 -15760121.95347  21646088.635    21646095.896
       237.000         199.000
  20844937.477   -22682169.69549 -17657431.47247  20844936.791    20844944.135
       241.000         208.000
  23421754.035    -9483963.03349  -7357072.98346  23421753.727    23421762.680
       220.000         165.000
  22580471.226   -10963999.39749  -8176344.93946  22580471.245    22580479.467
       224.000         176.000
  21708606.903   -23559717.21349 -18333977.34547  21708606.724    21708614.308
       237.000         198.000
  23334044.759    -8983052.19349  -6970166.21746  23334044.587    23334053.604
       222.000         167.000
  20435671.478   -27956419.58649 -21448912.80248  20435671.849    20435678.106
       244.000         213.000
 03  1 14  0 54 30.0000000  0  7G 6G10G17G23G 5G24G30
  21634657.677   -20963748.51349 -15806929.12647  21634657.608    21634664.552
       237.000         199.000
  20848059.070   -22665765.54449 -17644648.98447  20848058.619    20848065.645
       241.000         208.000
  23408307.670    -9554623.40349  -7412132.85946  23408307.316    23408316.824
       220.000         165.000
  22562664.567   -11057573.21449  -8249259.41346  22562663.363    22562673.021
       224.000         176.000
  21724497.986   -23476208.99149 -18268906.02547  21724497.733    21724505.320
       237.000         198.000
  23349181.537    -8903508.18749  -6908183.89046  23349181.768    23349189.675
       221.000         167.000
  20438580.145   -27941134.37449 -21437002.22848  20438580.585    20438586.605
       244.000         213.000
 03  1 14  0 55  0.0000000  0  7G 6G10G17G23G 5G24G30
  21623251.820   -21023686.25749 -15853633.80947  21623251.704    21623258.919
       237.000         200.000
  20851299.308   -22648737.73749 -17631380.52647  20851298.536    20851305.948
       242.000         208.000
  23394898.242    -9625089.86649  -7467041.62246  23394897.479    23394907.770
       221.000         166.000
  22544907.793   -11150884.79349  -8321969.54446  22544907.255    22544916.166
       224.000         177.000
  21740454.514   -23392357.08349 -18203566.90247  21740454.067    21740461.833
       238.000         197.000
  23364320.417    -8823952.20949  -6846192.21346  23364320.478    23364328.678
       221.000         166.000
  20441601.543   -27925256.82249 -21424630.09348  20441601.744    20441608.083
       245.000         213.000
 03  1 14  0 55 30.0000000  0  7G 6G10G17G23G 5G24G30
  21611871.566   -21083489.68349 -15900233.83647  21611871.553    21611878.745
       238.000         200.000
  20854658.377   -22631085.63449 -17617625.61347  20854657.561    20854664.988
       243.000         209.000
  23381526.021    -9695360.50749  -7521797.81846  23381525.177    23381534.332
       221.000         165.000
  22527201.744   -11243929.89949  -8394472.05346  22527201.273    22527210.011
       226.000         177.000
  21756476.278   -23308162.26249 -18137960.57647  21756476.085    21756483.446
       239.000         197.000
  23379461.872    -8744383.40649  -6784190.55746  23379461.765    23379470.920
       223.000         166.000
  20444735.818   -27908785.93249 -21411795.62447  20444736.164    20444742.471
       246.000         212.000
 03  1 14  0 56  0.0000000  0  7G 6G10G17G23G 5G24G30
  21600516.748   -21143159.51849 -15946729.76447  21600516.643    21600523.904
       237.000         200.000
  20858135.687   -22612812.15549 -17603386.51247  20858135.183    20858142.401
       241.000         209.000
  23368190.735    -9765437.25349  -7576402.93146  23368190.528    23368199.209
       221.000         166.000
  22509546.447   -11336708.12049  -8466766.59246  22509545.986    22509554.596
       225.000         177.000
  21772562.401   -23223629.20649 -18072090.69147  21772561.989    21772569.913
       236.000         197.000
  23394605.111    -8664805.16449  -6722181.53546  23394605.572    23394613.328
       222.000         166.000
  20447982.521   -27891724.29349 -21398500.83047  20447982.976    20447988.989
       244.000         212.000
 03  1 14  0 56 30.0000000  0  7G 6G10G17G23G 5G24G30
  21589187.708   -21202693.89949 -15993120.13747  21589187.756    21589194.906
       237.000         200.000
  20861731.168   -22593917.59149 -17588663.44647  20861730.714    20861738.013
       241.000         209.000
  23354892.545    -9835319.38449  -7630856.38246  23354891.615    23354901.686
       220.000         166.000
  22491942.582   -11429216.37849  -8538850.78146  22491941.933    22491950.443
       223.000         177.000
  21788712.519   -23138759.84249 -18005958.74447  21788712.198    21788720.098
       236.000         196.000
  23409750.058    -8585218.07149  -6660165.62246  23409750.397    23409759.492
       224.000         166.000
  20451341.647   -27874071.79049 -21384745.61847  20451342.031    20451348.096
       244.000         212.000
 03  1 14  0 57  0.0000000  0  7G 6G10G17G23G 5G24G30
  21577884.663   -21262091.70749 -16039404.09047  21577884.411    21577891.967
       238.000         201.000
  20865444.671   -22574402.88249 -17573457.14647  20865443.764    20865451.264
       242.000         209.000
  23341631.379    -9905006.75549  -7685158.07646  23341630.356    23341639.869
       222.000         166.000
  22474390.565   -11521452.16149  -8610722.65146  22474389.834    22474398.303
       225.000         178.000
  21804926.111   -23053556.75149 -17939566.74947  21804925.544    21804933.582
       236.000         196.000
  23424896.450    -8505623.47449  -6598143.86846  23424895.852    23424904.804
       220.000         166.000
  20454813.111   -27855829.07849 -21370530.50347  20454813.207    20454819.783
       244.000         212.000
 03  1 14  0 57 30.0000000  0  7G 6G10G17G23G 5G24G30
  21566608.042   -21321350.55149 -16085579.76247  21566608.048    21566615.542
       238.000         201.000
  20869276.203   -22554267.96249 -17557767.57647  20869275.591    20869282.747
       241.000         208.000
  23328407.527    -9974498.05449  -7739307.02246  23328407.080    23328415.607
       219.000         166.000
  22456891.055   -11613411.77349  -8682379.32946  22456890.198    22456899.468
       224.000         178.000
  21821203.021   -22968021.19449 -17872915.69247  21821202.926    21821210.596
       236.000         196.000
  23440044.277    -8426021.17749  -6536116.11846  23440044.305    23440052.732
       221.000         166.000
  20458396.994   -27836995.57449 -21355855.03447  20458397.346    20458403.509
       244.000         212.000
 03  1 14  0 58  0.0000000  0  7G 6G10G17G23G 5G24G30
  21555357.773   -21380471.05749 -16131647.63347  21555357.407    21555365.041
       239.000         201.000
  20873225.132   -22533516.06949 -17541597.24047  20873224.487    20873231.738
       242.000         208.000
  23315220.623   -10043794.81449  -7793304.34746  23315219.150    23315229.711
       222.000         167.000
  22439444.208   -11705094.63949  -8753820.36746  22439442.997    22439451.830
       227.000         179.000
  21837542.337   -22882157.45349 -17806008.90947  21837541.974    21837549.807
       237.000         195.000
  23455192.959    -8346414.27749  -6474084.76746  23455192.668    23455201.578
       221.000         165.000
  20462092.769   -27817574.01849 -21340721.34147  20462093.218    20462099.330
       245.000         212.000
 03  1 14  0 58 30.0000000  0  7G 6G10G17G23G 5G24G30
  21544134.467   -21439449.55649 -16177604.85347  21544134.376    21544141.671
       238.000         202.000
  20877291.803   -22512145.55949 -17524944.86947  20877291.022    20877298.393
       241.000         208.000
  23302071.193   -10112894.86849  -7847148.41046  23302070.372    23302079.916
       220.000         167.000
  22422050.991   -11796495.85149  -8825041.94146  22422049.998    22422059.000
       224.000         179.000
  21853944.103   -22795965.79449 -17738846.60647  21853943.770    21853952.046
       236.000         195.000
  23470342.761    -8266801.55949  -6412048.89846  23470342.050    23470352.152
       220.000         165.000
  20465900.794   -27797562.62549 -21325128.04047  20465901.151    20465907.187
       244.000         212.000
 03  1 14  0 59  0.0000000  0  7G 6G10G17G23G 5G24G30
  21532938.159   -21498286.29549 -16223451.60747  21532937.967    21532945.275
       240.000         202.000
  20881475.661   -22490159.06749 -17507812.51347  20881474.926    20881481.959
       243.000         208.000
  23288958.864   -10181799.97949  -7900840.56846  23288958.170    23288967.561
       221.000         167.000
  22404711.538   -11887614.68649  -8896043.47146  22404710.512    22404719.912
       226.000         180.000
  21870407.406   -22709450.61649 -17671432.21147  21870406.992    21870414.638
       237.000         195.000
  23485493.027    -8187185.99649  -6350010.79146  23485493.171    23485502.064
       222.000         165.000
  20469820.615   -27776963.68749 -21309076.91047  20469821.058    20469827.170
       247.000         212.000
 03  1 14  0 59 30.0000000  0  7G 6G10G17G23G 5G24G30
  21521769.350   -21556978.60349 -16269185.82147  21521769.379    21521776.445
       238.000         202.000
  20885776.730   -22467556.72049 -17490200.26847  20885776.138    20885783.353
       242.000         208.000
  23275883.930   -10250508.88149  -7954379.84546  23275883.951    23275892.968
       219.000         168.000
  22387426.532   -11978447.22149  -8966821.92246  22387425.678    22387434.985
       225.000         180.000
  21886932.034   -22622613.09349 -17603766.63747  21886931.702    21886939.466
       235.000         195.000
  23500643.993    -8107567.30649  -6287970.24946  23500644.023    23500652.890
       221.000         165.000
  20473852.353   -27755776.74149 -21292567.59247  20473852.697    20473858.895
       244.000         212.000
 03  1 14  1  0  0.0000000  0  7G 6G10G17G23G 5G24G30
  21510627.997   -21615526.52949 -16314807.52747  21510627.832    21510635.112
       238.000         202.000
  20890194.574   -22444340.80549 -17472109.91847  20890194.060    20890201.007
       241.000         208.000
  23262846.195   -10319021.88249  -8007766.46346  23262845.197    23262855.141
       220.000         168.000
  22370196.220   -12068992.38549  -9037376.43946  22370195.706    22370204.362
       226.000         180.000
  21903517.313   -22535457.09449 -17535852.90347  21903516.971    21903524.970
       235.000         194.000
  23515795.095    -8027947.64849  -6225928.95546  23515795.114    23515803.486
       220.000         165.000
  20477995.550   -27734003.91949 -21275601.74547  20477995.918    20478002.257
       245.000         212.000
 03  1 14  1  0 30.0000000  0  7G 6G10G17G23G 5G24G30
  21499514.404   -21673928.60549 -16360315.57747  21499514.406    21499521.572
       240.000         203.000
  20894728.959   -22420512.34449 -17453542.25547  20894728.421    20894735.422
       243.000         208.000
  23249845.590   -10387339.75449  -8061001.03846  23249845.177    23249854.205
       223.000         169.000
  22353021.119   -12159247.49049  -9107704.93646  22353020.446    22353029.581
       228.000         181.000
  21920162.672   -22447985.09449 -17467692.92147  21920162.347    21920170.277
       236.000         194.000
  23530946.160    -7948328.12249  -6163887.76546  23530945.515    23530954.520
       223.000         165.000
  20482250.157   -27711645.73349 -21258179.76747  20482250.483    20482256.973
       246.000         212.000
 03  1 14  1  1  0.0000000  0  7G 6G10G17G23G 5G24G30
  21488428.797   -21732183.75149 -16405709.14647  21488428.680    21488436.001
       240.000         203.000
  20899379.652   -22396072.73649 -17434498.38047  20899379.011    20899386.052
       243.000         208.000
  23236882.252   -10455462.13749  -8114083.29146  23236881.432    23236890.690
       222.000         170.000
  22335901.672   -12249210.26149  -9177805.64946  22335901.277    22335909.486
       229.000         182.000
  21936867.680   -22360199.75349 -17399288.79147  21936867.293    21936875.513
       236.000         194.000
  23546096.975    -7868710.29349  -6101847.88446  23546097.506    23546105.503
       221.000         165.000
  20486615.962   -27688703.20449 -21240302.46447  20486616.511    20486622.652
       246.000         212.000
 03  1 14  1  1 30.0000000  0  7G 6G10G17G23G 5G24G30
  21477371.409   -21790290.60249 -16450987.15847  21477371.465    21477378.412
       240.000         203.000
  20904146.388   -22371023.19349 -17414979.22647  20904145.531    20904152.799
       243.000         208.000
  23223956.007   -10523389.22749  -8167013.36746  23223955.130    23223964.628
       221.000         170.000
  22318838.330   -12338878.29249  -9247676.68846  22318837.450    22318846.205
       228.000         182.000
  21953631.839   -22272103.66049 -17330642.50847  21953631.297    21953639.233
       236.000         193.000
  23561247.275    -7789095.15049  -6039810.10246  23561247.458    23561255.474
       221.000         164.000
  20491092.803   -27665177.13049 -21221970.44547  20491093.101    20491099.408
       246.000         212.000
 03  1 14  1  2  0.0000000  0  7G 6G10G17G23G 5G24G30
  21466342.695   -21848246.70849 -16496147.70347  21466342.610    21466349.695
       239.000         203.000
  20909029.117   -22345364.27249 -17394985.23247  20909028.371    20909035.758
       242.000         208.000
  23211067.263   -10591119.81349  -8219790.31946  23211066.603    23211076.165
       222.000         171.000
  22301831.719   -12428248.08749  -9317315.34746  22301831.124    22301839.827
       229.000         183.000
  21970454.823   -22183698.41849 -17261755.33347  21970454.301    21970462.479
       234.000         193.000
  23576397.020    -7709482.76649  -5977774.46546  23576395.761    23576405.926
       221.000         164.000
  20495680.714   -27641067.41049 -21203183.64147  20495680.975    20495687.441
       246.000         212.000
 03  1 14  1  2 30.0000000  0  7G 6G10G17G23G 5G24G30
  21455343.241   -21906049.09749 -16541188.48147  21455343.315    21455350.391
       239.000         203.000
  20914027.976   -22319094.89149 -17374515.55847  20914027.380    20914034.534
       242.000         208.000
  23198216.142   -10658652.19349  -8272412.83446  23198215.370    23198224.501
       222.000         172.000
  22284882.663   -12517315.54049  -9386718.41346  22284882.027    22284890.403
       227.000         184.000
  21987336.442   -22094984.90949 -17192627.95647  21987336.034    21987344.151
       235.000         193.000
  23591546.298    -7629872.56149  -5915740.53146  23591545.983    23591554.923
       219.000         164.000
  20500379.818   -27616373.35749 -21183941.51847  20500380.342    20500386.360
       245.000         212.000
 03  1 14  1  3  0.0000000  0  7G 6G10G17G23G 5G24G30
  21444373.098   -21963697.24249 -16586109.06047  21444372.950    21444379.844
       240.000         203.000
  20919142.540   -22292217.58549 -17353572.16947  20919141.839    20919149.111
       243.000         208.000
  23185402.644   -10725987.14449  -8324881.50446  23185402.060    23185411.378
       222.000         172.000
  22267991.406   -12606079.13249  -9455884.69446  22267990.911    22267998.837
       231.000         184.000
  22004276.058   -22005966.61949 -17123263.07647  22004275.567    22004283.756
       236.000         192.000
  23606694.794    -7550266.27649  -5853709.64746  23606695.035    23606702.655
       221.000         163.000
  20505189.804   -27591096.65249 -21164245.37047  20505190.092    20505196.359
       247.000         212.000
 03  1 14  1  3 30.0000000  0  7G 6G10G17G23G 5G24G30
  21433432.509   -22021190.28549 -16630908.79447  21433432.264    21433439.339
       238.000         204.000
  20924372.427   -22264734.12549 -17332156.45647  20924371.719    20924378.835
       241.000         208.000
  23172626.560   -10793125.17149  -8377196.72446  23172626.165    23172635.590
       220.000         172.000
  22251158.388   -12694536.95349  -9524812.73246  22251157.924    22251166.559
       229.000         185.000
  22021273.103   -21916646.65949 -17053663.13847  22021272.660    22021280.901
       234.000         192.000
  23621842.355    -7470665.50249  -5791683.06246  23621842.349    23621851.439
       218.000         163.000
  20510110.422   -27565238.60749 -21144096.23547  20510110.856    20510117.122
       245.000         212.000
 03  1 14  1  4  0.0000000  0  7G 6G10G17G23G 5G24G30
  21422521.824   -22078526.02749 -16675585.95347  21422521.497    21422528.926
       238.000         204.000
  20929717.547   -22236645.21849 -17310268.96947  20929716.779    20929723.966
       241.000         207.000
  23159888.189   -10860065.15349  -8429357.64146  23159887.204    23159897.073
       222.000         173.000
  22234384.126   -12782685.73449  -9593499.94946  22234383.397    22234392.213
       228.000         185.000
  22038327.196   -21827026.73249 -16983829.46047  22038327.164    22038334.950
       233.000         191.000
  23636988.772    -7391070.48049  -5729660.96046  23636988.913    23636997.607
       218.000         163.000
  20515141.648   -27538799.43049 -21123494.27547  20515142.213    20515148.384
       245.000         212.000
 03  1 14  1  4 30.0000000  0  7G 6G10G17G23G 5G24G30
  21411641.006   -22135704.66649 -16720140.68647  21411640.830    21411648.086
       239.000         204.000
  20935177.372   -22207953.45849 -17287911.71947  20935176.659    20935183.767
       241.000         207.000
  23147187.206   -10926808.83949  -8481365.59146  23147186.766    23147195.928
       222.000         173.000
  22217668.851   -12870524.65349  -9661945.72046  22217668.078    22217676.514
       229.000         185.000
  22055437.615   -21737110.94349 -16913765.23747  22055437.608    22055445.335
       233.000         191.000
  23652133.588    -7311483.54849  -5667645.15545  23652133.109    23652143.122
       219.000         162.000
  20520282.955   -27511781.67849 -21102441.47247  20520283.623    20520289.613
       245.000         212.000
 03  1 14  1  5  0.0000000  0  7G 6G10G17G23G 5G24G30
  21400790.601   -22192723.87849 -16764571.19247  21400790.351    21400797.649
       240.000         204.000
  20940751.804   -22178659.44949 -17265085.18647  20940750.910    20940758.120
       242.000         207.000
  23134523.683   -10993355.62249  -8533220.10846  23134523.053    23134532.116
       223.000         174.000
  22201013.153   -12958050.42749  -9730147.48146  22201012.209    22201021.135
       231.000         186.000
  22072603.971   -21646901.19349 -16843471.94147  22072603.365    22072611.643
       232.000         191.000
  23667276.852    -7231905.01549  -5605635.89045  23667276.705    23667285.266
       219.000         162.000
  20525534.359   -27484185.47349 -21080937.92447  20525534.668    20525540.920
       246.000         212.000
 03  1 14  1  5 30.0000000  0  7G 6G10G17G23G 5G24G30
  21389970.792   -22249582.13149 -16808876.27947  21389970.721    21389977.763
       241.000         204.000
  20946440.575   -22148764.67749 -17241790.53347  20946439.861    20946446.956
       243.000         207.000
  23121897.601   -11059705.40349  -8584921.12746  23121897.024    23121906.608
       224.000         174.000
  22184417.533   -13045260.44249  -9798103.20446  22184416.418    22184425.420
       231.000         186.000
  22089825.838   -21556399.81949 -16772951.42447  22089825.422    22089833.294
       233.000         191.000
  23682418.424    -7152335.84449  -5543633.93945  23682417.424    23682426.410
       218.000         161.000
  20530895.656   -27456011.64049 -21058984.28247  20530895.946    20530902.108
       247.000         212.000
 03  1 14  1  6  0.0000000  0  7G 6G10G17G23G 5G24G30
  21379181.874   -22306278.02349 -16853054.84947  21379181.521    21379188.732
       240.000         204.000
  20952243.375   -22118270.42349 -17218028.74847  20952242.554    20952249.816
       242.000         207.000
  23109309.126   -11125857.86249  -8636468.38146  23109308.589    23109317.865
       224.000         174.000
  22167882.461   -13132152.36949  -9865811.06646  22167881.635    22167889.799
       232.000         187.000
  22107102.717   -21465609.46949 -16702205.72447  22107102.222    22107109.990
       233.000         190.000
  23697557.865    -7072776.99749  -5481640.01745  23697557.033    23697566.419
       217.000         161.000
  20536366.685   -27427261.32649 -21036581.43147  20536366.949    20536373.174
       246.000         212.000
 03  1 14  1  6 30.0000000  0  8G 6G10G17G23G 5G29G24G30
  21368424.095   -22362810.23249 -16897105.88047  21368424.188    21368431.032
       239.000         205.000
  20958160.004   -22087178.22849 -17193801.04347  20958159.288    20958166.579
       242.000         207.000
  23096758.200   -11191813.03649  -8687861.90346  23096757.418    23096766.895
       224.000         174.000
  22151408.327   -13218723.96949  -9933269.32947  22151407.949    22151415.814
       230.000         188.000
  22124433.980   -21374533.03949 -16631237.10347  22124433.673    22124441.612
       232.000         190.000
  24653634.410    -2337690.40949  -1795420.76445  24653634.094    24653644.661
       206.000         137.000
  23712695.261    -6993229.45749  -5419654.93045  23712695.023    23712704.554
       216.000         161.000
  20541947.131   -27397935.76349 -21013730.34347  20541947.436    20541953.597
       246.000         212.000
 03  1 14  1  7  0.0000000  0  8G 6G10G17G23G 5G29G24G30
  21357697.869   -22419176.75449 -16941027.79947  21357697.793    21357704.738
       241.000         205.000
  20964190.204   -22055489.18649 -17169108.25847  20964189.524    20964196.735
       242.000         207.000
  23084244.869   -11257570.63349  -8739101.47946  23084244.200    23084254.045
       224.000         175.000
  22134995.718   -13304972.24349 -10000475.64947  22134994.792    22135003.215
       231.000         188.000
  22141819.316   -21283172.50649 -16560047.10647  22141819.357    22141826.460
       232.000         190.000
  24639755.565    -2410623.63649  -1852251.73945  24639755.712    24639765.103
       205.000         139.000
  23727830.536    -6913693.35949  -5357678.74845  23727830.195    23727839.491
       218.000         161.000
  20547636.984   -27368035.37449 -20990431.33147  20547637.497    20547643.431
       247.000         212.000
 03  1 14  1  7 30.0000000  0  8G 6G10G17G23G 5G29G24G30
  21347003.262   -22475377.15949 -16984820.27947  21347003.147    21347010.079
       240.000         205.000
  20970333.593   -22023205.35049 -17143952.00147  20970332.841    20970340.228
       241.000         207.000
  23071769.046   -11323131.29549  -8790187.60246  23071768.757    23071777.585
       223.000         175.000
  22118644.889   -13390895.77649 -10067428.92547  22118644.231    22118652.702
       230.000         188.000
  22159258.041   -21191531.71649 -16488638.73347  22159258.015    22159265.714
       232.000         190.000
  24625882.357    -2483527.15249  -1909059.49645  24625882.546    24625890.797
       206.000         139.000
  23742963.114    -6834171.03549  -5295713.29645  23742962.759    23742971.555
       217.000         161.000
  20553435.864   -27337562.18549 -20966685.98547  20553436.442    20553442.446
       245.000         212.000
 03  1 14  1  8  0.0000000  0  8G 6G10G17G23G 5G29G24G30
  21336340.574   -22531409.71349 -17028481.96447  21336340.429    21336347.343
       241.000         205.000
  20976589.921   -21990328.09349 -17118333.33947  20976589.179    20976596.403
       243.000         207.000
  23059330.740   -11388494.59149  -8841119.92546  23059330.188    23059338.941
       224.000         175.000
  22102356.368   -13476491.98049 -10134127.14047  22102356.087    22102363.805
       232.000         189.000
  22176749.648   -21099612.82549 -16417013.65347  22176749.226    22176757.492
       234.000         189.000
  24612015.371    -2556397.90849  -1965841.83445  24612015.346    24612024.495
       207.000         136.000
  23758092.959    -6754663.14449  -5233759.08145  23758092.595    23758102.164
       218.000         160.000
  20559343.509   -27306517.17549 -20942495.06247  20559343.762    20559350.130
       247.000         212.000
 03  1 14  1  8 30.0000000  0  8G 6G10G17G23G 5G29G24G30
  21325710.216   -22587272.50049 -17072011.36047  21325710.028    21325716.868
       242.000         205.000
  20982958.938   -21956858.60749 -17092253.20047  20982958.150    20982965.439
       242.000         207.000
  23046930.000   -11453660.40449  -8891898.36746  23046929.513    23046937.844
       225.000         175.000
  22086130.672   -13561758.23349 -10200568.26047  22086130.150    22086138.206
       233.000         189.000
  22194293.735   -21007418.09349 -16345173.63047  22194293.350    22194301.234
       233.000         189.000
  24598155.295    -2629232.69049  -2022596.04545  24598155.012    24598165.805
       206.000         138.000
  23773219.936    -6675170.07749  -5171816.42945  23773220.272    23773228.704
       218.000         160.000
  20565359.813   -27274901.08949 -20917859.14547  20565359.968    20565366.277
       246.000         212.000
 03  1 14  1  9  0.0000000  0  8G 6G10G17G23G 5G29G24G30
  21315112.564   -22642963.50849 -17115406.90647  21315112.485    21315119.374
       240.000         206.000
  20989440.459   -21922797.70249 -17065712.22447  20989439.963    20989447.115
       241.000         206.000
  23034566.962   -11518628.16449  -8942522.48846  23034566.461    23034575.435
       224.000         175.000
  22069968.365   -13646691.35549 -10266749.79847  22069967.739    22069975.715
       232.000         189.000
  22211889.986   -20914949.49149 -16273120.20747  22211889.879    22211897.591
       230.000         188.000
  24584302.663    -2702027.93449  -2079319.49945  24584302.352    24584313.358
       208.000         137.000
  23788344.046    -6595692.35349  -5109885.74045  23788344.892    23788353.228
       216.000         159.000
  20571484.757   -27242714.32149 -20892778.54847  20571485.117    20571491.428
       245.000         211.000
 03  1 14  1  9 30.0000000  0  8G 6G10G17G23G 5G29G24G30
  21304547.760   -22698481.89849 -17158667.94547  21304547.679    21304554.692
       240.000         206.000
  20996034.085   -21888147.94849 -17038712.39947  20996033.478    20996040.523
       240.000         206.000
  23022241.495   -11583398.54349  -8992992.81046  23022241.274    23022250.128
       223.000         175.000
  22053869.739   -13731289.74949 -10332670.51447  22053869.064    22053877.618
       231.000         190.000
  22229537.677   -20822210.33749 -16200855.97047  22229536.892    22229545.141
       229.000         188.000
  24570458.090    -2774781.37849  -2136010.37845  24570458.236    24570468.805
       207.000         139.000
  23803465.019    -6516231.15749  -5047967.92245  23803465.584    23803473.861
       215.000         158.000
  20577717.873   -27209958.93449 -20867254.86547  20577718.342    20577724.511
       245.000         211.000
 03  1 14  1 10  0.0000000  0  8G 6G10G17G23G 5G29G24G30
  21294015.934   -22753826.76449 -17201793.76647  21294015.999    21294022.886
       241.000         206.000
  21002739.333   -21852911.45549 -17011255.37547  21002738.457    21002745.727
       240.000         206.000
  23009953.467   -11647972.04349  -9043309.71346  23009952.751    23009962.076
       223.000         175.000
  22037835.141   -13815551.62749 -10398329.00547  22037834.754    22037843.298
       232.000         190.000
  22247236.257   -20729203.78349 -16128383.36446  22247236.009    22247244.374
       230.000         187.000
  24556621.813    -2847490.67049  -2192666.81245  24556621.854    24556631.359
       205.000         139.000
  23818582.527    -6436788.06749  -4986064.22145  23818582.109    23818591.933
       214.000         157.000
  20584058.897   -27176636.56949 -20841289.38247  20584059.312    20584065.498
       245.000         211.000
 03  1 14  1 10 30.0000000  0  8G 6G10G17G23G 5G29G24G30
  21283517.626   -22808995.55649 -17244782.38647  21283517.657    21283524.347
       240.000         206.000
  21009556.174   -21817088.61649 -16983341.46147  21009555.677    21009562.570
       240.000         206.000
  22997703.102   -11712347.72249  -9093472.47546  22997702.152    22997710.664
       222.000         175.000
  22021865.206   -13899473.75149 -10463722.75947  22021864.331    22021872.434
       232.000         190.000
  22264985.386   -20635931.55549 -16055703.74746  22264985.311    22264992.819
       230.000         187.000
  24542794.554    -2920151.92049  -2249285.79345  24542793.598    24542804.687
       206.000         137.000
  23833696.517    -6357363.24149  -4924174.74645  23833695.816    23833705.303
       215.000         157.000
  20590507.784   -27142747.47849 -20814882.29547  20590508.148    20590514.264
       244.000         211.000
 03  1 14  1 11  0.0000000  0  8G 6G10G17G23G 5G29G24G30
  21273053.044   -22863987.09449 -17287632.88947  21273053.072    21273059.792
       241.000         206.000
  21016484.240   -21780681.38849 -16954972.17647  21016483.641    21016490.709
       241.000         205.000
  22985490.286   -11776526.05649  -9143481.46146  22985489.837    22985498.905
       224.000         175.000
  22005960.281   -13983054.07849 -10528850.18047  22005959.351    22005968.245
       232.000         190.000
  22282784.493   -20542396.55449 -15982819.35446  22282784.080    22282792.196
       230.000         187.000
  24528977.249    -2992762.60949  -2305865.44145  24528977.182    24528987.230
       204.000         139.000
  23848806.934    -6277957.71549  -4862300.31145  23848806.615    23848815.916
       218.000         157.000
  20597064.221   -27108293.21649 -20788034.81447  20597064.669    20597070.717
       245.000         211.000
 03  1 14  1 11 30.0000000  0  8G 6G10G17G23G 5G29G24G30
  21262622.505   -22918799.81349 -17330344.05347  21262622.363    21262629.243
       241.000         207.000
  21023523.200   -21743691.36549 -16926148.76547  21023522.558    21023529.477
       241.000         205.000
  22973315.105   -11840506.65249  -9193336.36846  22973314.335    22973323.661
       223.000         176.000
  21990120.879   -14066290.08949 -10593709.30747  21990120.476    21990128.490
       233.000         191.000
  22300633.166   -20448601.33649 -15909732.20746  22300633.093    22300640.684
       231.000         187.000
  24515169.870    -3065319.73049  -2362403.29345  24515169.072    24515178.951
       206.000         138.000
  23863913.567    -6198572.04149  -4800441.35345  23863912.137    23863922.224
       215.000         157.000
  20603727.955   -27073274.96349 -20760747.86347  20603728.246    20603734.347
       245.000         211.000
 03  1 14  1 12  0.0000000  0  8G 6G10G17G23G 5G29G24G30
  21252226.198   -22973432.60349 -17372915.01047  21252226.160    21252232.917
       240.000         207.000
  21030672.645   -21706120.58649 -16896872.82347  21030672.069    21030679.112
       240.000         205.000
  22961177.398   -11904290.17449  -9243037.72346  22961176.099    22961185.930
       224.000         176.000
  21974347.356   -14149179.96549 -10658298.72047  21974347.076    21974354.858
       233.000         191.000
  22318530.725   -20354549.10449 -15836444.79446  22318530.673    22318538.645
       229.000         186.000
  24501373.267    -3137820.84849  -2418897.47845  24501373.942    24501383.085
       208.000         140.000
  23879016.108    -6119207.71249  -4738599.00345  23879015.891    23879024.857
       215.000         156.000
  20610498.679   -27037694.59349 -20733022.89847  20610499.268    20610505.273
       245.000         211.000
 03  1 14  1 12 30.0000000  0  8G 6G10G17G23G 5G29G24G30
  21241864.535   -23027883.08949 -17415343.91047  21241864.373    21241871.379
       240.000         207.000
  21037932.471   -21667969.77149 -16867144.89347  21037931.873    21037939.060
       240.000         205.000
  22949077.357   -11967875.67549  -9292584.76446  22949077.134    22949085.894
       224.000         176.000
  21958640.336   -14231720.49749 -10722615.91747  21958639.600    21958647.702
       232.000         191.000
  22336476.883   -20260241.50149 -15762958.37246  22336476.639    22336484.440
       229.000         186.000
  24487588.241    -3210261.96749  -2475344.94045  24487588.195    24487595.810
       206.000         141.000
  23894114.640    -6039864.53949  -4676773.14745  23894114.789    23894124.312
       214.000         156.000
  20617376.302   -27001552.40849 -20704860.15347  20617376.777    20617382.824
       245.000         211.000
 03  1 14  1 13  0.0000000  0  8G 6G10G17G23G 5G29G24G30
  21231537.868   -23082150.02549 -17457629.79147  21231537.752    21231544.732
       240.000         207.000
  21045302.225   -21629241.27049 -16836966.82847  21045301.641    21045308.552
       240.000         205.000
  22937014.992   -12031263.71249  -9341977.95046  22937014.715    22937023.288
       224.000         176.000
  21943000.126   -14313909.88849 -10786659.50547  21942999.757    21943007.836
       233.000         192.000
  22354471.011   -20165681.75949 -15689275.49846  22354470.902    22354479.447
       228.000         186.000
  24473814.798    -3282640.77949  -2531743.88445  24473814.351    24473824.234
       206.000         138.000
  23909208.860    -5960543.63949  -4614964.65145  23909208.889    23909216.837
       213.000         155.000
  20624360.515   -26964850.18249 -20676261.01847  20624360.982    20624366.969
       244.000         211.000
 03  1 14  1 13 30.0000000  0  8G 6G10G17G23G 5G29G24G30
  21221246.143   -23136233.07049 -17499772.36747  21221245.937    21221252.921
       241.000         207.000
  21052781.358   -21589938.15049 -16806340.99247  21052780.533    21052787.748
       241.000         205.000
  22924989.949   -12094455.43749  -9391218.16246  22924989.380    22924998.449
       224.000         177.000
  21927426.921   -14395747.18149 -10850428.71947  21927425.929    21927434.430
       233.000         192.000
  22372512.454   -20070873.64249 -15615399.06546  22372511.902    22372520.357
       229.000         185.000
  24460053.686    -3354955.43149  -2588092.74645  24460053.457    24460063.406
       205.000         140.000
  23924298.470    -5881247.24349  -4553175.25545  23924298.283    23924307.616
       213.000         154.000
  20631450.791   -26927590.44549 -20647227.44547  20631451.044    20631457.239
       245.000         211.000
 03  1 14  1 14  0.0000000  0  8G 6G10G17G23G 5G29G24G30
  21210990.302   -23190127.50649 -17541767.98747  21210990.247    21210997.010
       240.000         207.000
  21060370.125   -21550058.86349 -16775266.21047  21060369.450    21060376.561
       240.000         205.000
  22913002.777   -12157448.15849  -9440303.32346  22913002.538    22913010.680
       225.000         177.000
  21911921.785   -14477226.85949 -10913919.28947  21911921.113    21911929.111
       233.000         193.000
  22390601.222   -19975816.66449 -15541328.72846  22390601.139    22390608.856
       229.000         185.000
  24446305.861    -3427199.91849  -2644386.97745  24446304.496    24446315.579
       202.000         141.000
  23939383.859    -5801972.95349  -4491403.08345  23939383.360    23939391.842
       214.000         154.000
  20638647.478   -26889771.50549 -20617758.14847  20638647.951    20638654.044
       244.000         211.000
 03  1 14  1 14 30.0000000  0  8G 6G10G17G23G 5G29G24G30
  21200770.102   -23243834.72649 -17583617.72047  21200770.022    21200776.818
       240.000         208.000
  21068067.682   -21509607.89149 -16743745.95347  21068067.251    21068074.300
       240.000         205.000
  22901053.014   -12220244.10449  -9489235.14546  22901052.421    22901061.068
       225.000         177.000
  21896484.561   -14558349.51449 -10977131.65847  21896484.109    21896492.072
       233.000         193.000
  22408736.279   -19880516.35749 -15467068.78646  22408735.945    22408743.771
       229.000         184.000
  24432571.340    -3499374.15949  -2700626.42145  24432570.014    24432579.473
       207.000         140.000
  23954464.382    -5722724.62349  -4429651.12945  23954464.629    23954473.303
       214.000         154.000
  20645949.811   -26851397.58149 -20587856.38747  20645950.356    20645956.298
       245.000         211.000
 03  1 14  1 15  0.0000000  0  8G 6G10G17G23G 5G29G24G30
  21190586.092   -23297351.98249 -17625319.43247  21190586.222    21190592.857
       240.000         208.000
  21075873.958   -21468585.74249 -16711780.62247  21075873.486    21075880.512
       240.000         205.000
  22889140.854   -12282842.48249  -9538013.02246  22889140.468    22889148.916
       224.000         178.000
  21881115.946   -14639111.66149 -11040063.10647  21881115.219    21881123.467
       234.000         193.000
  22426917.386   -19784974.18749 -15392620.37446  22426916.589    22426925.366
       227.000         184.000
  24418851.101    -3571473.98249  -2756807.93245  24418849.742    24418860.405
       203.000         140.000
  23969540.005    -5643501.41149  -4367918.75445  23969539.993    23969549.058
       214.000         154.000
  20653357.680   -26812468.86449 -20557522.32047  20653358.168    20653364.256
       244.000         211.000
 03  1 14  1 15 30.0000000  0  8G 6G10G17G23G 5G29G24G30
  21180438.359   -23350678.42749 -17666872.46247  21180438.398    21180445.158
       242.000         208.000
  21083788.345   -21426995.20549 -16679372.39447  21083787.737    21083794.675
       241.000         205.000
  22877266.233   -12345243.71149  -9586637.28246  22877266.078    22877274.406
       226.000         178.000
  21865816.250   -14719511.80749 -11102712.47847  21865815.671    21865823.455
       233.000         193.000
  22445143.863   -19689193.57249 -15317986.16046  22445143.131    22445152.285
       228.000         183.000
  24405145.380    -3643497.10849  -2812929.60345  24405144.340    24405154.309
       202.000         142.000
  23984610.599    -5564304.90949  -4306207.18745  23984610.650    23984618.694
       215.000         154.000
  20660870.682   -26772987.67949 -20526757.75947  20660871.057    20660877.044
       245.000         211.000
 03  1 14  1 16  0.0000000  0  8G 6G10G17G23G 5G29G24G30
  21170327.389   -23403811.85149 -17708275.08147  21170327.147    21170333.993
       242.000         208.000
  21091810.688   -21384837.55249 -16646522.25147  21091810.184    21091817.255
       241.000         205.000
  22865429.122   -12407447.95049  -9635108.04246  22865428.803    22865437.465
       226.000         179.000
  21850585.954   -14799547.26449 -11165077.68347  21850585.494    21850593.250
       234.000         194.000
  22463415.303   -19593176.61849 -15243167.78846  22463415.031    22463423.108
       228.000         183.000
  24391454.837    -3715440.20049  -2868988.93245  24391454.557    24391464.077
       205.000         142.000
  23999676.005    -5485135.42149  -4244516.66845  23999675.490    23999684.294
       215.000         153.000
  20668488.683   -26732954.86949 -20495563.35747  20668488.993    20668495.280
       245.000         211.000
 03  1 14  1 16 30.0000000  0  8G 6G10G17G23G 5G29G24G30
  21160253.049   -23456752.63349 -17749527.59147  21160252.802    21160259.869
       242.000         208.000
  21099940.179   -21342116.76949 -16613233.30547  21099939.416    21099946.566
       241.000         205.000
  22853629.148   -12469456.91649  -9683426.65146  22853628.912    22853637.168
       226.000         179.000
  21835425.066   -14879217.91149 -11227158.61347  21835424.180    21835432.380
       233.000         194.000
  22481730.780   -19496928.12149 -15168168.99046  22481731.061    22481739.010
       229.000         183.000
  24377779.809    -3787302.28949  -2924985.15945  24377778.985    24377788.777
       203.000         141.000
  24014735.719    -5405995.76249  -4182849.38945  24014735.834    24014744.840
       214.000         154.000
  20676210.941   -26692373.97049 -20463941.87447  20676211.137    20676217.476
       245.000         210.000
 03  1 14  1 17  0.0000000  0  8G 6G10G17G23G 5G29G24G30
  21150216.072   -23509497.08949 -17790627.12947  21150216.020    21150222.896
       241.000         208.000
  21108176.923   -21298832.34449 -16579505.16247  21108176.334    21108183.239
       240.000         205.000
  22841866.746   -12531268.51949  -9731591.45746  22841866.165    22841874.666
       226.000         179.000
  21820334.459   -14958519.24249 -11288951.77147  21820333.707    21820341.705
       233.000         194.000
  22500090.315   -19400448.45449 -15092990.06846  22500090.352    22500098.088
       227.000         182.000
  24364121.164    -3859078.17549  -2980914.22245  24364120.201    24364130.091
       198.000         141.000
  24029790.123    -5326884.37749  -4121204.13745  24029789.793    24029798.409
       214.000         154.000
  20684037.669   -26651244.29549 -20431892.77747  20684038.028    20684044.235
       244.000         210.000
 03  1 14  1 17 30.0000000  0  8G 6G10G17G23G 5G29G24G30
  21140216.341   -23562046.00449 -17831574.28347  21140216.233    21140223.002
       241.000         208.000
  21116520.087   -21254988.61549 -16545341.18547  21116519.258    21116526.482
       240.000         204.000
  22830141.477   -12592885.08849  -9779604.29246  22830140.952    22830149.549
       226.000         179.000
  21805314.035   -15037451.54349 -11350457.36747  21805313.356    21805321.268
       233.000         194.000
  22518492.860   -19303742.59049 -15017634.88846  22518492.512    22518501.054
       227.000         182.000
  24350478.818    -3930767.26149  -3036775.58645  24350478.804    24350487.826
       204.000         142.000
  24044838.492    -5247804.94949  -4059583.79045  24044837.665    24044847.225
       214.000         154.000
  20691968.060   -26609569.68949 -20399419.04947  20691968.438    20691974.645
       245.000         210.000
 03  1 14  1 18  0.0000000  0  8G 6G10G17G23G 5G29G24G30
  21130255.303   -23614391.32649 -17872362.80547  21130255.269    21130261.833
       242.000         208.000
  21124970.509   -21210581.14549 -16510737.94847  21124969.748    21124976.943
       240.000         204.000
  22818454.474   -12654300.36649  -9827460.28246  22818454.143    22818462.338
       227.000         180.000
  21790365.513   -15116006.22149 -11411668.72847  21790364.834    21790372.573
       234.000         195.000
  22536939.109   -19206806.92849 -14942100.64146  22536938.652    22536946.790
       226.000         181.000
  24336854.999    -4002360.40749  -3092562.29045  24336855.096    24336863.484
       205.000         142.000
  24059881.990    -5168751.17949  -3997983.44745  24059881.760    24059890.223
       214.000         154.000
  20700003.068   -26567345.36149 -20366516.98147  20700003.386    20700009.588
       245.000         210.000
 03  1 14  1 18 30.0000000  0  8G 6G10G17G23G 5G29G24G30
  21120332.521   -23666535.68349 -17912994.72747  21120332.378    21120339.208
       241.000         208.000
  21133527.049   -21165616.05349 -16475700.19147  21133526.454    21133533.294
       240.000         204.000
  22806805.008   -12715518.58249  -9875162.72046  22806804.178    22806812.681
       227.000         180.000
  21775488.406   -15194185.38749 -11472587.47647  21775488.053    21775495.241
       234.000         195.000
  22555427.798   -19109648.45549 -14866392.78746  22555427.123    22555435.716
       226.000         181.000
  24323249.239    -4073858.84649  -3148275.16245  24323248.895    24323258.047
       202.000         141.000
  24074919.560    -5089728.09449  -3936407.01845  24074918.121    24074927.034
       214.000         153.000
  20708141.570   -26524577.30949 -20333191.22547  20708142.032    20708147.962
       244.000         210.000
 03  1 14  1 19  0.0000000  0  8G 6G10G17G23G 5G29G24G30
  21110447.568   -23718481.16249 -17953471.68347  21110447.291    21110454.295
       241.000         208.000
  21142188.705   -21120098.69649 -16440232.10047  21142187.848    21142195.094
       240.000         204.000
  22795192.202   -12776544.00949  -9922714.93146  22795191.807    22795200.022
       227.000         180.000
  21760682.535   -15271990.48549 -11533214.74347  21760682.053    21760689.757
       234.000         195.000
  22573957.635   -19012273.52849 -14790516.26046  22573957.175    22573964.728
       226.000         180.000
  24309661.293    -4145263.19449  -3203914.70945  24309662.691    24309670.761
       207.000         146.000
  24089950.484    -5010740.02049  -3874857.86345  24089950.314    24089958.989
       212.000         153.000
  20716382.525   -26481270.66049 -20299445.78447  20716382.787    20716389.002
       244.000         210.000
 03  1 14  1 19 30.0000000  0  8G 6G10G17G23G 5G29G24G30
  21100600.688   -23770226.69849 -17993792.83347  21100600.428    21100607.377
       241.000         208.000
  21150954.880   -21074032.06149 -16404335.99647  21150954.259    21150961.080
       240.000         204.000
  22783616.020   -12837377.05649  -9970117.23746  22783615.381    22783623.782
       227.000         180.000
  21745948.145   -15349419.89349 -11593549.26647  21745947.614    21745955.356
       234.000         195.000
  22592528.077   -18914685.25049 -14714473.50246  22592527.938    22592535.905
       226.000         180.000
  24296091.706    -4216571.23749  -3259479.27145  24296090.996    24296100.545
       201.000         144.000
  24104974.472    -4931788.38849  -3813337.10045  24104974.533    24104982.431
       214.000         153.000
  20724725.582   -26437427.59349 -20265282.35647  20724725.981    20724732.144
       244.000         209.000
 03  1 14  1 20  0.0000000  0  8G 6G10G17G23G 5G29G24G30
  21090793.673   -23821762.69549 -18033950.70547  21090793.527    21090800.359
       241.000         208.000
  21159826.728   -21027410.09749 -16368007.16747  21159825.897    21159832.731
       240.000         204.000
  22772077.926   -12898009.73149 -10017363.40446  22772078.048    22772086.062
       227.000         180.000
  21731287.221   -15426463.32549 -11653583.03547  21731286.833    21731293.851
       235.000         196.000
  22611140.182   -18816878.36249 -14638260.37346  22611139.834    22611147.933
       225.000         179.000
  24282542.448    -4287771.70449  -3314959.98245  24282542.745    24282551.758
       206.000         143.000
  24119993.001    -4852865.65149  -3751838.84745  24119992.217    24120002.098
       214.000         153.000
  20733171.904   -26393041.77649 -20230696.00247  20733172.363    20733178.575
       244.000         209.000
 03  1 14  1 20 30.0000000  0  8G 6G10G17G23G 5G29G24G30
  21081026.532   -23873089.37349 -18073945.47247  21081026.319    21081033.107
       242.000         209.000
  21168803.593   -20980236.25149 -16331248.30647  21168803.033    21168809.787
       239.000         203.000
  22760577.664   -12958443.91049 -10064454.90846  22760577.080    22760585.721
       226.000         180.000
  21716699.837   -15503120.47849 -11713315.80747  21716699.562    21716707.258
       235.000         196.000
  22629792.993   -18718857.25649 -14561880.32946  22629793.130    22629801.362
       227.000         179.000
  24269014.161    -4358863.50649  -3370356.07945  24269014.521    24269022.985
       205.000         145.000
  24135005.457    -4773974.35349  -3690365.11145  24135005.733    24135014.567
       214.000         153.000
  20741720.919   -26348116.49349 -20195689.29047  20741721.365    20741727.565
       244.000         209.000
 03  1 14  1 21  0.0000000  0  8G 6G10G17G23G 5G29G24G30
  21071299.350   -23924205.79249 -18113776.39647  21071299.223    21071305.993
       241.000         209.000
  21177884.925   -20932513.44649 -16294061.68547  21177884.346    21177891.173
       239.000         203.000
  22749115.041   -13018680.31349 -10111392.29346  22749113.886    22749122.934
       227.000         180.000
  21702186.159   -15579390.15249 -11772746.64747  21702185.829    21702193.202
       235.000         197.000
  22648485.934   -18620625.58849 -14485336.21246  22648485.640    22648493.968
       226.000         179.000
  24255506.858    -4429844.25949  -3425665.58445  24255506.652    24255514.807
       204.000         144.000
  24150011.680    -4695116.30949  -3628917.27045  24150012.174    24150021.313
       214.000         153.000
  20750372.100   -26302654.18449 -20160264.11247  20750372.536    20750378.744
       244.000         209.000
 03  1 14  1 21 30.0000000  0  8G 6G10G17G23G 5G29G24G30
  21061612.428   -23975110.83149 -18153442.60847  21061612.209    21061618.947
       242.000         209.000
  21187070.188   -20884244.27849 -16256449.32647  21187069.687    21187076.590
       239.000         203.000
  22737689.889   -13078719.42549 -10158175.94446  22737688.975    22737697.228
       227.000         180.000
  21687746.459   -15655270.86449 -11831874.40247  21687746.356    21687753.603
       235.000         197.000
  22667218.281   -18522186.48449 -14408630.44846  22667217.482    22667226.358
       225.000         179.000
  24242021.136    -4500711.73749  -3480886.87245  24242021.328    24242029.553
       207.000         144.000
  24165011.340    -4616292.22249  -3567495.90845  24165010.491    24165018.569
       213.000         153.000
  20759125.000   -26256657.21749 -20124422.31947  20759125.427    20759131.578
       244.000         209.000
 03  1 14  1 22  0.0000000  0  8G 6G10G17G23G 5G29G24G30
  21051965.924   -24025803.35149 -18192943.22347  21051965.757    21051972.536
       241.000         209.000
  21196359.004   -20835431.21649 -16218413.15347  21196358.157    21196365.322
       239.000         203.000
  22726302.086   -13138562.34249 -10204806.72146  22726301.629    22726309.561
       226.000         180.000
  21673381.124   -15730760.95549 -11890697.78247  21673380.601    21673388.263
       236.000         197.000
  22685989.552   -18423543.12249 -14331765.53846  22685989.346    22685996.508
       225.000         178.000
  24228557.528    -4571463.26249  -3536017.81145  24228556.120    24228565.867
       203.000         144.000
  24180004.305    -4537503.46949  -3506102.07345  24180004.611    24180013.081
       214.000         153.000
  20767979.293   -26210127.71549 -20088165.56247  20767979.557    20767985.993
       244.000         209.000
 03  1 14  1 22 30.0000000  0  8G 6G10G17G23G 5G29G24G30
  21042360.156   -24076281.58249 -18232276.85747  21042359.837    21042366.757
       241.000         209.000
  21205750.887   -20786076.39649 -16179954.83447  21205750.504    21205757.219
       239.000         203.000
  22714951.633   -13198209.03449 -10251284.58646  22714951.007    22714959.440
       227.000         180.000
  21659090.519   -15805858.31649 -11949215.13347  21659089.974    21659097.504
       235.000         198.000
  22704799.176   -18324698.02849 -14254743.42146  22704799.135    22704806.857
       225.000         178.000
  24215116.433    -4642095.99149  -3591056.12945  24215116.034    24215124.946
       204.000         147.000
  24194990.504    -4458750.56549  -3444736.16945  24194990.786    24194999.382
       213.000         153.000
  20776934.554   -26163067.49949 -20051495.26347  20776935.017    20776941.256
       242.000         209.000
 03  1 14  1 23  0.0000000  0  8G 6G10G17G23G 5G29G24G30
  21032795.518   -24126543.97349 -18271442.30947  21032795.409    21032801.870
       242.000         209.000
  21215245.500   -20736181.85549 -16141075.95547  21215244.692    21215251.730
       238.000         203.000
  22703638.576   -13257659.24749 -10297609.36446  22703638.008    22703645.687
       226.000         180.000
  21644875.049   -15880560.83749 -12007424.82047  21644874.925    21644881.588
       236.000         198.000
  22723646.676   -18225653.95949 -14177566.27046  22723646.127    22723654.656
       225.000         177.000
  24201698.492    -4712606.93549  -3645999.61345  24201698.193    24201706.261
       207.000         145.000
  24209969.796    -4380034.04149  -3383398.62145  24209970.366    24209978.149
       215.000         153.000
  20785990.429   -26115478.49749 -20014412.92647  20785990.818    20785996.889
       242.000         209.000
 03  1 14  1 23 30.0000000  0  8G 6G10G17G23G 5G29G24G30
  21023272.243   -24176588.97249 -18310438.35547  21023272.082    21023278.694
       242.000         209.000
  21224842.317   -20685750.09049 -16101778.45147  21224841.438    21224848.550
       239.000         202.000
  22692362.684   -13316913.75949 -10343781.63346  22692362.334    22692370.272
       227.000         180.000
  21630735.097   -15954866.48349 -12065325.25247  21630734.344    21630741.988
       236.000         198.000
  22742531.490   -18126413.78849 -14100236.29746  22742531.493    22742539.298
       226.000         177.000
  24188304.254    -4782993.21449  -3700845.91445  24188304.395    24188312.542
       207.000         147.000
  24224941.972    -4301354.74449  -3322090.07845  24224942.811    24224950.922
       215.000         153.000
  20795146.656   -26067362.15149 -19976919.67047  20795147.109    20795153.371
       242.000         209.000
 03  1 14  1 24  0.0000000  0  8G 6G10G17G23G 5G29G24G30
  21013790.661   -24226414.81249 -18349263.63847  21013790.635    21013797.204
       242.000         210.000
  21234541.022   -20634782.84649 -16062063.69847  21234540.474    21234547.228
       239.000         202.000
  22681124.114   -13375972.51749 -10389801.37246  22681123.895    22681132.170
       227.000         180.000
  21616671.020   -16028773.47749 -12122915.04947  21616670.750    21616677.847
       236.000         199.000
  22761453.028   -18026980.31649 -14022755.70346  22761453.194    22761461.431
       225.000         176.000
  24174934.453    -4853252.00149  -3755592.90145  24174933.622    24174943.332
       210.000         148.000
  24239907.026    -4222713.20249  -3260810.94045  24239906.172    24239915.368
       212.000         153.000
  20804402.842   -26018720.67149 -19939017.21947  20804403.291    20804409.302
       243.000         209.000
 03  1 14  1 24 30.0000000  0  8G 6G10G17G23G 5G29G24G30
  21004351.052   -24276019.98949 -18387916.96847  21004350.860    21004357.497
       241.000         210.000
  21244341.150   -20583282.70349 -16021933.69547  21244340.479    21244347.633
       238.000         202.000
  22669922.705   -13434835.90449 -10435668.86846  22669921.790    22669930.499
       227.000         181.000
  21602683.146   -16102279.92949 -12180192.73947  21602682.824    21602690.029
       236.000         199.000
  22780410.880   -17927356.37749 -13945126.70146  22780410.510    22780418.884
       224.000         176.000
  24161589.479    -4923380.29049  -3810238.17345  24161589.440    24161597.393
       207.000         147.000
  24254864.654    -4144110.28449  -3199561.92245  24254864.437    24254872.742
       214.000         152.000
  20813758.568   -25969555.90249 -19900707.00647  20813759.004    20813765.172
       242.000         208.000
 03  1 14  1 25  0.0000000  0  8G 6G10G17G23G 5G29G24G30
  20994953.754   -24325402.83249 -18426397.05947  20994953.416    20994960.078
       241.000         210.000
  21254242.356   -20531251.45949 -15981389.84847  21254241.605    21254248.372
       238.000         202.000
  22658758.533   -13493503.70849 -10481383.96346  22658758.178    22658766.331
       227.000         181.000
  21588771.853   -16175383.82749 -12237156.74247  21588771.255    21588778.484
       237.000         199.000
  22799404.404   -17827544.65449 -13867351.36346  22799404.581    22799412.645
       224.000         175.000
  24148269.803    -4993375.14149  -3864779.51045  24148269.361    24148278.578
       211.000         148.000
  24269814.952    -4065546.35549  -3138343.28045  24269813.648    24269822.935
       211.000         152.000
  20823213.549   -25919869.71449 -19861990.49847  20823213.829    20823219.926
       242.000         208.000
 03  1 14  1 25 30.0000000  0  8G 6G10G17G23G 5G29G24G30
  20985599.087   -24374561.58949 -18464702.53547  20985598.902    20985605.706
       242.000         210.000
  21264244.180   -20478691.34949 -15940433.89947  21264243.491    21264250.677
       238.000         201.000
  22647631.571   -13551975.94349 -10526946.67146  22647630.811    22647640.041
       227.000         181.000
  21574937.657   -16248082.85749 -12293805.27347  21574937.032    21574944.669
       237.000         200.000
  22818433.238   -17727547.69849 -13789431.69146  22818432.978    22818441.577
       224.000         175.000
  24134976.053    -5063233.54849  -3919214.46245  24134975.424    24134983.427
       208.000         148.000
  24284757.630    -3987021.94749  -3077155.43545  24284757.582    24284766.005
       212.000         151.000
  20832767.381   -25869663.82049 -19822869.02647  20832767.585    20832773.886
       241.000         208.000
 03  1 14  1 26  0.0000000  0  8G 6G10G17G23G 5G29G24G30
  20976287.366   -24423494.76649 -18502832.23147  20976287.079    20976293.894
       242.000         210.000
  21274346.210   -20425604.74749 -15899067.69947  21274345.687    21274352.520
       238.000         201.000
  22636541.738   -13610253.02049 -10572357.30746  22636541.249    22636549.390
       228.000         182.000
  21561180.800   -16320375.36049 -12350137.02947  21561180.216    21561187.535
       237.000         200.000
  22837496.753   -17627368.27449 -13711369.84546  22837495.971    22837504.202
       223.000         174.000
  24121708.929    -5132952.33349  -3973540.67345  24121708.169    24121716.585
       211.000         148.000
  24299692.708    -3908537.95749  -3015999.10245  24299691.833    24299701.575
       213.000         151.000
  20842419.774   -25818940.14749 -19783344.08747  20842420.123    20842426.442
       241.000         208.000
 03  1 14  1 26 30.0000000  0  9G 6G10G17G26G23G 5G29G24G30
  20967018.923   -24472200.43949 -18540784.65847  20967018.815    20967025.564
       242.000         210.000
  21284548.048   -20371993.53649 -15857292.71147  21284547.325    21284554.404
       238.000         201.000
  22625489.069   -13668334.92749 -10617615.85946  22625488.650    22625496.274
       228.000         182.000
  24315761.947    -4022818.92649  -3090459.05945  24315761.878    24315772.046
       209.000         143.000
  21547501.703   -16392259.15849 -12406150.31247  21547501.345    21547508.604
       237.000         200.000
  22856594.570   -17527008.74149 -13633167.64846  22856594.249    22856602.095
       223.000         174.000
  24108468.822    -5202528.61349  -4027755.82145  24108467.925    24108477.644
       208.000         147.000
  24314619.955    -3830094.40049  -2954874.25645  24314619.609    24314628.530
       211.000         150.000
  20852170.349   -25767700.48549 -19743417.08047  20852170.663    20852176.904
       242.000         208.000
 03  1 14  1 27  0.0000000  0  9G 6G10G17G26G23G 5G29G24G30
  20957794.103   -24520676.98649 -18578558.53847  20957794.081    20957800.602
       242.000         210.000
  21294849.270   -20317860.19649 -15815110.86947  21294848.613    21294855.641
       238.000         201.000
  22614473.509   -13726222.01749 -10662722.60546  22614473.436    22614481.426
       227.000         183.000
  24298597.639    -4113016.55849  -3160742.68545  24298596.841    24298606.899
       205.000         143.000
  21533900.748   -16463732.25549 -12461843.56747  21533900.331    21533907.536
       238.000         201.000
  22875726.057   -17426472.02049 -13554827.38946  22875725.625    22875733.959
       224.000         174.000
  24095256.439    -5271959.35649  -4081857.53745  24095256.701    24095265.030
       209.000         149.000
  24329539.293    -3751692.18349  -2893781.63345  24329538.991    24329547.206
       212.000         150.000
  20862018.747   -25715946.80649 -19703089.53947  20862018.845    20862025.137
       241.000         208.000
 03  1 14  1 27 30.0000000  0  9G 6G10G17G26G23G 5G29G24G30
  20948613.225   -24568922.74949 -18616152.58547  20948613.117    20948619.857
       242.000         210.000
  21305249.403   -20263207.08249 -15772524.00947  21305248.653    21305255.503
       238.000         201.000
  22603494.939   -13783914.49649 -10707677.70646  22603494.406    22603502.446
       228.000         183.000
  24281433.029    -4203216.70749  -3231028.30045  24281434.023    24281442.744
       209.000         144.000
  21520378.294   -16534793.02349 -12517215.53847  21520378.042    21520385.137
       237.000         201.000
  22894890.708   -17325761.12349 -13476351.39646  22894890.127    22894898.658
       223.000         174.000
  24082072.288    -5341241.79549  -4135843.71745  24082071.349    24082080.209
       209.000         148.000
  24344450.731    -3673331.81649  -2832721.62645  24344450.038    24344459.064
       210.000         150.000
  20871964.585   -25663681.10449 -19662363.01947  20871965.029    20871971.117
       241.000         207.000
 03  1 14  1 28  0.0000000  0  9G 6G10G17G26G23G 5G29G24G30
  20939476.632   -24616935.84849 -18653565.34247  20939476.522    20939483.112
       242.000         211.000
  21315748.048   -20208036.31649 -15729533.77947  21315747.535    21315754.194
       238.000         200.000
  22592553.347   -13841412.59949 -10752481.35346  22592552.851    22592560.978
       228.000         184.000
  24264268.681    -4293415.83349  -3301313.14445  24264268.446    24264277.596
       209.000         142.000
  21506934.691   -16605439.41349 -12572264.60847  21506934.149    21506941.519
       238.000         201.000
  22914088.045   -17224878.56549 -13397741.64046  22914086.828    22914096.168
       222.000         173.000
  24068917.056    -5410372.68049  -4189711.79745  24068916.846    24068925.007
       209.000         149.000
  24359354.165    -3595013.82249  -2771694.64545  24359353.770    24359363.139
       210.000         151.000
  20882007.451   -25610905.38349 -19621239.08047  20882007.777    20882013.988
       241.000         207.000
 03  1 14  1 28 30.0000000  0  9G 6G10G17G26G23G 5G29G24G30
  20930384.507   -24664714.87649 -18690795.70447  20930384.326    20930390.931
       242.000         211.000
  21326344.750   -20152350.30249 -15686142.06147  21326344.029    21326350.809
       238.000         200.000
  22581648.672   -13898716.68649 -10797133.80746  22581648.200    22581656.160
       228.000         184.000
  24247104.968    -4383611.05249  -3371594.96345  24247103.649    24247112.639
       204.000         143.000
  21493570.257   -16675669.71749 -12626989.46047  21493569.911    21493577.129
       238.000         202.000
  22933317.510   -17123827.26749 -13319000.41046  22933317.075    22933325.451
       221.000         173.000
  24055791.069    -5479349.35749  -4243459.68645  24055791.212    24055799.407
       212.000         149.000
  24374249.391    -3516738.91849  -2710701.21345  24374249.768    24374258.150
       212.000         151.000
  20892147.004   -25557621.73249 -19579719.35447  20892147.537    20892153.489
       241.000         207.000
 03  1 14  1 29  0.0000000  0  9G 6G10G17G26G23G 5G29G24G30
  20921337.389   -24712257.74049 -18727842.04347  20921337.429    20921343.809
       242.000         211.000
  21337039.067   -20096151.16749 -15642350.50747  21337038.346    21337045.281
       238.000         200.000
  22570781.022   -13955826.21949 -10841634.66946  22570780.514    22570788.676
       228.000         184.000
  24229942.407    -4473799.01549  -3441871.02145  24229942.240    24229951.472
       209.000         144.000
  21480285.428   -16745481.72849 -12681388.37247  21480284.968    21480292.437
       237.000         202.000
  22952578.572   -17022609.66749 -13240129.59946  22952578.201    22952586.737
       222.000         172.000
  24042695.192    -5548168.48449  -4297084.85445  24042693.969    24042702.706
       212.000         149.000
  24389136.351    -3438507.35249  -2649741.57645  24389136.472    24389144.840
       211.000         150.000
  20902382.879   -25503831.91649 -19537805.21447  20902383.351    20902389.507
       241.000         207.000
 03  1 14  1 29 30.0000000  0 10G 6G15G10G17G26G23G 5G29G24G30
  20912335.474   -24759563.01349 -18764703.23947  20912335.322    20912341.836
       243.000         211.000
  24767857.896    -4510447.87449  -3502658.41345  24767856.520    24767868.995
       210.000         145.000
  21347830.580   -20039441.23249 -15598160.92347  21347829.885    21347836.757
       238.000         200.000
  22559950.274   -14012741.87649 -10885984.45346  22559949.582    22559957.511
       227.000         184.000
  24212782.197    -4563976.31049  -3512138.91345  24212782.060    24212792.115
       206.000         145.000
  21467080.535   -16814873.79949 -12735460.05247  21467080.040    21467087.224
       238.000         202.000
  22971870.805   -16921228.58749 -13161131.38446  22971870.685    22971879.562
       222.000         172.000
  24029629.721    -5616827.44849  -4350585.19145  24029628.714    24029637.969
       208.000         149.000
  24404014.852    -3360320.02449  -2588816.40745  24404015.202    24404023.759
       211.000         150.000
  20912714.630   -25449538.05049 -19495498.30647  20912715.159    20912721.142
       241.000         207.000
 03  1 14  1 30  0.0000000  0 10G 6G15G10G17G26G23G 5G29G24G30
  20903379.026   -24806629.31649 -18801378.23547  20903378.962    20903385.418
       243.000         211.000
  24752061.891    -4593455.15649  -3567339.14245  24752060.965    24752073.313
       210.000         146.000
  21358718.803   -19982223.18349 -15553575.40947  21358717.897    21358725.614
       238.000         200.000
  22549156.361   -14069463.89549 -10930183.35046  22549155.345    22549164.131
       228.000         184.000
  24195624.354    -4654140.20149  -3582396.23645  24195623.319    24195633.062
       203.000         142.000
  21453955.835   -16883844.23549 -12789203.19347  21453955.156    21453962.402
       239.000         203.000
  22991193.506   -16819687.10049 -13082008.19946  22991192.698    22991201.554
       222.000         172.000
  24016595.313    -5685323.40049  -4403958.52145  24016594.787    24016602.953
       212.000         150.000
  24418884.945    -3282177.46049  -2527926.10245  24418884.698    24418893.856
       211.000         149.000
  20923141.892   -25394742.44049 -19452800.43447  20923142.300    20923148.420
       241.000         207.000
 03  1 14  1 30 30.0000000  0 10G 6G15G10G17G26G23G 5G29G24G30
  20894468.643   -24853453.60149 -18837864.64147  20894468.590    20894474.989
       243.000         211.000
  24736288.544    -4676343.53849  -3631927.19945  24736287.654    24736299.731
       211.000         147.000
  21369703.542   -19924497.88849 -15508594.64047  21369702.713    21369709.766
       237.000         199.000
  22538399.427   -14125991.52449 -10974230.77346  22538399.151    22538407.433
       228.000         184.000
  24178470.153    -4744285.83949  -3652639.47245  24178471.592    24178478.439
       212.000         143.000
  21440911.969   -16952389.94449 -12842615.37647  21440911.696    21440918.659
       238.000         203.000
  23010546.495   -16717986.65049 -13002761.13546  23010545.651    23010555.040
       220.000         171.000
  24003592.729    -5753652.04849  -4457201.48345  24003591.859    24003600.680
       207.000         149.000
  24433746.592    -3204079.07749  -2467070.24545  24433745.830    24433755.178
       212.000         148.000
  20933664.478   -25339445.97849 -19409712.29047  20933664.835    20933671.034
       241.000         207.000
 03  1 14  1 31  0.0000000  0 10G 6G15G10G17G26G23G 5G29G24G30
  20885604.222   -24900036.26649 -18874162.77447  20885604.087    20885610.669
       243.000         211.000
  24720537.488    -4759114.88549  -3696424.07345  24720536.499    24720548.856
       209.000         147.000
  21380783.973   -19866269.71449 -15463222.01547  21380783.282    21380790.296
       238.000         199.000
  22527679.071   -14182326.91449 -11018128.40846  22527678.693    22527686.702
       227.000         184.000
  24161319.540    -4834412.46749  -3722867.79545  24161317.918    24161328.501
       203.000         143.000
  21427948.916   -17020511.26649 -12895696.86947  21427948.790    21427955.622
       239.000         203.000
  23029928.772   -16616131.97749 -12923393.91346  23029929.092    23029936.801
       223.000         171.000
  23990622.148    -5821812.32349  -4510313.25145  23990621.159    23990630.897
       208.000         150.000
  24448599.347    -3126027.43249  -2406250.79945  24448598.927    24448607.451
       210.000         147.000
  20944281.581   -25283652.67549 -19366236.99647  20944281.865    20944287.998
       241.000         206.000
 03  1 14  1 31 30.0000000  0 10G 6G15G10G17G26G23G 5G29G24G30
  20876786.448   -24946373.74349 -18910269.85047  20876786.292    20876792.875
       244.000         211.000
  24704809.120    -4841767.23649  -3760828.23245  24704807.708    24704820.273
       209.000         146.000
  21391959.959   -19807539.27849 -15417458.01847  21391958.945    21391966.363
       237.000         199.000
  22516995.680   -14238468.11149 -11061874.71846  22516994.959    22517003.112
       228.000         184.000
  24144173.413    -4924514.67149  -3793077.12445  24144172.637    24144182.481
       203.000         142.000
  21415067.253   -17088204.58249 -12948444.84747  21415066.588    21415074.100
       239.000         204.000
  23049340.320   -16514123.85449 -12843907.09146  23049339.454    23049348.439
       220.000         171.000
  23977684.419    -5889799.77549  -4563290.34245  23977684.604    23977690.526
       211.000         149.000
  24463443.595    -3048020.80949  -2345466.42345  24463442.551    24463452.220
       210.000         147.000
  20954993.168   -25227362.98749 -19322374.90447  20954993.630    20954999.966
       241.000         206.000
 03  1 14  1 32  0.0000000  0 10G 6G15G10G17G26G23G 5G29G24G30
  20868015.495   -24992465.16749 -18946185.19647  20868015.294    20868021.923
       244.000         211.000
  24689103.223    -4924301.06349  -3825140.00145  24689101.461    24689114.358
       208.000         147.000
  21403230.834   -19748310.19249 -15371305.46447  21403230.362    21403237.252
       237.000         198.000
  22506348.943   -14294416.73049 -11105470.96346  22506348.669    22506356.652
       227.000         184.000
  24127032.426    -5014590.20549  -3863265.66445  24127033.053    24127041.638
       209.000         145.000
  21402267.210   -17155468.95849 -13000858.58547  21402266.799    21402274.041
       239.000         204.000
  23068780.360   -16411965.92949 -12764303.55346  23068780.546    23068788.043
       221.000         171.000
  23964780.038    -5957612.07849  -4616130.94545  23964779.438    23964787.709
       210.000         150.000
  24478278.858    -2970060.86849  -2284718.41045  24478277.961    24478287.143
       210.000         146.000
  20965798.672   -25170579.71249 -19278128.19947  20965798.989    20965805.081
       241.000         206.000
 03  1 14  1 32 30.0000000  0 10G 6G15G10G17G26G23G 5G29G24G30
  20859291.748   -25038308.60549 -18981907.31047  20859291.813    20859298.389
       244.000         211.000
  24673420.039    -5006715.66049  -3889358.92045  24673419.227    24673430.690
       208.000         146.000
  21414596.290   -19688584.24349 -15324765.74447  21414595.434    21414602.602
       236.000         198.000
  22495738.952   -14350172.23949 -11148916.74346  22495738.894    22495746.844
       228.000         184.000
  24109897.213    -5104635.41549  -3933430.65745  24109896.166    24109905.959
       207.000         144.000
  21389549.178   -17222302.37449 -13052936.51247  21389548.764    21389555.961
       239.000         204.000
  23088248.440   -16309660.65849 -12684585.20146  23088248.198    23088256.817
       220.000         171.000
  23951909.657    -6025246.00549  -4668832.55945  23951909.438    23951917.646
       209.000         150.000
  24493105.299    -2892147.52049  -2224006.72745  24493105.276    24493113.653
       211.000         146.000
  20976697.749   -25113304.70549 -19233498.33347  20976698.274    20976704.414
       241.000         206.000
 03  1 14  1 33  0.0000000  0 10G 6G15G10G17G26G23G 5G29G24G30
  20850615.389   -25083902.99749 -19017435.35947  20850615.249    20850621.695
       244.000         211.000
  24657759.388    -5089011.78349  -3953485.48045  24657758.879    24657770.593
       209.000         146.000
  21426055.638   -19628364.72349 -15277841.42447  21426055.061    21426062.064
       236.000         198.000
  22485165.433   -14405736.07949 -11192213.16446  22485164.674    22485172.962
       228.000         185.000
  24092768.449    -5194647.67849  -4003569.91345  24092769.143    24092778.302
       208.000         146.000
  21376913.361   -17288703.84149 -13104677.85447  21376912.721    21376920.069
       239.000         204.000
  23107743.928   -16207211.43149 -12604754.68146  23107744.032    23107752.758
       223.000         171.000
  23939073.506    -6092699.46949  -4721393.55545  23939073.344    23939081.044
       209.000         150.000
  24507922.570    -2814282.17049  -2163332.43945  24507922.009    24507931.118
       211.000         146.000
  20987689.809   -25055540.96949 -19188487.63347  20987690.194    20987696.356
       240.000         206.000
 03  1 14  1 33 30.0000000  0 10G 6G15G10G17G26G23G 5G29G24G30
  20841986.978   -25129245.29349 -19052766.96747  20841986.713    20841993.264
       244.000         211.000
  24642121.651    -5171187.50649  -4017518.22145  24642121.674    24642132.129
       210.000         146.000
  21437608.742   -19567652.70249 -15230533.33947  21437608.313    21437615.150
       236.000         198.000
  22474628.715   -14461106.74249 -11235359.07246  22474628.109    22474636.196
       228.000         185.000
  24075646.614    -5284622.31649  -4073679.85445  24075646.497    24075655.601
       204.000         144.000
  21364360.339   -17354670.17949 -13156080.13747  21364359.811    21364366.925
       239.000         204.000
  23127266.511   -16104619.64149 -12524813.06346  23127265.737    23127273.815
       220.000         171.000
  23926272.542    -6159968.13549  -4773810.54145  23926272.236    23926281.138
       211.000         150.000
  24522730.863    -2736463.79149  -2102694.76045  24522730.527    24522738.962
       209.000         145.000
  20998774.756   -24997289.20049 -19143096.64947  20998775.200    20998781.470
       240.000         205.000
 03  1 14  1 34  0.0000000  0 10G 6G15G10G17G26G23G 5G29G24G30
  20833406.668   -25174334.87949 -19087901.66047  20833406.533    20833412.925
       244.000         211.000
  24626506.595    -5253244.03149  -4081458.08845  24626506.324    24626517.226
       211.000         147.000
  21449254.837   -19506451.82349 -15182844.33147  21449254.140    21449261.009
       236.000         198.000
  22464128.509   -14516285.47449 -11278355.41146  22464127.938    22464135.606
       229.000         185.000
  24058532.489    -5374557.24849  -4143758.86945  24058532.844    24058541.554
       207.000         146.000
  21351890.223   -17420200.76549 -13207142.87147  21351889.614    21351896.805
       239.000         205.000
  23146815.538   -16001889.10149 -12444763.33046  23146815.623    23146823.926
       222.000         170.000
  23913507.199    -6227050.12649  -4826082.09445  23913507.343    23913514.458
       210.000         150.000
  24537529.808    -2658694.25749  -2042095.14645  24537529.182    24537538.692
       210.000         145.000
  21009951.945   -24938552.70849 -19097327.95747  21009952.303    21009958.507
       240.000         205.000
 03  1 14  1 34 30.0000000  0 10G 6G15G10G17G26G23G 5G29G24G30
  20824874.880   -25219169.47949 -19122837.66347  20824874.799    20824881.299
       244.000         211.000
  24610914.406    -5335180.49649  -4145304.42345  24610913.579    24610926.049
       208.000         147.000
  21460993.658   -19444763.77049 -15134775.70147  21460992.934    21460999.716
       236.000         197.000
  22453664.812   -14571272.30249 -11321202.22846  22453664.012    22453672.274
       229.000         185.000
  24041426.555    -5464448.54649  -4213803.88945  24041425.398    24041435.339
       204.000         145.000
  21339503.431   -17485293.38349 -13257864.34047  21339503.029    21339510.269
       239.000         205.000
  23166390.497   -15899022.05849 -12364607.24746  23166391.081    23166398.925
       220.000         170.000
  23900778.044    -6293941.76649  -4878205.29745  23900777.316    23900785.654
       211.000         151.000
  24552319.608    -2580973.41649  -1981533.46745  24552318.903    24552328.665
       210.000         146.000
  21021221.003   -24879333.28649 -19051182.95747  21021221.381    21021227.446
       240.000         205.000
 03  1 14  1 35  0.0000000  0 10G 6G15G10G17G26G23G 5G29G24G30
  20816391.782   -25263748.11749 -19157574.21447  20816391.812    20816397.903
       244.000         211.000
  24595344.932    -5416997.61749  -4209057.74445  24595343.498    24595355.488
       209.000         147.000
  21472824.598   -19382591.72549 -15086329.93747  21472823.883    21472831.138
       236.000         197.000
  22443237.448   -14626067.97949 -11363900.08546  22443236.840    22443244.991
       229.000         186.000
  24024329.423    -5554293.82049  -4283813.00845  24024329.073    24024338.160
       206.000         143.000
  21327200.165   -17549947.20449 -13308243.88447  21327199.817    21327206.957
       239.000         205.000
  23185990.814   -15796022.01549 -12284347.51846  23185990.463    23185999.289
       220.000         169.000
  23888085.328    -6360641.03849  -4930178.58245  23888085.962    23888092.685
       214.000         151.000
  24567100.048    -2503302.22849  -1921010.48145  24567101.070    24567109.052
       211.000         147.000
  21032581.418   -24819634.01649 -19004664.05047  21032581.867    21032588.280
       240.000         205.000
 03  1 14  1 35 30.0000000  0 10G 6G15G10G17G26G23G 5G29G24G30
  20807957.916   -25308068.16149 -19192109.26447  20807957.811    20807964.161
       244.000         212.000
  24579798.449    -5498694.08449  -4272717.06045  24579797.580    24579808.630
       211.000         148.000
  21484747.296   -19319937.43249 -15037508.39247  21484746.569    21484753.429
       236.000         197.000
  22432846.572   -14680672.18849 -11406448.75246  22432846.184    22432854.050
       230.000         186.000
  24007242.035    -5644088.71149  -4353782.95945  24007242.432    24007250.800
       202.000         146.000
  21314980.883   -17614159.68649 -13358279.52847  21314980.306    21314987.467
       239.000         205.000
  23205616.005   -15692890.79349 -12203985.57346  23205615.417    23205623.384
       220.000         169.000
  23875430.154    -6427144.19649  -4981999.08545  23875429.804    23875437.890
       211.000         151.000
  24581871.054    -2425680.25649  -1860525.85345  24581870.825    24581880.076
       209.000         147.000
  21044032.914   -24759456.00949 -18957772.09747  21044033.249    21044039.766
       240.000         205.000
 03  1 14  1 36  0.0000000  0 10G 6G15G10G17G26G23G 5G29G24G30
  20799573.735   -25352127.18149 -19226440.92347  20799573.545    20799579.787
       244.000         212.000
  24564274.978    -5580269.27449  -4336281.87645  24564274.027    24564284.967
       209.000         147.000
  21496761.394   -19256802.72749 -14988312.50347  21496760.782    21496768.072
       237.000         197.000
  22422492.301   -14735084.30249 -11448847.73746  22422492.132    22422499.652
       230.000         186.000
  23990164.565    -5733829.45349  -4423710.58245  23990164.275    23990173.375
       202.000         142.000
  21302846.008   -17677928.62249 -13407969.55247  21302845.487    21302852.743
       240.000         205.000
  23225265.817   -15589630.60449 -12123523.12146  23225264.924    23225274.541
       219.000         168.000
  23862812.820    -6493447.65049  -5033663.96845  23862812.888    23862820.727
       214.000         151.000
  24596632.707    -2348107.48649  -1800079.56345  24596633.355    24596641.538
       212.000         146.000
  21055575.191   -24698801.02349 -18910508.47547  21055575.618    21055581.726
       240.000         205.000
 03  1 14  1 36 30.0000000  0 10G 6G15G10G17G26G23G 5G29G24G30
  20791239.267   -25395924.81749 -19260568.90447  20791239.165    20791245.499
       244.000         212.000
  24548774.422    -5661724.17949  -4399752.97445  24548773.738    24548785.105
       209.000         147.000
  21508866.236   -19193191.40849 -14938745.22547  21508865.322    21508872.814
       236.000         197.000
  22412174.193   -14789306.00149 -11491098.34746  22412173.815    22412181.156
       230.000         187.000
  23973098.162    -5823513.71049  -4493594.31745  23973098.140    23973107.347
       200.000         143.000
  21290795.615   -17741253.47049 -13457313.53447  21290795.029    21290802.259
       239.000         206.000
  23244939.417   -15486245.15849 -12042963.07946  23244939.133    23244948.143
       219.000         169.000
  23850233.959    -6559549.63349  -5085171.85945  23850233.807    23850241.792
       214.000         152.000
  24611384.716    -2270585.03349  -1739672.46145  24611383.774    24611392.764
       208.000         146.000
  21067207.538   -24637672.56249 -18862875.91047  21067207.925    21067214.209
       240.000         204.000
 03  1 14  1 37  0.0000000  0 10G 6G15G10G17G26G23G 5G29G24G30
  20782955.008   -25439458.79049 -19294491.43547  20782954.970    20782961.212
       244.000         212.000
  24533296.822    -5743058.16249  -4463129.86045  24533296.262    24533307.610
       210.000         148.000
  21521061.348   -19129105.47649 -14888808.12247  21521060.880    21521067.718
       236.000         197.000
  22401892.371   -14843337.15149 -11533200.47446  22401892.223    22401899.615
       230.000         187.000
  23956043.169    -5913137.85349  -4563431.08845  23956042.707    23956052.324
       202.000         143.000
  21278830.120   -17804132.27649 -13506309.95047  21278829.803    21278836.773
       240.000         206.000
  23264636.466   -15382736.80249 -11962307.24846  23264636.247    23264645.029
       219.000         168.000
  23837694.047    -6625446.73849  -5136520.12745  23837693.938    23837701.512
       212.000         152.000
  24626127.073    -2193113.36349  -1679304.95345  24626127.687    24626135.466
       211.000         145.000
  21078929.654   -24576072.40849 -18814875.79547  21078930.170    21078936.196
       240.000         204.000
 03  1 14  1 37 30.0000000  0 10G 6G15G10G17G26G23G 5G29G24G30
  20774721.145   -25482727.79649 -19328207.49447  20774721.140    20774727.262
       244.000         212.000
  24517842.311    -5824271.31949  -4526412.59245  24517841.661    24517852.783
       209.000         148.000
  21533346.269   -19064547.92049 -14838503.51547  21533345.655    21533352.413
       236.000         197.000
  22391646.755   -14897178.00249 -11575154.31146  22391645.946    22391654.391
       231.000         187.000
  23939000.407    -6002698.85649  -4633218.78545  23939000.825    23939008.832
       200.000         143.000
  21266949.780   -17866563.70949 -13554957.76147  21266949.447    21266956.557
       240.000         206.000
  23284356.304   -15279108.57749 -11881558.02046  23284355.936    23284365.091
       218.000         168.000
  23825193.592    -6691136.55749  -5187706.86445  23825193.552    23825201.196
       212.000         152.000
  24640859.677    -2115693.17849  -1618977.54545  24640859.158    24640867.856
       208.000         144.000
  21090741.014   -24514003.31249 -18766510.26747  21090741.513    21090747.565
       240.000         204.000
 03  1 14  1 38  0.0000000  0 10G 6G15G10G17G26G23G 5G29G24G30
  20766538.217   -25525729.25349 -19361715.07947  20766537.945    20766544.396
       244.000         212.000
  24502410.989    -5905362.59349  -4589600.35345  24502409.575    24502421.417
       209.000         147.000
  21545720.577   -18999520.33649 -14787832.65847  21545720.218    21545726.788
       236.000         197.000
  22381437.370   -14950828.37349 -11616959.73647  22381436.604    22381444.655
       230.000         188.000
  23921969.939    -6092192.52549  -4702953.91545  23921971.264    23921979.395
       209.000         145.000
  21255154.971   -17928545.42849 -13603255.14947  21255154.383    21255161.603
       240.000         206.000
  23304098.567   -15175362.45149 -11800716.92746  23304098.019    23304107.504
       216.000         167.000
  23812733.364    -6756615.17149  -5238729.00545  23812733.008    23812740.763
       213.000         152.000
  24655582.529    -2038324.30149  -1558690.12945  24655582.925    24655591.509
       207.000         142.000
  21102641.326   -24451466.76649 -18717780.49747  21102641.835    21102647.760
       240.000         204.000
 03  1 14  1 38 30.0000000  0 10G 6G15G10G17G26G23G 5G29G24G30
  20758406.352   -25568462.30849 -19395013.51347  20758406.164    20758412.511
       244.000         212.000
  24487002.616    -5986332.80249  -4652693.77345  24487001.232    24487013.217
       210.000         147.000
  21558183.701   -18934026.20549 -14736798.25347  21558182.921    21558190.130
       236.000         197.000
  22371264.144   -15004288.70249 -11658617.06147  22371263.537    22371270.805
       231.000         188.000
  23904953.192    -6181616.26949  -4772634.63545  23904952.346    23904960.406
       202.000         141.000
  21243445.890   -17990076.83049 -13651201.63747  21243445.419    21243452.491
       239.000         207.000
  23323862.613   -15071502.07449 -11719786.79146  23323862.256    23323870.996
       217.000         167.000
  23800313.714    -6821880.41749  -5289584.91945  23800313.776    23800321.505
       213.000         152.000
  24670295.348    -1961007.55249  -1498443.33245  24670295.510    24670303.684
       206.000         140.000
  21114629.972   -24388465.89949 -18668688.91647  21114630.386    21114636.414
       240.000         204.000
 03  1 14  1 39  0.0000000  0 10G 6G15G10G17G26G23G 5G29G24G30
  20750326.163   -25610923.77349 -19428100.32447  20750326.188    20750332.154
       244.000         212.000
  24471617.691    -6067180.18149  -4715691.50045  24471616.452    24471628.038
       209.000         147.000
  21570735.386   -18868066.53149 -14685401.09447  21570734.691    21570741.979
       236.000         197.000
  22361127.130   -15057558.67649 -11700126.06047  22361126.354    22361135.016
       231.000         188.000
  23887950.421    -6270965.41049  -4842257.19745  23887950.636    23887959.655
       206.000         145.000
  21231823.094   -18051154.86649 -13698794.85247  21231822.615    21231829.615
       240.000         207.000
  23343648.101   -14967528.60049 -11638768.54046  23343647.119    23343656.200
       217.000         166.000
  23787935.373    -6886928.14249  -5340271.32145  23787935.675    23787943.427
       213.000         153.000
  24684998.395    -1883741.80049  -1438236.27745  24684998.531    24685006.789
       207.000         139.000
  21126706.820   -24325001.69349 -18619236.28747  21126707.015    21126713.646
       239.000         203.000
 03  1 14  1 39 30.0000000  0 10G 6G15G10G17G26G23G 5G29G24G30
  20742297.631   -25653113.69149 -19460975.53547  20742297.416    20742303.656
       244.000         212.000
  24456255.866    -6147906.50649  -4778594.89745  24456254.547    24456266.177
       211.000         147.000
  21583374.823   -18801645.78949 -14633644.66147  21583374.061    21583381.060
       236.000         197.000
  22351026.019   -15110640.05849 -11741488.11247  22351025.327    22351033.355
       230.000         188.000
  23870962.353    -6360238.38849  -4911820.41445  23870962.776    23870970.916
       205.000         145.000
  21220286.508   -18111779.88449 -13746035.07347  21220286.182    21220293.083
       240.000         207.000
  23363454.261   -14863446.51349 -11557665.66246  23363454.107    23363462.969
       219.000         166.000
  23775598.712    -6951757.23149  -5390787.38445  23775598.825    23775606.042
       214.000         153.000
  24699691.462    -1806529.80049  -1378071.10745  24699691.449    24699700.258
       205.000         139.000
  21138871.038   -24261078.30749 -18569425.86147  21138871.424    21138877.430
       239.000         203.000
 03  1 14  1 40  0.0000000  0 10G 6G15G10G17G26G23G 5G29G24G30
  20734321.328   -25695029.39949 -19493637.07548  20734321.318    20734327.392
       244.000         213.000
  24440917.258    -6228510.38249  -4841402.89345  24440916.715    24440927.348
       210.000         148.000
  21596101.692   -18734765.62749 -14581530.23647  21596101.060    21596108.046
       237.000         196.000
  22340961.000   -15163531.84649 -11782702.42747  22340960.155    22340968.553
       231.000         189.000
  23853989.460    -6449430.64549  -4981320.72645  23853989.787    23853997.373
       206.000         143.000
  21208836.626   -18171949.22449 -13792920.21447  21208836.358    21208843.173
       240.000         207.000
  23383280.784   -14759257.68749 -11476479.60146  23383280.492    23383288.986
       219.000         166.000
  23763304.379    -7016363.65349  -5441129.93045  23763303.467    23763311.653
       213.000         152.000
  24714374.470    -1729370.20749  -1317946.79245  24714374.085    24714382.952
       204.000         138.000
  21151122.362   -24196697.11049 -18519258.69447  21151122.712    21151128.906
       240.000         203.000
 03  1 14  1 40 30.0000000  0 10G 6G15G10G17G26G23G 5G29G24G30
  20726397.150   -25736670.96049 -19526084.99448  20726396.934    20726403.296
       243.000         213.000
  24425601.653    -6308993.45749  -4904116.78445  24425599.299    24425612.608
       209.000         147.000
  21608915.169   -18667430.37449 -14529061.19747  21608914.580    21608921.566
       237.000         196.000
  22330931.585   -15216236.49149 -11823770.91347  22330931.108    22330938.798
       232.000         189.000
  23837032.184    -6538540.71649  -5050756.99045  23837031.816    23837040.617
       203.000         144.000
  21197473.377   -18231663.18749 -13839450.51747  21197472.935    21197479.903
       241.000         207.000
  23403126.728   -14654966.53649 -11395213.82146  23403126.453    23403134.374
       218.000         165.000
  23751052.756    -7080746.11649  -5491297.95545  23751052.628    23751060.474
       214.000         153.000
  24729046.992    -1652265.62249  -1257865.32645  24729048.266    24729056.838
       205.000         138.000
  21163460.038   -24131862.36349 -18468738.11347  21163460.551    21163466.630
       239.000         203.000
 03  1 14  1 41  0.0000000  0 10G 6G15G10G17G26G23G 5G29G24G30
  20718525.847   -25778034.75449 -19558316.47148  20718525.823    20718532.036
       244.000         213.000
  24410309.485    -6389353.74249  -4966734.97845  24410308.745    24410319.388
       208.000         146.000
  21621815.103   -18599640.74149 -14476238.09347  21621814.140    21621821.398
       236.000         196.000
  22320938.164   -15268752.09749 -11864692.10247  22320937.586    22320945.550
       231.000         189.000
  23820091.450    -6627563.33049  -5120125.09445  23820092.673    23820100.442
       207.000         145.000
  21186197.418   -18290918.64949 -13885623.54747  21186196.871    21186204.040
       240.000         207.000
  23422992.041   -14550573.93349 -11313868.97246  23422991.420    23423000.710
       217.000         165.000
  23738844.520    -7144900.23049  -5541288.06245  23738843.790    23738852.213
       215.000         152.000
  24743709.424    -1575214.27249  -1197825.33845  24743709.257    24743718.137
       203.000         138.000
  21175883.860   -24066574.56549 -18417864.50647  21175884.220    21175890.325
       239.000         202.000
 03  1 14  1 41 30.0000000  0 10G 6G15G10G17G26G23G 5G29G24G30
  20710707.446   -25819120.31649 -19590331.13848  20710707.266    20710713.513
       243.000         213.000
  24395040.367    -6469592.42049  -5029258.42845  24395039.476    24395049.966
       206.000         146.000
  21634800.749   -18531400.74849 -14423064.06047  21634800.040    21634807.082
       236.000         195.000
  22310980.328   -15321080.49549 -11905467.40947  22310979.920    22310987.965
       231.000         189.000
  23803167.983    -6716496.50549  -5189423.53745  23803167.350    23803177.136
       206.000         145.000
  21175008.716   -18349715.31949 -13931439.07547  21175008.227    21175015.326
       241.000         208.000
  23442875.836   -14446083.97049 -11232448.26446  23442875.335    23442883.811
       218.000         164.000
  23726680.125    -7208824.34349  -5591098.96645  23726679.322    23726687.237
       214.000         153.000
  24758361.308    -1498218.10549  -1137828.35845  24758361.523    24758370.679
       204.000         138.000
  21188393.264   -24000837.40649 -18366640.74647  21188393.570    21188399.895
       239.000         202.000
 03  1 14  1 42  0.0000000  0 10G 6G15G10G17G26G23G 5G29G24G30
  20702942.874   -25859923.27049 -19622125.59548  20702942.551    20702949.031
       243.000         213.000
  24379794.855    -6549706.68149  -5091684.93145  24379793.290    24379805.236
       207.000         146.000
  21647872.093   -18462710.37649 -14369539.08147  21647871.470    21647878.281
       235.000         195.000
  22301058.653   -15373219.04949 -11946094.78747  22301057.719    22301065.936
       232.000         190.000
  23786262.739    -6805334.13649  -5258647.51445  23786262.323    23786271.602
       206.000         149.000
  21163908.129   -18408049.19849 -13976893.98547  21163907.632    21163914.553
       241.000         208.000
  23462778.165   -14341496.75949 -11150951.77246  23462777.237    23462786.257
       217.000         164.000
  23714560.486    -7272512.81249  -5640726.22345  23714560.481    23714567.732
       213.000         153.000
  24773003.155    -1421274.72349  -1077872.49545  24773002.247    24773011.431
       204.000         139.000
  21200988.096   -23934650.94349 -18315066.88547  21200988.271    21200994.784
       239.000         202.000
 03  1 14  1 42 30.0000000  0 10G 6G15G10G17G26G23G 5G29G24G30
  20695232.137   -25900443.32049 -19653699.61348  20695231.829    20695238.228
       243.000         213.000
  24364572.780    -6629697.98249  -5154015.61645  24364572.078    24364582.344
       209.000         146.000
  21661028.371   -18393573.68249 -14315666.31847  21661027.862    21661034.643
       235.000         195.000
  22291172.655   -15425169.86149 -11986575.87147  22291172.153    22291179.668
       231.000         190.000
  23769375.857    -6894074.30049  -5327795.53345  23769376.063    23769384.496
       213.000         149.000
  21152895.575   -18465920.40349 -14021988.37347  21152895.025    21152902.152
       240.000         208.000
  23482698.179   -14236816.43149 -11069382.72746  23482698.626    23482707.290
       218.000         164.000
  23702486.042    -7335964.31849  -5690168.87245  23702486.040    23702493.192
       214.000         154.000
  24787634.564    -1344386.08649  -1017959.29145  24787635.057    24787643.916
       204.000         139.000
  21213667.739   -23868018.93349 -18263145.83847  21213668.083    21213674.597
       239.000         201.000
 03  1 14  1 43  0.0000000  0 10G 6G15G10G17G26G23G 5G29G24G30
  20687575.844   -25940677.39549 -19685050.78848  20687575.639    20687581.851
       243.000         213.000
  24349374.484    -6709564.71049  -5216249.24845  24349373.529    24349384.126
       208.000         146.000
  21674269.312   -18323992.04049 -14261446.84947  21674268.586    21674275.535
       234.000         194.000
  22281322.655   -15476931.82349 -12026909.79747  22281322.322    22281330.341
       231.000         190.000
  23752508.636    -6982712.34549  -5396864.01845  23752509.200    23752516.770
       208.000         149.000
  21141971.537   -18523326.27049 -14066720.16247  21141971.068    21141977.913
       241.000         208.000
  23502635.717   -14132044.30349 -10987742.16446  23502634.705    23502643.170
       217.000         163.000
  23690457.390    -7399174.45949  -5739423.40945  23690457.018    23690464.862
       214.000         154.000
  24802255.798    -1267550.89649   -958087.73945  24802256.565    24802264.405
       204.000         139.000
  21226431.912   -23800942.65049 -18210878.61047  21226432.557    21226438.235
       239.000         201.000
 03  1 14  1 43 30.0000000  0 11G 6G15G10G17G26G23G 5G18G29G24G30
  20679973.948   -25980625.34349 -19716179.01148  20679973.772    20679979.839
       243.000         213.000
  24334199.514    -6789308.80849  -5278387.33045  24334198.365    24334210.078
       209.000         146.000
  21687594.069   -18253969.76549 -14206884.02447  21687593.372    21687600.268
       235.000         194.000
  22271508.207   -15528506.82649 -12067098.04547  22271507.236    22271515.436
       232.000         190.000
  23735661.022    -7071246.47649  -5465851.50945  23735660.774    23735669.617
       212.000         150.000
  21131136.039   -18580266.89149 -14111089.42247  21131135.459    21131142.484
       240.000         208.000
  23522589.863   -14027184.66549 -10906033.38846  23522589.430    23522598.322
       217.000         164.000
  24760085.236    -2807853.15349  -2170016.25245  24760083.711    24760095.883
       200.000         133.000
  23678474.976    -7462142.19149  -5788489.07945  23678474.733    23678482.394
       215.000         154.000
  24816866.644    -1190770.97649   -898259.23245  24816866.801    24816876.100
       203.000         139.000
  21239279.871   -23733426.15349 -18158268.35247  21239280.102    21239286.550
       239.000         201.000
 03  1 14  1 44  0.0000000  0 11G 6G15G10G17G26G23G 5G18G29G24G30
  20672427.069   -26020284.22649 -19747081.98548  20672426.977    20672433.064
       243.000         213.000
  24319048.182    -6868928.43549  -5340428.42545  24319047.214    24319058.655
       207.000         147.000
  21701002.442   -18183508.19049 -14151978.88447  21701002.069    21701008.717
       235.000         193.000
  22261729.548   -15579893.89449 -12107139.84547  22261728.696    22261736.602
       232.000         190.000
  23718834.268    -7159671.95149  -5534754.31145  23718832.644    23718842.755
       205.000         151.000
  21120389.592   -18636739.69649 -14155094.14647  21120388.859    21120395.977
       241.000         208.000
  23542560.336   -13922239.09649 -10824257.66546  23542559.595    23542567.490
       216.000         163.000
  24739093.122    -2918165.08249  -2255972.98045  24739092.663    24739103.873
       210.000         141.000
  23666539.408    -7524863.26349  -5837362.53945  23666539.396    23666547.014
       213.000         155.000
  24831466.966    -1114045.69149   -838473.33145  24831465.854    24831475.776
       205.000         139.000
  21252211.354   -23665470.75449 -18105316.09947  21252212.010    21252218.041
       238.000         201.000
 03  1 14  1 44 30.0000000  0 11G 6G15G10G17G26G23G 5G18G29G24G30
  20664935.282   -26059653.48849 -19777759.28848  20664935.133    20664941.248
       243.000         213.000
  24303920.434    -6948424.61249  -5402373.31945  24303918.697    24303931.181
       209.000         147.000
  21714493.694   -18112611.12649 -14096734.40747  21714493.089    21714499.960
       235.000         193.000
  22251986.337   -15631094.66849 -12147036.48947  22251985.831    22251993.525
       233.000         190.000
  23702028.337    -7247986.35149  -5603570.60745  23702028.707    23702036.496
       212.000         150.000
  21109732.140   -18692744.56449 -14198734.25047  21109731.627    21109738.699
       241.000         208.000
  23562546.476   -13817211.43449 -10742417.97145  23562546.069    23562555.039
       217.000         162.000
  24718112.938    -3028416.30249  -2341882.66245  24718111.118    24718120.857
       209.000         139.000
  23654651.171    -7587336.11649  -5886042.59545  23654650.526    23654658.848
       215.000         155.000
  24846056.669    -1037376.19849   -778730.87545  24846055.734    24846065.163
       204.000         138.000
  21265225.680   -23597080.01849 -18052024.62347  21265226.030    21265232.238
       238.000         201.000
 03  1 14  1 45  0.0000000  0 11G 6G15G10G17G26G23G 5G18G29G24G30
  20657498.969   -26098731.36949 -19808209.53748  20657498.841    20657505.077
       243.000         213.000
  24288816.093    -7027797.41949  -5464222.09445  24288814.793    24288826.095
       208.000         146.000
  21728067.269   -18041281.40749 -14041152.79347  21728066.583    21728073.080
       234.000         193.000
  22242278.437   -15682109.57449 -12186788.28747  22242277.682    22242285.762
       231.000         190.000
  23685244.373    -7336186.58149  -5672297.88545  23685243.777    23685251.681
       210.000         149.000
  21099164.028   -18748280.13449 -14242008.66147  21099163.433    21099170.637
       241.000         208.000
  23582547.681   -13712104.39049 -10660516.42645  23582548.222    23582555.880
       219.000         162.000
  24697144.245    -3138604.95349  -2427743.60744  24697142.404    24697152.482
       210.000         129.000
  23642810.681    -7649557.85049  -5934526.95545  23642810.133    23642818.111
       214.000         155.000
  24860635.600     -960763.32249   -719032.54545  24860635.510    24860645.180
       200.000         137.000
  21278322.360   -23528256.54049 -17998395.94647  21278322.824    21278328.738
       238.000         200.000
 03  1 14  1 45 30.0000000  0 11G 6G15G10G17G26G23G 5G18G29G24G30
  20650118.718   -26137514.61149 -19838430.19848  20650118.430    20650124.786
       243.000         213.000
  24273735.590    -7107045.35549  -5525973.57845  24273735.053    24273745.594
       209.000         145.000
  21741723.001   -17969520.10549 -13985234.88547  21741722.249    21741729.193
       234.000         193.000
  22232606.213   -15732937.06749 -12226394.05747  22232605.777    22232613.173
       230.000         190.000
  23668482.986    -7424267.58749  -5740932.27945  23668482.770    23668490.831
       211.000         150.000
  21088685.730   -18803343.65949 -14284915.24447  21088685.327    21088692.219
       241.000         208.000
  23602563.806   -13606919.21349 -10578554.00245  23602563.355    23602572.049
       218.000         162.000
  24676188.585    -3248726.69549  -2513552.30545  24676188.021    24676198.240
       214.000         145.000
  23631018.856    -7711523.92549  -5982812.11945  23631018.756    23631025.888
       213.000         156.000
  24875204.048     -884205.27249   -659376.92045  24875204.404    24875212.757
       202.000         137.000
  21291501.182   -23459001.43849 -17944430.93747  21291501.580    21291507.741
       238.000         200.000
 03  1 14  1 46  0.0000000  0 11G 6G15G10G17G26G23G 5G18G29G24G30
  20642794.544   -26176003.24949 -19868421.29748  20642794.471    20642800.485
       243.000         214.000
  24258678.547    -7186170.07149  -5587629.03145  24258677.557    24258688.127
       207.000         147.000
  21755459.945   -17897331.73449 -13928984.19747  21755459.159    21755465.967
       234.000         192.000
  22222969.268   -15783579.28049 -12265855.45347  22222968.589    22222976.406
       231.000         190.000
  23651744.523    -7512227.76049  -5809472.54145  23651744.158    23651752.227
       208.000         148.000
  21078297.156   -18857935.66349 -14327454.41147  21078296.679    21078303.709
       241.000         208.000
  23622593.907   -13501660.31449 -10496534.10345  23622593.569    23622602.350
       218.000         161.000
  24655245.576    -3358781.64949  -2599308.97645  24655243.740    24655253.810
       205.000         145.000
  23619275.867    -7773233.49949  -6030897.40345  23619275.556    23619283.174
       214.000         155.000
  24889761.820     -807704.28849   -599765.80545  24889761.397    24889771.399
       201.000         138.000
  21304761.306   -23389318.94649 -17890132.89547  21304761.670    21304767.945
       238.000         200.000
 03  1 14  1 46 30.0000000  0 10G 6G15G10G17G26G23G 5G18G29G30
  20635527.050   -26214194.09049 -19898180.35148  20635526.842    20635533.035
       243.000         214.000
  24243645.321    -7265169.66749  -5649187.02745  24243644.134    24243655.199
       210.000         147.000
  21769277.959   -17824717.64149 -13872401.77847  21769276.983    21769284.027
       233.000         192.000
  22213367.757   -15834035.39849 -12305171.83547  22213367.106    22213374.671
       232.000         190.000
  23635030.130    -7600062.07149  -5877914.70245  23635030.489    23635038.169
       210.000         150.000
  21067998.882   -18912053.27849 -14369623.92647  21067998.388    21068005.219
       242.000         209.000
  23642637.845   -13396328.80349 -10414457.64045  23642638.622    23642646.185
       217.000         160.000
  24634315.760    -3468766.04349  -2685010.71145  24634313.849    24634321.747
       213.000         134.000
  23607582.507    -7834682.11549  -6078779.34445  23607582.930    23607590.170
       214.000         156.000
  21318102.568   -23319210.23949 -17835502.74147  21318102.735    21318109.041
       238.000         200.000
 03  1 14  1 47  0.0000000  0 10G 6G15G10G17G26G23G 5G18G29G30
  20628316.290   -26252086.57249 -19927706.90848  20628316.174    20628322.195
       243.000         214.000
  24228635.725    -7344045.18749  -5710648.29845  24228635.685    24228645.417
       212.000         149.000
  21783176.274   -17751681.24549 -13815490.28847  21783175.481    21783182.444
       234.000         192.000
  22203801.387   -15884306.56649 -12344344.10047  22203800.879    22203808.361
       231.000         191.000
  23618339.946    -7687768.39349  -5946257.12245  23618339.244    23618347.954
       211.000         149.000
  21057790.878   -18965696.44049 -14411423.73047  21057790.245    21057797.260
       242.000         209.000
  23662694.924   -13290928.44449 -10332327.54145  23662694.378    23662703.504
       216.000         160.000
  24613399.986    -3578678.58649  -2770656.55045  24613399.188    24613408.374
       210.000         145.000
  23595939.150    -7895868.14949  -6126456.68545  23595938.572    23595946.417
       214.000         155.000
  21331524.262   -23248678.90649 -17780543.26247  21331524.713    21331530.729
       238.000         200.000
 03  1 14  1 47 30.0000000  0 10G 6G15G10G17G26G23G 5G18G29G30
  20621162.674   -26289678.95749 -19956999.63048  20621162.526    20621168.667
       243.000         214.000
  24213649.763    -7422796.68649  -5772012.95145  24213648.790    24213659.290
       211.000         149.000
  21797154.430   -17678225.29149 -13758251.87247  21797153.724    21797160.931
       234.000         192.000
  22194270.150   -15934393.28849 -12383372.63147  22194269.757    22194277.733
       231.000         191.000
  23601674.941    -7775343.07249  -6014496.99445  23601674.471    23601683.172
       212.000         149.000
  21047673.384   -19018863.99649 -14452852.93647  21047672.969    21047679.814
       242.000         209.000
  23682764.548   -13185462.12449 -10250146.02545  23682763.324    23682772.476
       215.000         160.000
  24592497.795    -3688517.41049  -2856244.68945  24592494.870    24592505.882
       209.000         141.000
  23584346.300    -7956788.61449  -6173927.07945  23584346.137    23584352.755
       215.000         156.000
  21345025.824   -23177727.75849 -17725256.65747  21345026.196    21345032.339
       237.000         199.000
 03  1 14  1 48  0.0000000  0 10G 6G15G10G17G26G23G 5G18G29G30
  20614066.676   -26326968.45749 -19986056.33648  20614066.559    20614072.828
       243.000         214.000
  24198687.507    -7501423.08249  -5833280.14045  24198686.088    24198697.402
       210.000         148.000
  21811212.116   -17604351.79849 -13700688.10647  21811211.233    21811218.244
       233.000         192.000
  22184774.207   -15984294.65149 -12422256.73247  22184773.831    22184781.084
       231.000         191.000
  23585035.670    -7862781.76849  -6082630.85645  23585035.899    23585042.666
       212.000         150.000
  21037646.766   -19071553.83949 -14493909.90147  21037646.410    21037653.179
       242.000         209.000
  23702846.430   -13079931.48549 -10167914.40045  23702846.451    23702854.482
       214.000         159.000
  24571610.762    -3798279.13149  -2941773.06345  24571609.469    24571620.035
       211.000         143.000
  23572804.637    -8017439.94349  -6221187.75145  23572803.648    23572812.198
       215.000         156.000
  21358606.951   -23106358.35149 -17669644.13847  21358607.394    21358613.435
       238.000         199.000
 03  1 14  1 48 30.0000000  0 10G 6G15G10G17G26G23G 5G18G29G30
  20607028.629   -26363953.44949 -20014875.76248  20607028.631    20607034.563
       243.000         214.000
  24183749.088    -7579924.24749  -5894449.70845  24183747.280    24183759.746
       210.000         148.000
  21825348.645   -17530063.77049 -13642801.32147  21825347.886    21825354.726
       233.000         191.000
  22175313.316   -16034011.56949 -12460997.11447  22175312.950    22175320.213
       232.000         191.000
  23568423.072    -7950081.13849  -6150656.21645  23568422.690    23568430.503
       209.000         148.000
  21027711.313   -19123764.79149 -14534593.70247  21027710.779    21027717.549
       242.000         209.000
  23722939.987   -12974339.27849 -10085634.78345  23722940.760    23722948.471
       218.000         158.000
  24550738.278    -3907962.13749  -3027239.87045  24550736.659    24550746.725
       211.000         142.000
  23561314.792    -8077819.06249  -6268236.33145  23561315.870    23561321.954
       213.000         155.000
  21372267.164   -23034573.29549 -17613707.73247  21372267.557    21372273.387
       237.000         199.000
 03  1 14  1 49  0.0000000  0 10G 6G15G10G17G26G23G 5G18G29G30
  20600048.725   -26400632.88349 -20043457.09448  20600048.533    20600054.709
       243.000         214.000
  24168834.497    -7658300.81149  -5955522.22945  24168833.805    24168844.319
       210.000         150.000
  21839563.416   -17455364.61349 -13584594.17647  21839562.755    21839569.246
       233.000         191.000
  22165887.408   -16083544.75049 -12499594.31547  22165886.696    22165894.428
       231.000         192.000
  23551837.456    -8037238.34249  -6218570.76945  23551837.332    23551845.617
       211.000         149.000
  21017867.093   -19175496.35349 -14574903.95347  21017866.464    21017873.420
       242.000         209.000
  23743044.589   -12868688.96249 -10003309.92145  23743044.153    23743052.391
       214.000         157.000
  24529881.333    -4017564.44849  -3112643.80145  24529879.828    24529889.623
       217.000         144.000
  23549877.090    -8137924.01349  -6315071.25345  23549877.319    23549883.695
       214.000         155.000
  21386005.843   -22962375.99649 -17557450.10147  21386006.026    21386012.515
       237.000         198.000
 03  1 14  1 49 30.0000000  0 10G 6G15G10G17G26G23G 5G18G29G30
  20593127.253   -26437005.34949 -20071799.23148  20593127.015    20593133.042
       243.000         214.000
  24153943.535    -7736552.94449  -6016497.75145  24153942.843    24153953.262
       211.000         151.000
  21853855.858   -17380257.09049 -13526068.82347  21853855.211    21853862.030
       233.000         191.000
  22156496.447   -16132894.20949 -12538048.35747  22156495.727    22156503.572
       232.000         192.000
  23535279.591    -8124250.18049  -6286372.06945  23535279.045    23535287.712
       210.000         149.000
  21008114.238   -19226747.65649 -14614839.97747  21008113.706    21008120.505
       242.000         209.000
  23763159.812   -12762983.33649  -9920941.92945  23763160.047    23763167.981
       215.000         156.000
  24509040.241    -4127084.35049  -3197983.73945  24509037.866    24509047.696
       199.000         139.000
  23538492.113    -8197752.33949  -6361690.63845  23538492.161    23538498.252
       213.000         156.000
  21399822.429   -22889769.34849 -17500873.49847  21399822.801    21399828.913
       237.000         198.000
 03  1 14  1 50  0.0000000  0 10G 6G15G10G17G26G23G 5G18G29G30
  20586264.743   -26473067.88749 -20099899.86748  20586264.616    20586270.672
       244.000         214.000
  24139076.529    -7814679.26249  -6077375.24645  24139075.895    24139085.798
       211.000         151.000
  21868225.767   -17304742.68649 -13467226.42247  21868225.133    21868231.934
       233.000         191.000
  22147140.575   -16182059.33149 -12576358.76547  22147139.954    22147147.738
       232.000         192.000
  23518750.257    -8211111.89249  -6354056.38345  23518750.078    23518758.065
       212.000         150.000
  20998453.216   -19277516.36849 -14654399.95747  20998452.684    20998459.481
       243.000         209.000
  23783285.206   -12657223.85749  -9838531.98645  23783284.455    23783293.805
       215.000         155.000
  24488215.170    -4236518.44649  -3283256.54845  24488215.211    24488223.249
       216.000         148.000
  23527160.533    -8257299.71349  -6408091.10045  23527160.366    23527167.393
       216.000         156.000
  21413716.642   -22816754.75049 -17443979.01047  21413717.132    21413723.187
       237.000         198.000
 03  1 14  1 50 30.0000000  0 10G 6G15G10G17G26G23G 5G18G29G30
  20579461.215   -26508820.35649 -20127758.88848  20579461.126    20579467.126
       243.000         214.000
  24124233.176    -7892681.32149  -6138155.90745  24124231.942    24124242.991
       212.000         151.000
  21882672.233   -17228825.87049 -13408070.45747  21882671.382    21882678.812
       233.000         191.000
  22137819.296   -16231042.52549 -12614527.41247  22137818.447    22137826.119
       232.000         192.000
  23502249.847    -8297821.71849  -6421622.34745  23502249.771    23502257.835
       213.000         151.000
  20988883.990   -19327802.84049 -14693584.16447  20988883.428    20988890.472
       242.000         210.000
  23803419.961   -12551414.96149  -9756083.53045  23803419.925    23803427.564
       215.000         155.000
  24467406.918    -4345866.17449  -3368462.25045  24467405.178    24467412.939
       201.000         144.000
  23515882.656    -8316565.10349  -6454271.82245  23515882.563    23515889.682
       213.000         156.000
  21427687.686   -22743336.31449 -17386769.83447  21427687.850    21427694.221
       236.000         198.000
 03  1 14  1 51  0.0000000  0 10G 6G15G10G17G26G23G 5G18G29G30
  20572717.485   -26544258.71849 -20155373.15448  20572717.444    20572723.390
       243.000         214.000
  24109413.919    -7970556.66049  -6198837.83645  24109413.890    24109423.517
       215.000         152.000
  21897195.187   -17152507.28249 -13348601.41647  21897194.618    21897201.556
       233.000         191.000
  22128533.098   -16279841.61249 -12652552.60047  22128532.586    22128539.865
       232.000         192.000
  23485779.341    -8384373.95049  -6489065.50445  23485780.013    23485787.032
       213.000         150.000
  20979407.125   -19377603.90649 -14732390.13647  20979406.689    20979413.392
       243.000         210.000
  23823564.074   -12445556.91349  -9673596.78245  23823564.180    23823571.503
       215.000         154.000
  24446615.469    -4455123.12249  -3453597.13045  24446614.211    24446623.788
       206.000         141.000
  23504659.359    -8375543.46749  -6500228.91245  23504659.293    23504665.105
       214.000         156.000
  21441735.469   -22669514.71949 -17329246.51847  21441736.125    21441741.861
       237.000         197.000
 03  1 14  1 51 30.0000000  0 10G 6G15G10G17G26G23G 5G18G29G30
  20566033.527   -26579383.07749 -20182742.74648  20566033.331    20566039.548
       244.000         214.000
  24094618.326    -8048307.48249  -6259422.73945  24094617.453    24094627.770
       213.000         152.000
  21911793.706   -17075791.52949 -13288822.90047  21911793.341    21911799.712
       233.000         191.000
  22119281.435   -16328459.08449 -12690436.26647  22119280.900    22119288.242
       233.000         192.000
  23469339.257    -8470767.13149  -6556384.76045  23469339.155    23469347.799
       212.000         150.000
  20970022.431   -19426920.52249 -14770818.61347  20970021.896    20970028.606
       243.000         210.000
  23843716.637   -12339654.49849  -9591075.43545  23843716.079    23843726.279
       215.000         153.000
  24425841.804    -4564289.08349  -3538661.16145  24425839.643    24425849.760
       202.000         146.000
  23493490.824    -8434234.14749  -6545961.81445  23493490.105    23493498.276
       214.000         155.000
  21455859.081   -22595294.71649 -17271412.74747  21455859.498    21455865.549
       237.000         197.000
 03  1 14  1 52  0.0000000  0 10G 6G15G10G17G26G23G 5G18G29G30
  20559409.812   -26614190.75849 -20209865.57448  20559409.717    20559415.737
       243.000         214.000
  24079846.681    -8125932.57449  -6319909.66245  24079845.720    24079856.247
       212.000         152.000
  21926467.534   -16998680.27549 -13228736.20147  21926467.103    21926473.906
       233.000         191.000
  22110064.432   -16376894.43149 -12728178.01947  22110064.021    22110071.293
       233.000         193.000
  23452930.152    -8556996.66449  -6623576.45645  23452930.494    23452938.144
       213.000         151.000
  20960730.346   -19475750.48449 -14808867.88047  20960729.889    20960736.688
       243.000         210.000
  23863877.420   -12233709.08849  -9508520.60845  23863877.901    23863885.924
       216.000         153.000
  24405085.795    -4673360.68149  -3623651.63645  24405084.502    24405091.641
       212.000         140.000
  23482377.737    -8492633.11549  -6591467.41845  23482377.548    23482383.958
       214.000         155.000
  21470058.200   -22520677.71849 -17213269.63547  21470058.808    21470064.844
       237.000         197.000
 03  1 14  1 52 30.0000000  0 10G 6G15G10G17G26G23G 5G18G29G30
  20552846.619   -26648680.37749 -20236740.56048  20552846.510    20552852.427
       243.000         214.000
  24065098.808    -8203432.15549  -6380298.77245  24065098.479    24065107.886
       214.000         152.000
  21941216.033   -16921176.45449 -13168343.60847  21941215.333    21941222.360
       233.000         191.000
  22100882.082   -16425147.64849 -12765777.85347  22100881.768    22100888.759
       232.000         193.000
  23436552.869    -8643059.42849  -6690638.24545  23436552.832    23436559.795
       213.000         150.000
  20951530.992   -19524093.23249 -14846537.50247  20951530.427    20951537.082
       243.000         210.000
  23884045.790   -12127723.77549  -9425934.67345  23884045.779    23884054.048
       214.000         152.000
  24384348.053    -4782336.41349  -3708567.47845  24384346.058    24384356.083
       200.000         140.000
  23471320.687    -8550737.97749  -6636743.84845  23471320.183    23471327.243
       214.000         156.000
  21484332.270   -22445666.91649 -17154819.65847  21484332.886    21484338.767
       236.000         197.000
 03  1 14  1 53  0.0000000  0 10G 6G15G10G17G26G23G 5G18G29G30
  20546344.264   -26682850.24749 -20263366.38648  20546344.072    20546350.244
       244.000         214.000
  24050374.876    -8280806.20549  -6440590.05745  24050373.573    24050384.105
       213.000         152.000
  21956038.635   -16843283.25449 -13107647.59747  21956037.671    21956045.075
       233.000         190.000
  22091734.274   -16473219.40349 -12803236.28247  22091733.391    22091741.237
       232.000         193.000
  23420207.890    -8728951.93249  -6757567.36445  23420207.338    23420216.065
       213.000         151.000
  20942424.547   -19571947.72649 -14883826.66247  20942424.022    20942430.738
       243.000         210.000
  23904221.211   -12021701.18849  -9343319.69445  23904221.212    23904229.863
       216.000         153.000
  24363629.086    -4891213.93249  -3793406.70745  24363629.170    24363636.435
       208.000         145.000
  23460320.031    -8608546.11349  -6681789.06745  23460320.798    23460327.681
       215.000         157.000
  21498680.778   -22370264.96049 -17096064.88747  21498680.983    21498687.248
       236.000         196.000
 03  1 14  1 53 30.0000000  0 10G 6G15G10G17G26G23G 5G18G29G30
  20539903.226   -26716697.94649 -20289741.17648  20539903.241    20539909.031
       244.000         215.000
  24035675.062    -8358053.88549  -6500782.89145  24035673.939    24035685.242
       213.000         153.000
  21970934.897   -16765002.77949 -13046649.82147  21970934.389    21970940.897
       232.000         190.000
  22082621.017   -16521109.54049 -12840553.19747  22082620.360    22082628.020
       232.000         193.000
  23403896.241    -8814669.95249  -6824360.50145  23403896.170    23403903.619
       214.000         153.000
  20933411.322   -19619312.38249 -14920734.13347  20933410.971    20933417.624
       243.000         211.000
  23924403.414   -11915643.21349  -9260677.16345  23924402.461    23924411.948
       216.000         153.000
  24342929.214    -4999990.51449  -3878167.37845  24342928.321    24342937.415
       201.000         140.000
  23449376.599    -8666054.05449  -6726600.37145  23449376.095    23449383.171
       214.000         157.000
  21513103.323   -22294473.92049 -17037006.93547  21513103.488    21513109.880
       237.000         196.000
 03  1 14  1 54  0.0000000  0 10G 6G15G10G17G26G23G 5G18G29G30
  20533523.707   -26750222.43349 -20315864.11348  20533523.627    20533529.802
       244.000         215.000
  24020999.049    -8435175.92349  -6560877.81545  24020997.839    24021008.898
       211.000         153.000
  21985904.222   -16686338.44149 -12985352.92747  21985903.416    21985910.686
       232.000         189.000
  22073542.161   -16568818.82349 -12877729.18647  22073541.835    22073549.136
       232.000         192.000
  23387618.272    -8900210.93649  -6891015.71445  23387617.709    23387626.469
       212.000         152.000
  20924491.330   -19666186.91249 -14957259.68847  20924490.916    20924497.698
       243.000         211.000
  23944591.607   -11809553.24049  -9178009.65645  23944591.324    23944601.411
       215.000         153.000
  24322248.871    -5108664.53349  -3962848.04345  24322248.668    24322256.328
       211.000         143.000
  23438490.617    -8723259.65249  -6771176.08645  23438489.851    23438497.863
       214.000         157.000
  21527599.264   -22218297.31449 -16977648.54147  21527599.533    21527605.799
       236.000         196.000
 03  1 14  1 54 30.0000000  0 10G 6G15G10G17G26G23G 5G18G29G30
  20527205.969   -26783422.19849 -20341734.01248  20527205.801    20527211.736
       244.000         215.000
  24006346.928    -8512172.57049  -6620875.01745  24006346.352    24006355.872
       212.000         152.000
  22000946.023   -16607293.16049 -12923759.19447  22000945.652    22000952.288
       232.000         189.000
  22064497.540   -16616348.24649 -12914765.01947  22064496.647    22064504.488
       232.000         192.000
  23371374.663    -8985571.45149  -6957530.28145  23371374.054    23371381.542
       214.000         154.000
  20915664.811   -19712570.38449 -14993402.59747  20915664.067    20915671.004
       243.000         211.000
  23964785.390   -11703434.26749  -9095319.59545  23964785.434    23964794.223
       216.000         152.000
  24301588.479    -5217234.24749  -4047447.53845  24301588.650    24301595.959
       208.000         143.000
  23427662.695    -8780160.45849  -6815514.29045  23427661.917    23427669.436
       213.000         157.000
  21542168.004   -22141738.09249 -16917992.00447  21542168.427    21542174.454
       235.000         196.000
 03  1 14  1 55  0.0000000  0 10G 6G15G10G17G26G23G 5G18G29G30
  20520950.541   -26816294.53449 -20367348.77848  20520950.392    20520956.426
       244.000         215.000
  23991718.861    -8589042.90849  -6680773.80545  23991717.320    23991728.229
       212.000         153.000
  22016059.940   -16527868.97349 -12861870.21447  22016059.269    22016066.054
       231.000         188.000
  22055487.261   -16663696.99049 -12951660.06747  22055486.714    22055494.241
       231.000         193.000
  23355166.210    -9070746.96249  -7023900.70045  23355165.655    23355173.760
       213.000         154.000
  20906932.059   -19758460.93549 -15029161.41547  20906931.652    20906938.249
       243.000         211.000
  23984984.369   -11597287.91649  -9012608.18345  23984984.011    23984993.298
       215.000         152.000
  24280948.665    -5325696.34149  -4131963.15245  24280947.760    24280956.833
       207.000         146.000
  23416893.426    -8836752.87949  -6859612.20745  23416893.252    23416899.881
       215.000         158.000
  21556809.195   -22064798.07449 -16858038.74447  21556809.721    21556815.784
       235.000         195.000
 03  1 14  1 55 30.0000000  0 10G 6G15G10G17G26G23G 5G18G29G30
  20514757.640   -26848838.24749 -20392707.46848  20514757.519    20514763.582
       244.000         215.000
  23977114.739    -8665787.34749  -6740574.49945  23977114.279    23977123.541
       212.000         153.000
  22031245.397   -16448068.83149 -12799688.27447  22031244.837    22031251.755
       231.000         188.000
  22046511.305   -16710865.64749 -12988414.78847  22046510.658    22046518.237
       233.000         193.000
  23338993.478    -9155734.75449  -7090124.84645  23338993.531    23339001.049
       215.000         154.000
  20898293.188   -19803858.37049 -15064535.98447  20898292.713    20898299.509
       243.000         211.000
  24005188.038   -11491117.39949  -8929877.93345  24005187.564    24005196.830
       212.000         152.000
  24260329.366    -5434049.40049  -4216393.79045  24260328.274    24260336.304
       208.000         142.000
  23406183.352    -8893034.63349  -6903468.03045  23406183.197    23406190.094
       216.000         158.000
  21571522.238   -21987480.53649 -16797791.31047  21571522.696    21571528.724
       235.000         195.000
 03  1 14  1 56  0.0000000  0 10G 6G15G10G17G26G23G 5G18G29G30
  20508627.717   -26881051.03749 -20417808.30648  20508627.513    20508633.469
       244.000         215.000
  23962534.734    -8742405.17649  -6800276.52945  23962533.633    23962543.134
       211.000         153.000
  22046501.922   -16367895.11749 -12737215.24746  22046500.945    22046508.493
       231.000         187.000
  22037569.632   -16757854.23749 -13025029.20247  22037568.958    22037576.405
       233.000         193.000
  23322857.241    -9240530.51349  -7156199.32945  23322857.802    23322864.256
       216.000         154.000
  20889748.446   -19848761.05249 -15099525.03447  20889747.908    20889754.512
       243.000         211.000
  24025395.868   -11384924.65849  -8847130.37745  24025395.435    24025404.270
       211.000         151.000
  24239731.583    -5542290.54549  -4300737.27245  24239730.943    24239739.709
       208.000         146.000
  23395532.983    -8949002.44349  -6947079.24045  23395532.830    23395539.707
       215.000         158.000
  21586306.702   -21909787.72449 -16737251.46247  21586306.991    21586313.361
       235.000         195.000
 03  1 14  1 56 30.0000000  0 10G 6G15G10G17G26G23G 5G18G29G30
  20502560.902   -26912932.22449 -20442650.74548  20502560.673    20502566.770
       244.000         215.000
  23947978.550    -8818897.30249  -6859880.60245  23947976.971    23947987.723
       210.000         152.000
  22061828.796   -16287351.85549 -12674454.25346  22061828.464    22061835.206
       231.000         187.000
  22028661.910   -16804664.33049 -13061504.52347  22028661.735    22028668.651
       233.000         194.000
  23306758.145    -9325131.82149  -7222122.32545  23306757.478    23306765.948
       215.000         154.000
  20881297.813   -19893169.21449 -15134128.74247  20881297.419    20881303.950
       243.000         211.000
  24045607.373   -11278713.26649  -8764368.25745  24045607.592    24045615.392
       214.000         152.000
  24219155.206    -5650418.76849  -4384992.73445  24219153.849    24219162.351
       209.000         144.000
  23384942.701    -9004654.58049  -6990444.46045  23384942.181    23384949.340
       214.000         158.000
  21601161.850   -21831723.28749 -16676422.03147  21601162.157    21601168.593
       234.000         194.000
 03  1 14  1 57  0.0000000  0 10G 6G15G10G17G26G23G 5G18G29G30
  20496558.005   -26944477.53349 -20467231.45948  20496557.868    20496563.877
       244.000         215.000
  23933446.831    -8895260.97849  -6919384.59445  23933445.431    23933455.883
       212.000         152.000
  22077225.994   -16206439.06849 -12611405.31946  22077224.605    22077232.384
       230.000         186.000
  22019788.639   -16851293.51949 -13097838.88047  22019787.938    22019795.500
       233.000         194.000
  23290697.093    -9409532.52649  -7287888.98745  23290696.786    23290705.006
       215.000         155.000
  20872941.914   -19937079.37549 -15168344.39647  20872941.393    20872948.130
       242.000         212.000
  24065822.252   -11172483.20749  -8681591.65445  24065821.878    24065830.633
       213.000         150.000
  24198601.333    -5758429.17849  -4469156.45145  24198600.857    24198607.686
       211.000         144.000
  23374413.416    -9059985.63949  -7033559.49145  23374413.320    23374419.501
       215.000         159.000
  21616087.683   -21753287.63049 -16615303.33447  21616087.924    21616094.746
       235.000         194.000
 03  1 14  1 57 30.0000000  0 10G 6G15G10G17G26G23G 5G18G29G30
  20490618.797   -26975688.03149 -20491551.29248  20490618.800    20490624.513
       244.000         215.000
  23918939.092    -8971499.13649  -6978790.78345  23918937.724    23918948.729
       210.000         152.000
  22092692.395   -16125162.47249 -12548072.90546  22092691.978    22092698.870
       230.000         186.000
  22010949.199   -16897744.88849 -13134034.68147  22010948.647    22010956.182
       233.000         195.000
  23274674.375    -9493731.94649  -7353498.81245  23274674.498    23274681.181
       216.000         155.000
  20864680.448   -19980493.48049 -15202173.51847  20864679.983    20864686.699
       242.000         212.000
  24086039.709   -11066240.23349  -8598804.91845  24086039.672    24086049.195
       212.000         151.000
  24178069.743    -5866322.57349  -4553228.98045  24178068.821    24178076.392
       210.000         144.000
  23363945.252    -9114995.87249  -7076424.52945  23363944.778    23363952.276
       213.000         159.000
  21631083.096   -21674486.12449 -16553899.56847  21631083.483    21631090.114
       235.000         194.000
 03  1 14  1 58  0.0000000  0 10G 6G15G10G17G26G23G 5G18G29G30
  20484743.755   -27006561.47849 -20515608.48448  20484743.677    20484749.570
       244.000         215.000
  23904455.253    -9047611.21749  -7038098.72945  23904453.851    23904464.381
       208.000         152.000
  22108227.623   -16043524.25949 -12484458.70646  22108226.773    22108234.090
       229.000         185.000
  22002143.641   -16944018.24449 -13170091.76947  22002143.023    22002150.359
       234.000         195.000
  23258690.726    -9577726.24049  -7418948.78545  23258691.303    23258697.328
       216.000         156.000
  20856513.617   -20023410.27549 -15235615.12347  20856513.186    20856519.840
       243.000         212.000
  24106259.241   -10959986.01749  -8516009.45945  24106258.934    24106267.871
       210.000         150.000
  24157560.770    -5974096.23549  -4637208.21645  24157560.169    24157566.907
       209.000         143.000
  23353538.719    -9169682.18149  -7119037.16045  23353538.082    23353545.160
       214.000         160.000
  21646147.645   -21595321.38249 -16492212.76347  21646147.724    21646154.091
       234.000         194.000
 03  1 14  1 58 30.0000000  0 10G 6G15G10G17G26G23G 5G18G29G30
  20478933.215   -27037095.95049 -20539401.53748  20478933.070    20478938.996
       244.000         215.000
  23889995.351    -9123596.93449  -7097308.20145  23889994.261    23890004.633
       207.000         152.000
  22123831.124   -15961527.23949 -12420564.91546  22123830.041    22123837.436
       229.000         185.000
  21993371.951   -16990113.81949 -13206010.32747  21993371.366    21993378.809
       233.000         195.000
  23242746.907    -9661511.51649  -7484235.93045  23242746.391    23242755.189
       214.000         157.000
  20848441.620   -20065828.69749 -15268668.38247  20848441.065    20848447.809
       243.000         212.000
  24126480.376   -10853723.01549  -8433207.14545  24126480.025    24126488.946
       210.000         150.000
  24137075.236    -6081747.76849  -4721092.29745  24137074.901    24137082.970
       208.000         145.000
  23343194.443    -9224041.48649  -7161394.97245  23343193.893    23343200.754
       214.000         160.000
  21661280.864   -21515795.76449 -16430244.74947  21661281.037    21661287.263
       235.000         193.000
 03  1 14  1 59  0.0000000  0 10G 6G15G10G17G26G23G 5G18G29G30
  20473187.463   -27067289.74649 -20562929.13648  20473187.427    20473193.085
       243.000         215.000
  23875559.689    -9199456.21949  -7156419.17545  23875558.895    23875568.513
       210.000         152.000
  22139502.353   -15879174.13449 -12356393.66146  22139501.692    22139508.373
       229.000         184.000
  21984633.955   -17036031.89549 -13241790.57147  21984633.345    21984640.466
       234.000         195.000
  23226843.409    -9745084.19449  -7549357.38945  23226843.721    23226850.330
       217.000         156.000
  20840464.616   -20107747.92949 -15301332.66347  20840464.217    20840470.670
       243.000         212.000
  24146702.708   -10747454.05349  -8350400.21845  24146702.166    24146710.748
       207.000         149.000
  24116613.209    -6189274.79349  -4804879.38545  24116613.076    24116620.356
       208.000         143.000
  23332912.925    -9278071.15949  -7203495.93445  23332912.960    23332920.037
       214.000         161.000
  21676482.254   -21435912.13549 -16367997.76947  21676482.643    21676488.497
       235.000         193.000
 03  1 14  1 59 30.0000000  0 10G 6G15G10G17G26G23G 5G18G29G30
  20467506.839   -27097141.46149 -20586190.16748  20467506.660    20467512.683
       244.000         215.000
  23861148.051    -9275189.20949  -7215431.72345  23861147.481    23861157.481
       209.000         151.000
  22155240.777   -15796468.11049 -12291947.39846  22155240.166    22155247.316
       228.000         184.000
  21975929.666   -17081772.99449 -13277432.91247  21975929.111    21975936.360
       233.000         196.000
  23210981.030    -9828441.20349  -7614310.80845  23210981.702    23210988.777
       217.000         157.000
  20832582.713   -20149167.49749 -15333607.59747  20832582.253    20832588.789
       243.000         212.000
  24166925.559   -10641182.02949  -8267590.88445  24166925.566    24166934.182
       211.000         149.000
  24096175.387    -6296675.73749  -4888568.25345  24096175.115    24096182.703
       203.000         144.000
  23322694.538    -9331768.70949  -7245338.10545  23322694.565    23322701.057
       214.000         161.000
  21691751.130   -21355673.64549 -16305474.26647  21691751.283    21691757.795
       235.000         193.000
 03  1 14  2  0  0.0000000  0 10G 6G15G10G17G26G23G 5G18G29G30
  20461891.761   -27126648.78849 -20609182.85348  20461891.697    20461897.584
       244.000         215.000
  23846760.550    -9350795.34649  -7274345.43345  23846760.651    23846769.745
       212.000         152.000
  22171045.973   -15713411.02849 -12227227.59246  22171044.895    22171051.921
       228.000         184.000
  21967259.083   -17127336.96449 -13312937.23647  21967258.304    21967265.570
       234.000         196.000
  23195160.497    -9911578.28949  -7679092.86345  23195159.615    23195167.766
       216.000         158.000
  20824796.133   -20190086.14449 -15365492.20448  20824795.804    20824802.173
       243.000         213.000
  24187148.730   -10534908.75449  -8184780.56345  24187148.216    24187157.168
       205.000         146.000
  24075761.898    -6403947.69249  -4972156.56945  24075760.808    24075769.152
       207.000         144.000
  23312539.971    -9385131.10849  -7286919.11945  23312539.695    23312546.592
       214.000         161.000
  21707087.139   -21275082.41249 -16242675.91447  21707087.526    21707093.921
       234.000         193.000
 03  1 14  2  0 30.0000000  0 10G 6G15G10G17G26G23G 5G18G29G30
  20456342.429   -27155810.58849 -20631906.29548  20456342.269    20456348.123
       244.000         215.000
  23832397.109    -9426275.29349  -7333160.82145  23832396.485    23832406.215
       210.000         153.000
  22186917.306   -15630006.63649 -12162237.15546  22186916.717    22186923.717
       228.000         183.000
  21958622.076   -17172724.54249 -13348304.10547  21958621.343    21958628.336
       234.000         196.000
  23179382.366    -9994492.50149  -7743701.23945  23179383.187    23179388.586
       216.000         158.000
  20817104.859   -20230503.69149 -15396986.34148  20817104.418    20817110.934
       243.000         213.000
  24207371.548   -10428637.37849  -8101971.74745  24207371.945    24207379.093
       210.000         148.000
  24055373.497    -6511089.00649  -5055643.13145  24055373.511    24055381.359
       210.000         145.000
  23302449.605    -9438155.90949  -7328237.05345  23302449.520    23302456.279
       215.000         161.000
  21722489.573   -21194142.05349 -16179605.50247  21722489.873    21722495.700
       234.000         193.000
 03  1 14  2  1  0.0000000  0 10G 6G15G10G17G26G23G 5G18G29G30
  20450859.076   -27184625.72049 -20654359.60448  20450858.885    20450864.638
       244.000         215.000
  23818057.533    -9501629.38949  -7391878.13945  23818056.692    23818065.515
       210.000         152.000
  22202854.084   -15546258.15349 -12096978.58446  22202852.815    22202860.590
       228.000         183.000
  21950018.426   -17217936.59249 -13383534.20047  21950017.749    21950025.120
       234.000         196.000
  23163647.224   -10077180.91749  -7808133.67945  23163647.471    23163654.898
       218.000         158.000
  20809509.050   -20270419.83249 -15428089.77348  20809508.517    20809515.145
       243.000         213.000
  24227593.443   -10322370.90849  -8019166.71845  24227591.837    24227600.703
       204.000         145.000
  24035010.057    -6618098.58349  -5139027.04245  24035008.100    24035017.294
       213.000         144.000
  23292423.825    -9490841.25349  -7369290.49045  23292423.351    23292430.268
       216.000         161.000
  21737957.835   -21112855.74749 -16116265.52747  21737958.474    21737964.474
       234.000         193.000
 03  1 14  2  1 30.0000000  0 10G 6G15G10G17G26G23G 5G18G29G30
  20445442.341   -27213090.61349 -20676540.00048  20445442.235    20445447.927
       243.000         215.000
  23803742.290    -9576855.87949  -7450496.04345  23803741.543    23803750.998
       212.000         152.000
  22218856.167   -15462166.54349 -12031452.65646  22218855.257    22218862.132
       228.000         182.000
  21941448.441   -17262971.75649 -13418626.46647  21941447.732    21941454.987
       234.000         195.000
  23147956.047   -10159638.24149  -7872386.06345  23147956.963    23147963.112
       218.000         158.000
  20802009.089   -20309832.22849 -15458800.67748  20802008.489    20802015.144
       243.000         213.000
  24247814.181   -10216110.18649  -7936366.18745  24247814.008    24247822.830
       210.000         149.000
  24014672.672    -6724971.99849  -5222304.88245  24014671.529    24014678.993
       212.000         146.000
  23282463.527    -9543182.70449  -7410075.95445  23282463.346    23282470.441
       215.000         162.000
  21753491.716   -21031224.54949 -16052656.80447  21753492.161    21753498.565
       234.000         192.000
 03  1 14  2  2  0.0000000  0 10G 6G15G10G17G26G23G 5G18G29G30
  20440092.400   -27241204.66849 -20698447.01648  20440092.289    20440097.997
       244.000         215.000
  23789451.122    -9651956.14949  -7509015.58145  23789450.556    23789459.827
       211.000         153.000
  22234922.811   -15377735.81049 -11965662.46746  22234922.304    22234929.102
       228.000         182.000
  21932911.777   -17307831.94849 -13453582.38647  21932911.052    21932918.367
       234.000         195.000
  23132309.304   -10241862.03349  -7936456.47345  23132309.116    23132316.995
       216.000         158.000
  20794604.870   -20348741.39949 -15489119.45648  20794604.365    20794610.817
       244.000         213.000
  24268033.044   -10109858.75649  -7853572.92745  24268031.262    24268040.600
       202.000         145.000
  23994361.288    -6831708.27649  -5305475.83045  23994361.309    23994368.142
       216.000         148.000
  23272568.931    -9595178.79249  -7450592.29945  23272568.666    23272574.951
       213.000         162.000
  21769090.429   -20949252.67049 -15988782.61247  21769090.902    21769097.023
       234.000         192.000
 03  1 14  2  2 30.0000000  0 10G 6G15G10G17G26G23G 5G18G29G30
  20434809.521   -27268966.06249 -20720079.23148  20434809.316    20434815.177
       244.000         215.000
  23775184.036    -9726929.84849  -7567436.48445  23775182.983    23775192.000
       211.000         153.000
  22251053.441   -15292968.62949 -11899610.11346  22251052.727    22251060.168
       227.000         182.000
  21924408.409   -17352516.95149 -13488401.80047  21924407.888    21924414.961
       234.000         195.000
  23116707.756   -10323848.58449  -8000342.02245  23116707.137    23116714.638
       216.000         158.000
  20787296.581   -20387146.52949 -15519045.47748  20787296.234    20787302.519
       244.000         213.000
  24288249.774   -10003619.19549  -7770788.83645  24288248.935    24288257.465
       200.000         146.000
  23974076.476    -6938305.23149  -5388538.25745  23974075.523    23974082.900
       211.000         147.000
  23262740.510    -9646826.67849  -7490837.32645  23262740.600    23262746.907
       215.000         162.000
  21784753.499   -20866942.63549 -15924644.92347  21784754.039    21784759.857
       234.000         192.000
 03  1 14  2  3  0.0000000  0 10G 6G15G10G17G26G23G 5G18G29G30
  20429594.247   -27296372.46749 -20741434.82848  20429594.126    20429599.817
       243.000         215.000
  23760941.009    -9801776.21149  -7625758.17445  23760940.143    23760949.561
       212.000         153.000
  22267247.688   -15207867.22049 -11833297.32946  22267246.586    22267253.931
       227.000         182.000
  21915938.488   -17397026.34349 -13523084.37347  21915937.732    21915944.963
       233.000         195.000
  23101152.088   -10405593.85549  -8064039.55245  23101152.075    23101159.136
       217.000         159.000
  20780084.440   -20425046.41149 -15548577.79948  20780084.007    20780090.399
       243.000         213.000
  24308463.744    -9897393.32649  -7688015.50945  24308464.600    24308473.038
       206.000         147.000
  23953818.634    -7044760.16849  -5471490.02545  23953817.197    23953826.259
       212.000         148.000
  23252979.047    -9698123.38549  -7530808.70746  23252978.848    23252985.467
       215.000         163.000
  21800480.458   -20784296.80049 -15860245.57647  21800480.671    21800487.074
       233.000         192.000
 03  1 14  2  3 30.0000000  0 10G 6G15G10G17G26G23G 5G18G29G30
  20424446.719   -27323422.73749 -20762512.91948  20424446.600    20424452.256
       244.000         215.000
  23746722.269    -9876495.77649  -7683981.06445  23746721.527    23746730.552
       214.000         154.000
  22283504.957   -15122434.61449 -11766726.46646  22283504.121    22283511.154
       227.000         182.000
  21907501.796   -17441361.01349 -13557630.79747  21907501.123    21907508.384
       234.000         196.000
  23085642.920   -10487094.69049  -8127546.59545  23085642.492    23085649.872
       217.000         160.000
  20772968.454   -20462440.93449 -15577716.33648  20772968.103    20772974.396
       244.000         213.000
  24328674.955    -9791184.20449  -7605255.15945  24328673.610    24328683.560
       202.000         146.000
  23933588.213    -7151071.14649  -5554329.61145  23933587.652    23933594.360
       213.000         147.000
  23243284.835    -9749066.54449  -7570504.60146  23243284.639    23243291.315
       215.000         164.000
  21816270.719   -20701318.50149 -15795587.16147  21816271.100    21816277.696
       233.000         191.000
 03  1 14  2  4  0.0000000  0 10G 6G15G10G17G26G23G 5G18G29G30
  20419367.183   -27350115.63549 -20783312.54448  20419367.036    20419372.788
       244.000         215.000
  23732527.634    -9951089.07549  -7742105.57045  23732526.504    23732536.559
       214.000         155.000
  22299824.566   -15036674.52649 -11699900.42546  22299824.163    22299831.103
       227.000         182.000
  21899098.094   -17485522.38149 -13592042.18647  21899097.730    21899104.785
       235.000         196.000
  23070180.807   -10568348.22749  -8190860.96445  23070181.356    23070187.460
       218.000         160.000
  20765948.669   -20499330.00549 -15606461.01248  20765948.103    20765954.581
       244.000         213.000
  24348882.076    -9684994.87349  -7522510.27445  24348881.240    24348890.282
       203.000         145.000
  23913385.510    -7257236.76349  -5637055.92245  23913384.668    23913392.648
       213.000         149.000
  23233658.255    -9799654.14749  -7609923.44946  23233658.543    23233664.961
       216.000         164.000
  21832123.563   -20618011.22249 -15730672.40547  21832124.215    21832129.994
       233.000         191.000
 03  1 14  2  4 30.0000000  0 10G 6G15G10G17G26G23G 5G18G29G30
  20414355.953   -27376449.56349 -20803832.44548  20414355.886    20414361.537
       244.000         215.000
  23718356.949   -10025555.88349  -7800131.50945  23718355.974    23718364.966
       215.000         155.000
  22316205.984   -14950589.69049 -11632821.32546  22316205.632    22316212.635
       228.000         182.000
  21890727.514   -17529509.96649 -13626318.15747  21890727.075    21890734.136
       235.000         196.000
  23054766.464   -10649350.79049  -8253979.74445  23054765.998    23054773.571
       217.000         160.000
  20759025.176   -20535712.98549 -15634811.33448  20759024.516    20759031.039
       244.000         213.000
  24369085.024    -9578827.69649  -7439782.61545  24369084.014    24369094.164
       204.000         147.000
  23893210.990    -7363254.67949  -5719667.19845  23893210.525    23893216.838
       212.000         149.000
  23224099.862    -9849883.62949  -7649063.22946  23224100.020    23224106.403
       216.000         165.000
  21848038.549   -20534377.58949 -15665503.34147  21848038.907    21848045.605
       233.000         191.000
 03  1 14  2  5  0.0000000  0 10G 6G15G10G17G26G23G 5G18G29G30
  20409413.518   -27402422.19949 -20824070.82548  20409413.417    20409419.054
       243.000         215.000
  23704210.417   -10099895.59249  -7858058.41345  23704209.187    23704218.727
       215.000         156.000
  22332648.744   -14864182.38449 -11565490.95846  22332647.930    22332655.093
       228.000         182.000
  21882389.936   -17573323.93249 -13660458.84647  21882389.787    21882396.755
       235.000         197.000
  23039400.590   -10730098.31049  -8316899.79845  23039400.885    23039408.150
       216.000         160.000
  20752198.176   -20571588.83249 -15662766.48548  20752197.672    20752204.158
       244.000         213.000
  24389283.197    -9472684.67149  -7357073.82645  24389282.771    24389292.299
       203.000         145.000
  23873064.818    -7469122.41249  -5802161.37945  23873064.891    23873073.701
       216.000         151.000
  23214610.231    -9899751.92749  -7687921.57246  23214610.000    23214617.079
       216.000         165.000
  21864015.113   -20450420.12049 -15600081.94247  21864015.507    21864021.868
       232.000         191.000
 03  1 14  2  5 30.0000000  0 10G 6G15G10G17G26G23G 5G18G29G30
  20404540.024   -27428032.36549 -20844026.75748  20404539.841    20404545.521
       243.000         215.000
  23690088.006   -10174108.76049  -7915886.73145  23690086.954    23690096.232
       214.000         156.000
  22349152.288   -14777455.76049 -11497911.76246  22349151.444    22349158.847
       227.000         182.000
  21874085.278   -17616965.23249 -13694464.98747  21874084.786    21874091.658
       235.000         197.000
  23024083.873   -10810587.81649  -8379618.79345  23024083.768    23024091.290
       216.000         160.000
  20745467.744   -20606957.39049 -15690326.34748  20745467.242    20745473.481
       244.000         213.000
  24409476.404    -9366568.87449  -7274386.23445  24409476.911    24409485.208
       209.000         147.000
  23852947.723    -7574838.29849  -5884537.29845  23852946.269    23852953.919
       214.000         149.000
  23205189.669    -9949256.84249  -7726496.75646  23205189.352    23205196.208
       216.000         167.000
  21880052.639   -20366142.23549 -15534410.86447  21880052.815    21880058.792
       233.000         190.000
 03  1 14  2  6  0.0000000  0 10G 6G15G10G17G26G23G 5G18G29G30
  20399735.964   -27453277.70749 -20863698.41548  20399735.907    20399741.531
       244.000         215.000
  23675989.827   -10248194.69749  -7973615.88945  23675988.434    23675997.894
       215.000         157.000
  22365716.167   -14690411.95949 -11430085.42546  22365715.697    22365722.437
       227.000         182.000
  21865813.454   -17660433.49849 -13728336.29547  21865813.093    21865819.903
       235.000         197.000
  23008817.056   -10890814.93649  -8442133.34245  23008816.628    23008823.937
       217.000         160.000
  20738834.013   -20641817.51549 -15717490.02848  20738833.524    20738839.968
       244.000         213.000
  24429664.024    -9260482.05149  -7191721.18745  24429662.836    24429673.465
       206.000         146.000
  23832860.023    -7680399.43249  -5966792.61245  23832859.994    23832867.291
       216.000         151.000
  23195838.882    -9998395.38449  -7764786.45646  23195838.615    23195845.660
       217.000         167.000
  21896150.782   -20281545.96849 -15468491.70147  21896151.070    21896157.174
       232.000         190.000
 03  1 14  2  6 30.0000000  0 10G 6G15G10G17G26G23G 5G18G29G30
  20395001.589   -27478156.81149 -20883084.69348  20395001.434    20395007.280
       244.000         215.000
  23661915.817   -10322153.72449  -8031246.16745  23661915.367    23661924.403
       216.000         157.000
  22382339.792   -14603054.20249 -11362014.43946  22382338.589    22382346.291
       228.000         181.000
  21857574.577   -17703728.99649 -13762072.98047  21857574.196    21857581.092
       235.000         197.000
  22993600.827   -10970776.69649  -8504441.10145  22993600.062    22993608.172
       218.000         160.000
  20732297.060   -20676169.08849 -15744257.43648  20732296.550    20732302.999
       244.000         214.000
  24449845.598    -9154427.35149  -7109081.20345  24449846.334    24449854.612
       207.000         148.000
  23812802.098    -7785803.99349  -6048925.94545  23812802.980    23812809.199
       219.000         151.000
  23186558.312   -10047165.15149  -7802788.80046  23186558.330    23186564.664
       218.000         168.000
  21912308.872   -20196634.75549 -15402327.11547  21912309.284    21912315.300
       232.000         190.000
 03  1 14  2  7  0.0000000  0 10G 6G15G10G17G26G23G 5G18G29G30
  20390337.191   -27502668.19449 -20902184.43548  20390337.053    20390342.796
       243.000         215.000
  23647865.977   -10395985.82249  -8088777.53945  23647865.503    23647874.790
       217.000         158.000
  22399022.631   -14515385.37549 -11293701.06946  22399021.530    22399029.237
       228.000         181.000
  21849368.397   -17746852.49449 -13795675.64547  21849367.947    21849375.036
       235.000         197.000
  22978435.683   -11050469.55249  -8566539.35245  22978436.140    22978443.344
       218.000         161.000
  20725856.946   -20710011.88849 -15770628.39748  20725856.558    20725862.755
       244.000         214.000
  24470020.501    -9048407.11049  -7026468.09645  24470019.968    24470029.965
       207.000         147.000
  23792774.399    -7891049.99449  -6130935.65845  23792774.205    23792782.128
       217.000         152.000
  23177348.389   -10095563.63149  -7840501.82846  23177348.316    23177354.786
       218.000         168.000
  21928526.292   -20111411.48149 -15335919.37847  21928526.737    21928533.144
       231.000         189.000
 03  1 14  2  7 30.0000000  0 10G 6G15G10G17G26G23G 5G18G29G30
  20385743.185   -27526809.80749 -20920996.04548  20385742.974    20385748.856
       243.000         215.000
  23633840.294   -10469690.76149  -8146209.82745  23633839.953    23633848.746
       215.000         158.000
  22415764.196   -14427407.79249 -11225147.10746  22415763.680    22415770.513
       228.000         181.000
  21841194.983   -17789803.87649 -13829144.18847  21841194.436    21841201.438
       235.000         197.000
  22963322.463   -11129889.73049  -8628425.09945  22963322.493    22963329.995
       217.000         162.000
  20719513.849   -20743344.94449 -15796602.15748  20719513.369    20719519.676
       244.000         214.000
  24490188.566    -8942423.55549  -6943883.48545  24490188.595    24490198.016
       208.000         147.000
  23772777.367    -7996134.79049  -6212819.85645  23772775.830    23772784.966
       214.000         153.000
  23168209.564   -10143588.03449  -7877923.37746  23168209.832    23168215.975
       219.000         168.000
  21944802.650   -20025878.70049 -15269270.45847  21944802.979    21944809.426
       232.000         189.000
 03  1 14  2  8  0.0000000  0 10G 6G15G10G17G26G23G 5G18G29G30
  20381219.671   -27550580.81649 -20939518.87048  20381219.435    20381225.270
       243.000         215.000
  23619838.678   -10543268.98649  -8203543.36145  23619837.307    23619847.256
       215.000         159.000
  22432563.820   -14339125.11249 -11156355.40446  22432563.030    22432569.834
       227.000         181.000
  21833054.126   -17832584.07949 -13862479.34547  21833053.482    21833060.700
       235.000         197.000
  22948261.654   -11209034.32949  -8690096.12845  22948261.549    22948268.890
       217.000         162.000
  20713267.679   -20776168.58149 -15822178.96448  20713267.283    20713273.501
       244.000         214.000
  24510349.113    -8836479.70349  -6861329.90145  24510349.278    24510359.006
       208.000         146.000
  23752811.247    -8101057.14049  -6294577.43245  23752812.440    23752818.136
       218.000         154.000
  23159142.276   -10191236.68049  -7915052.11446  23159142.070    23159149.152
       219.000         169.000
  21961137.193   -19940040.08249 -15202383.22447  21961137.561    21961144.235
       231.000         189.000
 03  1 14  2  8 30.0000000  0 10G 6G15G10G17G26G23G 5G18G29G30
  20376767.075   -27573979.11549 -20957751.27748  20376766.798    20376772.626
       243.000         215.000
  23605861.254   -10616720.31349  -8260778.02245  23605859.993    23605869.632
       216.000         160.000
  22449421.042   -14250539.79549 -11087327.88246  22449420.629    22449427.388
       227.000         180.000
  21824945.823   -17875193.15349 -13895681.15847  21824945.025    21824952.315
       235.000         197.000
  22933254.015   -11287899.45849  -8751549.38345  22933254.268    22933261.263
       218.000         162.000
  20707118.605   -20808482.00449 -15847358.20748  20707118.210    20707124.282
       243.000         214.000
  24530501.811    -8730577.61749  -6778808.81645  24530501.747    24530509.972
       211.000         147.000
  23732876.440    -8205814.59649  -6376206.46445  23732876.631    23732884.377
       216.000         154.000
  23150147.029   -10238506.66249  -7951885.78746  23150147.396    23150153.442
       220.000         169.000
  21977529.418   -19853898.29949 -15135259.76047  21977529.703    21977536.153
       231.000         189.000
 03  1 14  2  9  0.0000000  0 10G 6G15G10G17G26G23G 5G18G29G30
  20372385.724   -27597003.14649 -20975692.04748  20372385.661    20372391.271
       243.000         215.000
  23591908.007   -10690044.93149  -8317913.94145  23591907.532    23591915.669
       217.000         160.000
  22466335.282   -14161654.64549 -11018066.72446  22466334.650    22466341.780
       227.000         180.000
  21816869.981   -17917631.61949 -13928750.02347  21816869.486    21816876.366
       235.000         197.000
  22918300.218   -11366481.72049  -8812782.22145  22918300.501    22918306.965
       218.000         162.000
  20701066.642   -20840284.95349 -15872139.67248  20701066.150    20701072.440
       243.000         214.000
  24550645.919    -8624719.82849  -6696322.23245  24550645.072    24550655.452
       207.000         146.000
  23712973.515    -8310405.12449  -6457705.46145  23712972.241    23712977.836
       214.000         153.000
  23141224.294   -10285395.60149  -7988422.53746  23141223.744    23141230.512
       219.000         169.000
  21993978.768   -19767456.17549 -15067902.25747  21993978.955    21993985.159
       231.000         188.000
 03  1 14  2  9 30.0000000  0 10G 6G15G10G17G26G23G 5G18G29G30
  20368075.910   -27619651.16949 -20993339.82248  20368075.755    20368081.479
       243.000         215.000
  23577978.836   -10763242.45549  -8374950.80545  23577977.526    23577986.980
       216.000         160.000
  22483306.078   -14072472.38649 -10948574.05446  22483305.062    22483311.938
       228.000         180.000
  21808826.623   -17959899.47149 -13961685.94647  21808826.294    21808833.097
       235.000         197.000
  22903400.930   -11444777.53449  -8873791.85145  22903400.426    22903407.841
       217.000         162.000
  20695111.951   -20871576.93249 -15896522.98548  20695111.373    20695117.882
       244.000         214.000
  24570781.067    -8518908.83449  -6613872.19145  24570781.172    24570789.942
       212.000         149.000
  23693102.640    -8414826.43749  -6539072.56545  23693100.528    23693109.681
       213.000         155.000
  23132374.572   -10331900.92049  -8024660.37046  23132374.201    23132380.790
       218.000         168.000
  22010484.717   -19680716.71949 -15000313.07047  22010485.408    22010491.301
       231.000         188.000
 03  1 14  2 10  0.0000000  0 10G 6G15G10G17G26G23G 5G18G29G30
  20363837.867   -27641922.06149 -21010693.72248  20363837.768    20363843.405
       243.000         215.000
  23564073.792   -10836313.30549  -8431888.97245  23564072.882    23564081.637
       217.000         161.000
  22500332.803   -13982996.34849 -10878852.45846  22500331.834    22500338.665
       226.000         179.000
  21800815.465   -18001997.91449 -13994489.85247  21800815.000    21800821.988
       235.000         197.000
  22888556.808   -11522783.71549  -8934575.81145  22888556.832    22888564.067
       218.000         162.000
  20689254.485   -20902357.88849 -15920508.09148  20689253.997    20689260.340
       243.000         214.000
  24590906.922    -8413147.31349  -6531460.56745  24590905.340    24590915.312
       203.000         142.000
  23673264.337    -8519076.68649  -6620306.41745  23673263.531    23673268.769
       219.000         154.000
  23123598.191   -10378020.61849  -8060597.71246  23123597.836    23123604.630
       220.000         168.000
  22027046.659   -19593683.15049 -14932494.70147  22027046.573    22027053.322
       231.000         188.000
 03  1 14  2 10 30.0000000  0 10G 6G15G10G17G26G23G 5G18G29G30
  20359672.113   -27663812.91649 -21027751.50348  20359672.062    20359677.771
       243.000         215.000
  23550193.036   -10909256.60549  -8488727.73045  23550191.742    23550201.133
       217.000         161.000
  22517415.096   -13893228.35949 -10808903.37146  22517415.118    22517421.820
       226.000         179.000
  21792836.863   -18043925.64549 -14027160.74447  21792836.503    21792843.268
       235.000         197.000
  22873768.608   -11600495.71249  -8995130.52945  22873768.759    22873775.790
       218.000         162.000
  20683494.529   -20932626.45149 -15944093.93948  20683494.235    20683500.364
       243.000         214.000
  24611023.052    -8307436.82649  -6449088.80645  24611023.363    24611031.991
       213.000         148.000
  23653459.110    -8623153.19149  -6701404.77445  23653458.971    23653465.495
       219.000         155.000
  23114895.877   -10423751.01549  -8096231.70346  23114896.000    23114902.639
       219.000         169.000
  22043664.241   -19506357.26249 -14864448.55547  22043664.908    22043670.072
       231.000         188.000
 03  1 14  2 11  0.0000000  0 10G 6G15G10G17G26G23G 5G18G29G30
  20355578.778   -27685323.46149 -21044512.93248  20355578.666    20355584.358
       243.000         215.000
  23536336.302   -10982073.48649  -8545467.98345  23536335.274    23536344.234
       217.000         161.000
  22534552.196   -13803172.19549 -10738729.73146  22534551.225    22534559.097
       225.000         178.000
  21784890.374   -18085684.46449 -14059700.01247  21784890.204    21784896.560
       235.000         198.000
  22859036.855   -11677911.30149  -9055454.28045  22859036.718    22859044.344
       218.000         162.000
  20677831.888   -20962383.61849 -15967281.29248  20677831.485    20677837.724
       244.000         214.000
  24631128.613    -8201780.88049  -6366759.52945  24631126.636    24631138.403
       206.000         146.000
  23633687.234    -8727054.69649  -6782366.89345  23633687.329    23633694.276
       216.000         154.000
  23106267.815   -10469091.14549  -8131561.59846  23106267.614    23106274.027
       219.000         169.000
  22060336.651   -19418743.33649 -14796177.96146  22060336.907    22060343.094
       231.000         187.000
 03  1 14  2 11 30.0000000  0 10G 6G15G10G17G26G23G 5G18G29G30
  20351558.242   -27706451.38949 -21060976.21348  20351558.090    20351563.744
       243.000         215.000
  23522503.816   -11054763.17849  -8602109.11845  23522503.150    23522511.212
       218.000         162.000
  22551743.752   -13712829.98249 -10668333.19546  22551743.333    22551749.910
       226.000         178.000
  21776976.076   -18127273.94249 -14092107.32647  21776975.474    21776982.377
       235.000         198.000
  22844362.285   -11755026.21049  -9115543.73445  22844361.398    22844368.348
       219.000         162.000
  20672266.738   -20991628.43349 -15990069.40648  20672266.288    20672272.431
       243.000         214.000
  24651223.423    -8096181.27249  -6284474.19145  24651222.894    24651231.448
       211.000         142.000
  23613949.213    -8830778.32749  -6863190.35345  23613947.135    23613954.833
       214.000         156.000
  23097714.757   -10514037.65649  -8166584.77946  23097714.685    23097721.059
       220.000         169.000
  22077063.387   -19330843.65049 -14727684.69346  22077063.977    22077069.936
       232.000         187.000
 03  1 14  2 12  0.0000000  0 10G 6G15G10G17G26G23G 5G18G29G30
  20347610.805   -27727195.29449 -21077140.26548  20347610.722    20347616.469
       243.000         215.000
  23508695.494   -11127325.94149  -8658651.34445  23508694.320    23508703.409
       218.000         162.000
  22568989.196   -13622204.56749 -10597715.98946  22568989.254    22568995.919
       225.000         177.000
  21769093.947   -18168694.57849 -14124383.08747  21769093.630    21769100.049
       236.000         198.000
  22829745.578   -11831837.14149  -9175396.31746  22829745.616    22829752.370
       217.000         163.000
  20666799.104   -21020360.86549 -16012458.26848  20666798.553    20666804.798
       244.000         214.000
  24671307.237    -7990640.75449  -6202234.72045  24671306.920    24671317.040
       207.000         143.000
  23594245.306    -8934322.24749  -6943873.75945  23594243.845    23594251.032
       217.000         157.000
  23089236.918   -10558588.66449  -8201299.77146  23089236.914    23089243.225
       220.000         169.000
  22093843.965   -19242661.29349 -14658971.17346  22093844.770    22093850.900
       231.000         187.000
 03  1 14  2 12 30.0000000  0 10G 6G15G10G17G26G23G 5G18G29G30
  20343736.688   -27747553.85149 -21093004.04448  20343736.654    20343742.279
       243.000         215.000
  23494911.237   -11199762.01949  -8715094.84945  23494909.533    23494918.788
       218.000         162.000
  22586287.915   -13531299.28249 -10526880.69246  22586287.698    22586294.349
       225.000         177.000
  21761243.770   -18209947.30549 -14156528.00047  21761243.265    21761249.920
       236.000         198.000
  22815187.325   -11908340.99349  -9235009.63046  22815187.125    22815193.889
       219.000         163.000
  20661428.961   -21048581.00149 -16034447.93648  20661428.641    20661434.784
       244.000         214.000
  24691378.999    -7885161.88249  -6120043.50845  24691379.134    24691388.333
       211.000         145.000
  23574575.978    -9037684.40349  -7024415.56145  23574576.021    23574581.951
       218.000         154.000
  23080834.784   -10602741.80749  -8235704.74146  23080834.451    23080840.711
       219.000         169.000
  22110677.688   -19154199.53949 -14590039.93046  22110678.536    22110684.368
       231.000         187.000
 03  1 14  2 13  0.0000000  0 10G 6G15G10G17G26G23G 5G18G29G30
  20339936.190   -27767525.41549 -21108566.27148  20339936.125    20339941.521
       243.000         215.000
  23481151.008   -11272071.53549  -8771439.73946  23481150.468    23481158.867
       218.000         163.000
  22603639.361   -13440116.79149 -10455829.38846  22603638.936    22603645.667
       225.000         176.000
  21753425.543   -18251032.01049 -14188541.99347  21753425.097    21753431.907
       236.000         198.000
  22800688.164   -11984534.08249  -9294380.78146  22800687.812    22800695.182
       218.000         163.000
  20656156.387   -21076288.38049 -16056038.05448  20656155.951    20656162.130
       244.000         214.000
  24711438.864    -7779746.92449  -6037902.02445  24711439.237    24711448.652
       211.000         144.000
  23554941.666    -9140862.69549  -7104814.02145  23554940.994    23554948.669
       216.000         156.000
  23072508.803   -10646494.77749  -8269797.89346  23072508.375    23072514.905
       219.000         169.000
  22127564.008   -19065461.37849 -14520893.31246  22127564.406    22127570.498
       230.000         186.000
 03  1 14  2 13 30.0000000  0 10G 6G15G10G17G26G23G 5G18G29G30
  20336209.594   -27787108.76649 -21123825.99348  20336209.525    20336215.007
       243.000         215.000
  23467414.889   -11344254.60549  -8827686.10946  23467414.217    23467422.636
       218.000         163.000
  22621042.978   -13348660.11149 -10384564.44646  22621042.428    22621048.097
       225.000         176.000
  21745639.232   -18291949.11249 -14220425.38647  21745638.618    21745645.110
       235.000         198.000
  22786248.691   -12060413.48449  -9353507.51646  22786248.698    22786255.330
       218.000         164.000
  20650981.313   -21103483.33949 -16077228.88248  20650980.903    20650986.899
       244.000         214.000
  24731486.061    -7674398.85249  -5955812.55145  24731487.228    24731493.388
       211.000         140.000
  23535342.684    -9243855.80049  -7185068.26945  23535341.942    23535349.400
       215.000         156.000
  23064259.294   -10689845.60049  -8303577.68446  23064258.776    23064266.194
       221.000         169.000
  22144502.283   -18976450.05349 -14451533.84046  22144503.189    22144508.615
       231.000         186.000
 03  1 14  2 14  0.0000000  0 10G 6G15G10G17G26G23G 5G18G29G30
  20332557.354   -27806301.35949 -21138781.22948  20332557.303    20332562.721
       243.000         215.000
  23453703.049   -11416310.27649  -8883833.18946  23453701.980    23453710.449
       217.000         163.000
  22638498.430   -13256931.05349 -10313087.24946  22638496.795    22638504.387
       225.000         175.000
  21737884.799   -18332698.63449 -14252178.19947  21737884.186    21737890.933
       235.000         198.000
  22771869.822   -12135974.57049  -9412386.19346  22771869.453    22771876.978
       220.000         164.000
  20645903.965   -21130164.71149 -16098019.51348  20645903.558    20645909.585
       244.000         214.000
  24751520.137    -7569118.92749  -5873776.25745  24751519.719    24751529.251
       203.000         140.000
  23515779.433    -9346660.49849  -7265175.66145  23515779.255    23515785.949
       215.000         157.000
  23056087.087   -10732790.84749  -8337041.44146  23056086.883    23056093.475
       219.000         169.000
  22161492.204   -18887167.50549 -14381963.01446  22161492.758    22161498.993
       230.000         186.000
 03  1 14  2 14 30.0000000  0 10G 6G15G10G17G26G23G 5G18G29G30
  20328979.634   -27825102.18549 -21153431.19148  20328979.490    20328985.131
       243.000         215.000
  23440015.379   -11488239.13349  -8939881.46346  23440014.206    23440023.195
       217.000         164.000
  22656005.064   -13164933.11849 -10241400.54846  22656004.464    22656011.347
       226.000         175.000
  21730162.122   -18373281.35249 -14283801.03247  21730161.532    21730168.072
       235.000         198.000
  22757552.088   -12211214.44349  -9471014.58946  22757552.444    22757558.448
       219.000         164.000
  20640924.298   -21156332.87749 -16118410.24348  20640923.916    20640929.891
       244.000         214.000
  24771540.641    -7463910.11949  -5791795.49045  24771540.849    24771550.818
       211.000         145.000
  23496252.304    -9449275.38549  -7345135.12845  23496252.123    23496258.743
       216.000         156.000
  23047992.308   -10775328.81349  -8370187.84046  23047992.427    23047998.097
       219.000         169.000
  22178533.045   -18797617.28149 -14312183.62546  22178533.051    22178540.031
       229.000         185.000
 03  1 14  2 15  0.0000000  0 10G 6G15G10G17G26G23G 5G18G29G30
  20325476.712   -27843510.01849 -21167774.92448  20325476.625    20325482.124
       243.000         215.000
  23426351.675   -11560041.54549  -8995831.21146  23426351.254    23426359.570
       217.000         164.000
  22673562.262   -13072669.40349 -10169506.73646  22673561.870    22673568.293
       225.000         174.000
  21722471.095   -18413697.47749 -14315294.05847  21722470.597    21722477.377
       235.000         198.000
  22743296.071   -12286130.03249  -9529390.28346  22743296.444    22743302.791
       219.000         165.000
  20636042.256   -21181988.07749 -16138401.25948  20636041.826    20636047.895
       244.000         214.000
  24791547.349    -7358775.36649  -5709872.29445  24791546.659    24791553.790
       207.000         139.000
  23476761.665    -9551698.74149  -7424945.38345  23476761.926    23476768.174
       217.000         158.000
  23039975.430   -10817457.50349  -8403015.32246  23039975.437    23039981.958
       220.000         168.000
  22195624.133   -18707802.82849 -14242198.33046  22195624.009    22195631.195
       229.000         185.000
 03  1 14  2 15 30.0000000  0  9G 6G15G10G17G26G23G18G29G30
  20322048.903   -27861523.04349 -21181811.01648  20322048.708    20322054.402
       243.000         215.000
  23412712.024   -11631717.38649  -9051682.33446  23412711.687    23412719.697
       219.000         164.000
  22691169.528   -12980142.53549 -10097407.86346  22691168.951    22691175.280
       225.000         174.000
  21714811.730   -18453947.46649 -14346657.63047  21714811.199    21714818.117
       236.000         199.000
  22729102.472   -12360717.71849  -9587510.48946  22729102.380    22729108.893
       218.000         165.000
  20631257.860   -21207129.99849 -16157992.31648  20631257.528    20631263.519
       243.000         214.000
  23457307.854    -9653928.29049  -7504604.59845  23457308.094    23457314.137
       219.000         158.000
  23032036.906   -10859174.64549  -8435522.10846  23032036.693    23032042.741
       220.000         169.000
  22212764.993   -18617726.88749 -14172009.27946  22212765.812    22212771.766
       229.000         184.000
 03  1 14  2 16  0.0000000  0  9G 6G15G10G17G26G23G18G29G30
  20318696.480   -27879139.94949 -21195538.43948  20318696.339    20318701.882
       243.000         215.000
  23399096.522   -11703266.59449  -9107434.77746  23399095.473    23399104.213
       217.000         164.000
  22708826.365   -12887355.29949 -10025106.11946  22708825.587    22708832.426
       224.000         174.000
  21707183.951   -18494031.38549 -14377891.79247  21707183.490    21707190.335
       236.000         199.000
  22714971.840   -12434974.12849  -9645372.52746  22714972.352    22714978.881
       220.000         166.000
  20626571.165   -21231758.58449 -16177183.37448  20626570.752    20626576.648
       244.000         214.000
  23437891.397    -9755962.00849  -7584111.21045  23437890.776    23437898.007
       216.000         159.000
  23024177.118   -10900477.91749  -8467706.40946  23024177.244    23024183.025
       220.000         169.000
  22229955.036   -18527392.47949 -14101618.83546  22229955.282    22229961.429
       229.000         184.000
 03  1 14  2 16 30.0000000  0  9G 6G15G10G17G26G23G18G29G30
  20315419.807   -27896358.82449 -21208955.71548  20315419.698    20315425.308
       243.000         215.000
  23385505.175   -11774689.05749  -9163088.47446  23385504.562    23385512.012
       219.000         164.000
  22726532.299   -12794310.03549  -9952603.31646  22726532.469    22726538.330
       226.000         173.000
  21699587.805   -18533949.37949 -14408996.66447  21699587.408    21699594.234
       236.000         199.000
  22700905.013   -12508895.55949  -9702973.55846  22700905.310    22700912.269
       221.000         166.000
  20621982.206   -21255873.49049 -16195974.16548  20621981.769    20621987.765
       243.000         214.000
  23418512.583    -9857797.55749  -7663463.42245  23418511.472    23418519.174
       217.000         159.000
  23016396.593   -10941364.60549  -8499566.09146  23016396.490    23016402.428
       219.000         169.000
  22247193.787   -18436802.25649 -14031029.04346  22247194.488    22247200.111
       229.000         184.000
 03  1 14  2 17  0.0000000  0  9G 6G15G10G17G26G23G18G29G30
  20312219.150   -27913178.24949 -21222061.73148  20312219.083    20312224.628
       243.000         215.000
  23371937.915   -11845985.01849  -9218643.58946  23371936.915    23371945.262
       218.000         164.000
  22744286.739   -12701009.95749  -9879901.94546  22744286.448    22744292.858
       225.000         173.000
  21692023.071   -18573702.08249 -14439972.74547  21692022.535    21692028.941
       236.000         200.000
  22686902.577   -12582478.61449  -9760310.92846  22686902.934    22686909.679
       220.000         167.000
  20617490.985   -21279474.80149 -16214364.75148  20617490.608    20617496.716
       243.000         214.000
  23399171.805    -9959433.22349  -7742659.89745  23399171.081    23399177.598
       215.000         159.000
  23008695.669   -10981832.80049  -8531099.69246  23008695.751    23008702.061
       220.000         168.000
  22264480.596   -18345959.44549 -13960242.44046  22264480.911    22264487.707
       229.000         183.000
 03  1 14  2 17 30.0000000  0  9G 6G15G10G17G26G23G18G29G30
  20309094.825   -27929596.47049 -21234855.11948  20309094.766    20309100.264
       243.000         215.000
  23358394.738   -11917154.08849  -9274099.82946  23358393.701    23358401.752
       217.000         164.000
  22762089.147   -12607457.55449  -9807003.96246  22762088.244    22762095.161
       224.000         173.000
  21684489.820   -18613289.28349 -14470819.86347  21684489.590    21684496.001
       236.000         200.000
  22672965.181   -12655719.76149  -9817381.86946  22672964.953    22672971.826
       221.000         167.000
  20613097.549   -21302562.36249 -16232355.01648  20613097.180    20613103.164
       244.000         214.000
  23379869.562   -10060866.44249  -7821698.59445  23379867.984    23379875.032
       217.000         160.000
  23001074.898   -11021879.95949  -8562305.19746  23001075.327    23001080.741
       220.000         168.000
  22281814.913   -18254866.81149 -13889261.16746  22281815.570    22281821.543
       229.000         183.000
 03  1 14  2 18  0.0000000  0  9G 6G15G10G17G26G23G18G29G30
  20306047.060   -27945612.56949 -21247335.16948  20306046.926    20306052.465
       243.000         215.000
  23344875.592   -11988196.83449  -9329457.64146  23344873.840    23344882.727
       217.000         163.000
  22779938.991   -12513656.05649  -9733911.87446  22779938.846    22779944.755
       224.000         172.000
  21676987.863   -18652711.88149 -14501538.71847  21676987.374    21676994.020
       236.000         200.000
  22659093.382   -12728616.03749  -9874184.08046  22659093.526    22659100.417
       221.000         167.000
  20608801.749   -21325136.73949 -16249945.39248  20608801.214    20608807.261
       244.000         214.000
  23360606.020   -10162096.13749  -7900578.72345  23360605.929    23360612.332
       217.000         160.000
  22993534.557   -11061504.42349  -8593181.34346  22993535.007    22993541.441
       219.000         168.000
  22299196.160   -18163527.83149 -13818087.93346  22299196.637    22299202.827
       228.000         183.000
 03  1 14  2 18 30.0000000  0  9G 6G15G10G17G26G23G18G29G30
  20303076.115   -27961224.83849 -21259500.54148  20303075.923    20303081.491
       243.000         215.000
  23331380.451   -12059113.09749  -9384716.89846  23331379.342    23331388.374
       215.000         164.000
  22797835.743   -12419607.90249  -9660627.59046  22797834.867    22797841.766
       223.000         172.000
  21669517.137   -18691970.53449 -14532129.82147  21669516.636    21669523.263
       236.000         200.000
  22645287.920   -12801163.76849  -9930714.69646  22645288.083    22645294.136
       219.000         167.000
  20604603.663   -21347197.63049 -16267135.65148  20604603.130    20604609.183
       244.000         214.000
  23341381.778   -10263119.68949  -7979298.22045  23341380.628    23341388.269
       216.000         160.000
  22986075.139   -11100703.66249  -8623726.14846  22986074.762    22986081.681
       219.000         168.000
  22316623.721   -18071945.33649 -13746724.94346  22316623.363    22316630.503
       227.000         182.000
 03  1 14  2 19  0.0000000  0  9G 6G15G10G17G26G23G18G29G30
  20300182.425   -27976431.17149 -21271349.60448  20300182.296    20300187.897
       243.000         215.000
  23317909.589   -12129902.29449  -9439877.13146  23317908.318    23317917.671
       219.000         163.000
  22815779.022   -12325315.36049  -9587152.88646  22815778.675    22815784.813
       223.000         172.000
  21662077.750   -18731064.55649 -14562592.64847  21662077.436    21662083.804
       236.000         200.000
  22631549.573   -12873358.99149  -9986970.62346  22631549.674    22631556.458
       220.000         167.000
  20600503.377   -21368744.52749 -16283925.39848  20600502.989    20600509.020
       243.000         214.000
  23322197.261   -10363934.47149  -8057855.03645  23322196.040    23322203.294
       217.000         161.000
  22978697.130   -11139474.98349  -8653937.50346  22978696.509    22978703.088
       219.000         167.000
  22334097.165   -17980121.74749 -13675174.09346  22334097.756    22334103.676
       228.000         182.000
 03  1 14  2 19 30.0000000  0  9G 6G15G10G17G26G23G18G29G30
  20297366.064   -27991231.08349 -21282881.97548  20297365.926    20297371.490
       243.000         215.000
  23304462.760   -12200565.21349  -9494938.97946  23304461.697    23304470.442
       216.000         163.000
  22833768.037   -12230782.25949  -9513490.72646  22833767.392    22833774.091
       223.000         171.000
  21654669.405   -18769995.49849 -14592928.40347  21654668.935    21654675.345
       237.000         200.000
  22617878.727   -12945199.27349 -10042949.98246  22617878.958    22617885.915
       219.000         168.000
  20596500.708   -21389778.39949 -16300315.38548  20596500.340    20596506.230
       243.000         214.000
  23303052.668   -10464539.46749  -8136248.38345  23303052.133    23303059.128
       218.000         161.000
  22971400.767   -11177817.26449  -8683814.54246  22971400.281    22971407.182
       219.000         168.000
  22351615.764   -17888060.93949 -13603438.39846  22351615.798    22351622.119
       227.000         181.000
 03  1 14  2 20  0.0000000  0  9G 6G15G10G17G26G23G18G29G30
  20294627.359   -28005623.11749 -21294096.51748  20294627.292    20294632.717
       243.000         215.000
  23291039.859   -12271102.19349  -9549902.69546  23291039.299    23291046.878
       217.000         163.000
  22851802.348   -12136011.27949  -9439643.20446  22851802.067    22851808.602
       223.000         171.000
  21647292.056   -18808763.58649 -14623137.25647  21647291.552    21647298.096
       236.000         200.000
  22604276.139   -13016681.27449 -10098650.13746  22604275.516    22604282.569
       221.000         168.000
  20592595.648   -21410299.46749 -16316305.78648  20592595.183    20592601.215
       243.000         214.000
  23283948.350   -10564932.83149  -8214476.82645  23283947.019    23283954.471
       220.000         162.000
  22964186.471   -11215728.41149  -8713355.63146  22964185.895    22964192.495
       220.000         168.000
  22369178.850   -17795766.05549 -13531520.30746  22369179.229    22369186.173
       228.000         181.000
 03  1 14  2 20 30.0000000  0  9G 6G15G10G17G26G23G18G29G30
  20291966.689   -28019604.85249 -21304991.35148  20291966.664    20291972.037
       243.000         215.000
  23277641.126   -12341512.26549  -9604767.51946  23277641.334    23277648.436
       218.000         164.000
  22869881.560   -12041004.11549  -9365611.64946  22869881.291    22869888.408
       222.000         170.000
  21639945.870   -18847367.75449 -14653218.38447  21639945.647    21639951.919
       237.000         200.000
  22590742.536   -13087800.55649 -10154067.66946  22590742.974    22590749.433
       222.000         169.000
  20588788.342   -21430306.81249 -16331895.88448  20588787.909    20588793.897
       243.000         214.000
  23264884.904   -10665111.40849  -8292537.91245  23264884.626    23264891.010
       219.000         162.000
  22957054.823   -11253205.18749  -8742558.25746  22957054.762    22957060.386
       220.000         168.000
  22386786.152   -17703239.16849 -13459421.43646  22386786.130    22386792.761
       227.000         180.000
 03  1 14  2 21  0.0000000  0  9G 6G15G10G17G26G23G18G29G30
  20289384.190   -28033175.85949 -21315566.13248  20289384.072    20289389.553
       243.000         215.000
  23264266.337   -12411796.64649  -9659534.40246  23264265.044    23264273.020
       216.000         164.000
  22888005.008   -11945764.74549  -9291399.15246  22888004.614    22888011.107
       222.000         170.000
  21632630.623   -18885809.52449 -14683172.97047  21632630.142    21632636.715
       237.000         200.000
  22577278.370   -13158555.14049 -10209201.02946  22577278.365    22577285.089
       221.000         169.000
  20585078.592   -21449801.66149 -16347086.63548  20585078.277    20585083.927
       244.000         214.000
  23245862.396   -10765074.65149  -8370431.19345  23245860.576    23245868.296
       218.000         162.000
  22950005.953   -11290246.82949  -8771421.81646  22950005.592    22950012.227
       220.000         168.000
  22404436.798   -17610484.34649 -13387144.95446  22404437.431    22404442.793
       228.000         180.000
 03  1 14  2 21 30.0000000  0  9G 6G15G10G17G26G23G18G29G30
  20286880.301   -28046333.81749 -21325819.05648  20286880.235    20286885.683
       244.000         215.000
  23250915.601   -12481954.42449  -9714202.64146  23250914.387    23250922.599
       218.000         164.000
  22906172.290   -11850295.12249  -9217007.23446  22906171.707    22906177.987
       224.000         170.000
  21625346.373   -18924088.43549 -14713000.64647  21625345.994    21625352.276
       236.000         200.000
  22563884.460   -13228940.51449 -10264046.68246  22563884.238    22563891.271
       222.000         170.000
  20581466.491   -21468783.16549 -16361877.37448  20581466.018    20581471.933
       243.000         214.000
  23226881.489   -10864819.28649  -8448154.14146  23226880.565    23226887.218
       218.000         163.000
  22943040.556   -11326850.03149  -8799943.72446  22943040.873    22943046.619
       221.000         168.000
  22422130.427   -17517503.70149 -13314692.49146  22422130.792    22422137.280
       227.000         180.000
 03  1 14  2 22  0.0000000  0  9G 6G15G10G17G26G23G18G29G30
  20284455.177   -28059077.78649 -21335749.39648  20284455.154    20284460.471
       243.000         215.000
  23237588.827   -12551986.16249  -9768772.66846  23237588.192    23237595.633
       219.000         164.000
  22924382.744   -11754598.21149  -9142438.21046  22924382.390    22924388.705
       222.000         170.000
  21618092.924   -18962205.28449 -14742702.04047  21618092.336    21618098.743
       237.000         201.000
  22550561.314   -13298953.93249 -10318602.51746  22550561.311    22550567.420
       223.000         170.000
  20577951.937   -21487252.07649 -16376268.69548  20577951.611    20577957.359
       244.000         214.000
  23207942.431   -10964344.01749  -8525705.75046  23207941.357    23207948.425
       219.000         163.000
  22936158.894   -11363013.40749  -8828122.91246  22936158.598    22936165.203
       220.000         169.000
  22439866.350   -17424300.81249 -13242066.85546  22439866.244    22439872.394
       227.000         179.000
 03  1 14  2 22 30.0000000  0  9G 6G15G10G17G26G23G18G29G30
  20282109.059   -28071406.58749 -21345356.22648  20282108.948    20282114.446
       243.000         215.000
  23224286.089   -12621892.02749  -9823244.62546  23224284.962    23224292.964
       219.000         165.000
  22942635.906   -11658677.36049  -9067694.67946  22942635.494    22942642.985
       223.000         170.000
  21610870.224   -19000160.54049 -14772277.52647  21610869.526    21610876.326
       236.000         201.000
  22537309.509   -13368592.22149 -10372866.03646  22537309.705    22537315.732
       222.000         170.000
  20574534.831   -21505208.92349 -16390261.00048  20574534.396    20574540.390
       243.000         214.000
  23189045.586   -11063646.95349  -8603084.50146  23189044.539    23189051.326
       220.000         163.000
  22929361.210   -11398735.01249  -8855957.85446  22929361.403    22929367.019
       221.000         169.000
  22457643.934   -17330878.92349 -13169270.57146  22457643.817    22457650.529
       226.000         179.000
 03  1 14  2 23  0.0000000  0  9G 6G15G10G17G26G23G18G29G30
  20279842.354   -28083317.95449 -21354637.78748  20279842.247    20279847.765
       243.000         215.000
  23211007.446   -12691670.91949  -9877617.64046  23211006.854    23211014.831
       219.000         166.000
  22960931.376   -11562534.07549  -8992777.83246  22960930.808    22960936.966
       224.000         170.000
  21603678.390   -19037953.81349 -14801726.79347  21603678.045    21603684.392
       237.000         201.000
  22524129.927   -13437851.07049 -10426833.89946  22524130.169    22524136.098
       222.000         170.000
  20571215.319   -21522652.90949 -16403853.67848  20571214.854    20571220.726
       243.000         214.000
  23170191.497   -11162725.33649  -8680288.31446  23170190.651    23170197.665
       217.000         164.000
  22922648.206   -11434012.07249  -8883446.40846  22922648.001    22922654.006
       221.000         169.000
  22475462.811   -17237239.93549 -13096305.12646  22475463.630    22475469.630
       227.000         178.000
 03  1 14  2 23 30.0000000  0  9G 6G15G10G17G26G23G18G29G30
  20277655.469   -28094810.00049 -21363592.60048  20277655.261    20277660.811
       243.000         215.000
  23197753.150   -12761322.27949  -9931891.28146  23197752.370    23197760.198
       220.000         167.000
  22979268.769   -11466170.47049  -8917689.29946  22979268.124    22979275.537
       221.000         170.000
  21596517.437   -19075584.84449 -14831049.63547  21596517.052    21596523.550
       237.000         201.000
  22511023.221   -13506726.70949 -10480503.15146  22511023.063    22511030.175
       222.000         171.000
  20567993.432   -21539583.81549 -16417046.55148  20567992.865    20567998.937
       243.000         214.000
  23151380.574   -11261576.80649  -8757315.27946  23151380.773    23151386.619
       220.000         164.000
  22916020.273   -11468841.69449  -8910586.31146  22916020.339    22916026.151
       221.000         170.000
  22493322.494   -17143386.46049 -13023172.55246  22493323.136    22493328.815
       226.000         178.000
 03  1 14  2 24  0.0000000  0  9G 6G15G10G17G26G23G18G29G30
  20275548.712   -28105880.96849 -21372219.31048  20275548.530    20275554.178
       243.000         215.000
  23184523.084   -12830846.14349  -9986065.58746  23184521.840    23184530.373
       221.000         168.000
  22997647.606   -11369589.18249  -8842431.14946  22997647.080    22997652.742
       222.000         169.000
  21589387.316   -19113053.68949 -14860246.09647  21589386.819    21589393.277
       237.000         201.000
  22497990.260   -13575215.41249 -10533870.90546  22497989.796    22497996.677
       223.000         171.000
  20564869.230   -21556001.50949 -16429839.52148  20564868.788    20564874.823
       243.000         214.000
  23132613.321   -11360198.74449  -8834163.40846  23132612.655    23132619.422
       219.000         164.000
  22909477.881   -11503221.93749  -8937376.05446  22909477.639    22909483.393
       222.000         170.000
  22511222.510   -17049321.29249 -12949875.00246  22511222.995    22511228.793
       225.000         177.000
 03  1 14  2 24 30.0000000  0  9G 6G15G10G17G26G23G18G29G30
  20273521.759   -28116532.42749 -21380519.12648  20273521.663    20273527.183
       243.000         215.000
  23171316.803   -12900245.32349 -10040142.73546  23171315.652    23171323.948
       221.000         168.000
  23016066.687   -11272795.78649  -8767007.71046  23016065.789    23016072.617
       222.000         169.000
  21582287.548   -19150363.17649 -14889318.38347  21582287.134    21582293.580
       237.000         202.000
  22485030.977   -13643316.76049 -10586936.81946  22485031.057    22485037.921
       223.000         172.000
  20561842.049   -21571909.29149 -16442235.15848  20561841.543    20561847.557
       244.000         214.000
  23113889.576   -11458592.14849  -8910833.44646  23113889.118    23113894.844
       220.000         165.000
  22903020.910   -11537153.55749  -8963816.22146  22903020.769    22903026.313
       221.000         171.000
  22529161.670   -16955050.12649 -12876416.95246  22529161.856    22529168.499
       226.000         177.000
 03  1 14  2 25  0.0000000  0  9G 6G15G10G17G26G23G18G29G30
  20271575.101   -28126762.21549 -21388490.36948  20271574.961    20271580.470
       243.000         215.000
  23158134.318   -12969519.40249 -10094122.41246  23158133.298    23158140.908
       223.000         170.000
  23034525.843   -11175792.37149  -8691420.63346  23034524.730    23034532.052
       221.000         169.000
  21575218.097   -19187513.24149 -14918266.44547  21575217.698    21575224.240
       238.000         202.000
  22472146.101   -13711026.91649 -10639697.90146  22472146.337    22472151.928
       222.000         172.000
  20558911.987   -21587306.72549 -16454233.12148  20558911.612    20558917.516
       243.000         214.000
  23095209.728   -11556754.71749  -8987323.62946  23095209.019    23095215.712
       221.000         166.000
  22896649.718   -11570633.88449  -8989904.72946  22896649.609    22896655.146
       222.000         171.000
  22547139.568   -16860575.58449 -12802800.43046  22547139.630    22547146.330
       225.000         177.000
 03  1 14  2 25 30.0000000  0  9G 6G15G10G17G26G23G18G29G30
  20269709.431   -28136566.23349 -21396129.84348  20269709.292    20269714.880
       243.000         215.000
  23144976.098   -13038665.64349 -10148002.47346  23144975.017    23144983.338
       223.000         170.000
  23053025.020   -11078578.47149  -8615669.54446  23053024.233    23053030.652
       221.000         168.000
  21568179.529   -19224501.09949 -14947088.11447  21568179.260    21568185.495
       238.000         202.000
  22459336.796   -13778339.71949 -10692149.35646  22459336.295    22459343.877
       224.000         172.000
  20556079.543   -21602191.18849 -16465831.36948  20556079.113    20556084.954
       243.000         214.000
  23076574.785   -11654681.57349  -9063630.14246  23076573.501    23076580.494
       220.000         166.000
  22890365.409   -11603658.20749  -9015637.90446  22890365.690    22890371.194
       222.000         171.000
  22565156.200   -16765897.86449 -12729025.58446  22565155.868    22565162.575
       224.000         176.000
 03  1 14  2 26  0.0000000  0  9G 6G15G10G17G26G23G18G29G30
  20267923.920   -28145949.13149 -21403441.17148  20267923.758    20267929.236
       245.000         215.000
  23131841.094   -13107689.89249 -10201787.46946  23131840.510    23131847.225
       225.000         171.000
  23071562.536   -10981163.14549  -8539761.48946  23071561.450    23071568.778
       222.000         168.000
  21561170.569   -19261333.40949 -14975788.57647  21561170.113    21561176.429
       239.000         202.000
  22446602.657   -13845257.89849 -10744293.31346  22446603.360    22446609.015
       226.000         173.000
  20553343.498   -21616569.01549 -16477034.83448  20553343.027    20553348.946
       245.000         215.000
  23057983.937   -11752376.69849  -9139756.08446  23057982.231    23057989.324
       221.000         167.000
  22884167.066   -11636230.48749  -9041018.84046  22884166.221    22884172.594
       223.000         172.000
  22583209.768   -16671025.78449 -12655099.28946  22583209.969    22583216.689
       226.000         176.000
 03  1 14  2 26 30.0000000  0  9G 6G15G10G17G26G23G18G29G30
  20266219.712   -28154904.66149 -21410419.48948  20266219.768    20266225.037
       244.000         215.000
  23118730.315   -13176587.23949 -10255473.59446  23118728.727    23118737.852
       224.000         171.000
  23090138.789   -10883544.17549  -8463694.75746  23090138.090    23090145.803
       220.000         167.000
  21554192.082   -19298005.51749 -15004364.20447  21554191.544    21554197.813
       237.000         202.000
  22433945.160   -13911773.29149 -10796123.41546  22433945.223    22433951.505
       223.000         173.000
  20550704.774   -21630435.57749 -16487839.91448  20550704.313    20550710.055
       244.000         215.000
  23039438.405   -11849833.51049  -9215696.31946  23039437.729    23039443.533
       222.000         167.000
  22878056.024   -11668343.92049  -9066042.24446  22878056.331    22878061.639
       223.000         172.000
  22601300.612   -16575957.61149 -12581020.19846  22601300.375    22601306.595
       225.000         175.000
 03  1 14  2 27  0.0000000  0  9G 6G15G10G17G26G23G18G29G30
  20264596.914   -28163432.55049 -21417064.57748  20264596.782    20264602.312
       243.000         215.000
  23105643.424   -13245358.58549 -10309061.53746  23105642.247    23105650.404
       224.000         171.000
  23108753.144   -10785725.06749  -8387472.07846  23108752.623    23108759.553
       220.000         167.000
  21547243.850   -19334518.45649 -15032815.80247  21547243.404    21547249.722
       238.000         202.000
  22421364.722   -13977883.65849 -10847637.92346  22421364.792    22421371.633
       225.000         173.000
  20548163.009   -21643792.35949 -16498247.76448  20548162.493    20548168.388
       243.000         215.000
  23020938.463   -11947050.79949  -9291449.92446  23020938.226    23020944.010
       225.000         168.000
  22872032.490   -11699997.73049  -9090707.49146  22872032.302    22872038.147
       223.000         173.000
  22619428.089   -16480697.26349 -12506791.35846  22619427.746    22619434.981
       224.000         175.000
 03  1 14  2 27 30.0000000  0  9G 6G15G10G17G26G23G18G29G30
  20263055.684   -28171531.57749 -21423375.48448  20263055.818    20263061.033
       244.000         215.000
  23092580.514   -13314004.16649 -10362551.49146  23092579.450    23092586.580
       224.000         171.000
  23127404.995   -10687708.74349  -8311095.72046  23127404.751    23127411.628
       219.000         167.000
  21540325.842   -19370872.52849 -15061143.60747  21540325.513    21540331.857
       239.000         202.000
  22408861.968   -14043585.83249 -10898834.35046  22408861.918    22408868.173
       224.000         173.000
  20545718.182   -21656639.88449 -16508258.78848  20545717.895    20545723.779
       243.000         215.000
  23002484.403   -12044026.92949  -9367015.61946  23002483.452    23002490.050
       223.000         168.000
  22866096.755   -11731189.85449  -9115012.98246  22866096.771    22866102.109
       223.000         172.000
  22637591.434   -16385248.05349 -12432415.34246  22637591.661    22637598.524
       224.000         175.000
 03  1 14  2 28  0.0000000  0  9G 6G15G10G17G26G23G18G29G30
  20261596.448   -28179199.87449 -21429350.76348  20261596.489    20261601.776
       243.000         216.000
  23079541.607   -13382523.69849 -10415943.23146  23079540.277    23079548.398
       223.000         170.000
  23146093.949   -10589497.44349  -8234567.43446  23146093.273    23146100.124
       220.000         167.000
  21533438.106   -19407067.76849 -15089347.65047  21533437.571    21533443.997
       238.000         202.000
  22396437.612   -14108876.06249 -10949709.78246  22396437.019    22396443.807
       224.000         173.000
  20543370.270   -21668978.16349 -16517873.00048  20543369.861    20543375.647
       244.000         215.000
  22984076.733   -12140759.23449  -9442391.30746  22984075.656    22984082.084
       224.000         168.000
  22860249.314   -11761918.17349  -9138957.07246  22860249.139    22860255.025
       223.000         173.000
  22655790.319   -16289612.25749 -12357893.96046  22655791.312    22655797.195
       225.000         175.000
 03  1 14  2 28 30.0000000  0  9G 6G15G10G17G26G23G18G29G30
  20260219.166   -28186437.53249 -21434990.47348  20260219.212    20260224.468
       244.000         216.000
  23066526.399   -13450918.60649 -10469237.85046  23066525.087    23066532.996
       224.000         170.000
  23164819.314   -10491094.99649  -8157890.20146  23164818.790    23164825.799
       219.000         167.000
  21526580.285   -19443105.57649 -15117429.01247  21526579.489    21526585.990
       239.000         202.000
  22384091.937   -14173752.39649 -11000262.68946  22384092.105    22384098.181
       224.000         173.000
  20541118.905   -21680809.00049 -16527091.79848  20541118.360    20541124.360
       244.000         215.000
  22965715.499   -12237247.58149  -9517576.90846  22965714.687    22965720.723
       224.000         168.000
  22854490.185   -11792182.11049  -9162539.29546  22854489.976    22854496.251
       224.000         173.000
  22674023.875   -16193794.36349 -12283230.66846  22674024.090    22674030.745
       224.000         174.000
 03  1 14  2 29  0.0000000  0  9G 6G15G10G17G26G23G18G29G30
  20258924.393   -28193241.51449 -21440292.25848  20258924.229    20258929.651
       244.000         216.000
  23053535.250   -13519187.04649 -10522433.93946  23053534.990    23053542.465
       226.000         170.000
  23183580.847   -10392502.24349  -8081064.68046  23183580.491    23183586.587
       219.000         166.000
  21519752.727   -19478984.30649 -15145386.42247  21519752.315    21519758.666
       239.000         202.000
  22371826.013   -14238209.87349 -11050489.22346  22371825.408    22371832.320
       224.000         174.000
  20538964.374   -21692131.03449 -16535914.12848  20538963.841    20538969.728
       244.000         215.000
  22947401.490   -12333488.00149  -9592569.31846  22947400.545    22947406.381
       224.000         169.000
  22848820.215   -11821978.08049  -9185756.87246  22848819.132    22848825.947
       222.000         173.000
  22692291.869   -16097795.56249 -12208426.40246  22692291.733    22692298.642
       224.000         174.000
 03  1 14  2 29 30.0000000  0  9G 6G15G10G17G26G23G18G29G30
  20257712.384   -28199610.78149 -21445255.31148  20257712.258    20257717.581
       244.000         216.000
  23040568.122   -13587329.29249 -10575531.70846  23040566.718    23040575.096
       224.000         169.000
  23202377.977   -10293722.41249  -8004093.38746  23202377.388    23202384.517
       217.000         165.000
  21512955.287   -19514704.94949 -15173220.65347  21512954.821    21512960.804
       238.000         202.000
  22359640.262   -14302245.62549 -11100387.15446  22359640.973    22359646.417
       225.000         174.000
  20536906.554   -21702944.79049 -16544340.40748  20536906.156    20536911.933
       243.000         215.000
  22929134.869   -12429478.92249  -9667367.32746  22929134.670    22929139.970
       225.000         169.000
  22843239.601   -11851304.37749  -9208608.48546  22843239.245    22843244.706
       221.000         173.000
  22710593.574   -16001619.23949 -12133483.81646  22710594.303    22710600.629
       223.000         174.000
 03  1 14  2 30  0.0000000  0  9G 6G15G10G17G26G23G18G29G30
  20256582.931   -28205545.88249 -21449880.05248  20256582.909    20256588.228
       243.000         215.000
  23027624.630   -13655347.17149 -10628532.55246  23027623.718    23027630.968
       224.000         169.000
  23221209.930   -10194759.83549  -7926979.70546  23221209.961    23221216.761
       218.000         164.000
  21506187.551   -19550269.29549 -15200933.09547  21506187.276    21506193.585
       239.000         203.000
  22347535.081   -14365858.18649 -11149955.32246  22347535.083    22347541.311
       223.000         173.000
  20534945.002   -21713252.75449 -16552372.55548  20534944.554    20534950.376
       243.000         215.000
  22910915.747   -12525220.20749  -9741970.79946  22910914.904    22910921.710
       223.000         169.000
  22837748.222   -11880161.18249  -9231094.25046  22837748.576    22837754.401
       223.000         173.000
  22728928.157   -15905270.08649 -12058406.56246  22728929.340    22728934.930
       224.000         173.000
 03  1 14  2 30 30.0000000  0  9G 6G15G10G17G26G23G18G29G30
  20255536.628   -28211044.10849 -21454164.36448  20255536.604    20255541.992
       243.000         215.000
  23014705.113   -13723239.34949 -10681435.46546  23014704.012    23014711.877
       223.000         168.000
  23240076.428   -10095615.65249  -7849724.49746  23240075.750    23240083.490
       218.000         164.000
  21499449.784   -19585676.43649 -15228523.03747  21499449.351    21499455.253
       239.000         203.000
  22335511.349   -14429043.05749 -11199190.22346  22335511.337    22335517.873
       223.000         173.000
  20533079.840   -21723054.03149 -16560009.88248  20533079.515    20533085.176
       243.000         215.000
  22892744.828   -12620708.49749  -9816377.14346  22892743.913    22892750.234
       223.000         169.000
  22832346.791   -11908545.33249  -9253211.71346  22832346.885    22832351.796
       223.000         173.000
  22747295.354   -15808749.75049 -11983195.91046  22747295.915    22747301.501
       224.000         173.000
